[[{"header":{"parameterUnit":"m.s-1","parameterCategory":1,"la1":30.6,"la2":28.766,"lo1":-90.7593,"lo2":-88.6598,"dy":0.0162,"dx":0.0183,"nx":116,"ny":114,"refTime":"2024-07-02T12:00:00:Z","depth":0,"parameterNumber":2,"parameterNumberName":"U-component_of_WINDS"},"data":[0.0,0.0,0.0,0.0,0.0,0.0,0.0,0.0,0.0,0.0,0.0,0.0,0.0,0.0,0.0,0.0,0.0,0.0,0.0,0.0,0.0,0.0,0.0,0.0,0.0,0.0,0.0,0.0,0.0,0.0,0.0,0.0,0.0,0.0,0.0,0.0,0.0,0.0,0.0,0.0,0.0,0.0,0.0,0.0,0.0,0.0,0.0,0.0,0.0,0.0,0.0,0.0,0.0,0.0,0.0,0.0,0.0,0.0,0.0,0.0,0.0,0.0,0.0,0.0,0.0,0.0,0.0,0.0,0.0,0.0,0.0,0.0,0.0,0.0,0.0,0.0,0.0,0.0,0.0,0.0,0.0,0.0,0.0,0.0,0.0,0.0,0.0,0.0,0.0,0.0,0.0,0.0,0.0,0.0,0.0,0.0,0.0,0.0,0.0,0.0,0.0,0.0,0.0,0.0,0.0,0.0,0.0,0.0,0.0,0.0,0.0,0.0,0.0,0.0,0.0,0.0,0.0,0.0,0.0,0.0,0.0,0.0,0.0,0.0,0.0,0.0,0.0,0.0,0.0,0.0,0.0,0.0,0.0,0.0,0.0,0.0,0.0,0.0,0.0,0.0,0.0,0.0,0.0,0.0,0.0,0.0,0.0,0.0,0.0,0.0,0.0,0.0,0.0,0.0,0.0,0.0,0.0,0.0,0.0,0.0,0.0,0.0,0.0,0.0,0.0,0.0,0.0,0.0,0.0,0.0,0.0,0.0,0.0,0.0,0.0,0.0,0.0,0.0,0.0,0.0,0.0,0.0,0.0,0.0,0.0,0.0,0.0,0.0,0.0,0.0,0.0,0.0,0.0,0.0,0.0,0.0,0.0,0.0,0.0,0.0,0.0,0.0,0.0,0.0,0.0,0.0,0.0,0.0,0.0,0.0,0.0,0.0,0.0,0.0,0.0,0.0,0.0,0.0,0.0,0.0,0.0,0.0,0.0,0.0,0.0,0.0,0.0,0.0,0.0,0.0,0.0,0.0,0.0,0.0,0.0,0.0,0.0,0.0,0.0,0.0,0.0,0.0,0.0,0.0,0.0,0.0,0.0,0.0,0.0,0.0,0.0,0.0,0.0,0.0,0.0,0.0,0.0,0.0,0.0,0.0,0.0,0.0,0.0,0.0,0.0,0.0,0.0,0.0,0.0,0.0,0.0,0.0,0.0,0.0,0.0,0.0,0.0,0.0,0.0,0.0,0.0,0.0,0.0,0.0,0.0,0.0,0.0,0.0,0.0,0.0,0.0,0.0,0.0,0.0,0.0,0.0,0.0,0.0,0.0,0.0,0.0,0.0,0.0,0.0,0.0,0.0,0.0,0.0,0.0,0.0,0.0,0.0,0.0,0.0,0.0,0.0,0.0,0.0,0.0,0.0,0.0,0.0,0.0,0.0,0.0,0.0,0.0,0.0,0.0,0.0,0.0,0.0,0.0,0.0,0.0,0.0,0.0,0.0,0.0,0.0,0.0,0.0,0.0,0.0,0.0,0.0,0.0,0.0,0.0,0.0,0.0,0.0,0.0,0.0,0.0,0.0,0.0,0.0,0.0,0.0,0.0,0.0,0.0,0.0,0.0,0.0,0.0,0.0,0.0,0.0,0.0,0.0,0.0,0.0,0.0,0.0,0.0,0.0,0.0,0.0,0.0,0.0,0.0,0.0,0.0,0.0,0.0,0.0,0.0,0.0,0.0,0.0,0.0,0.0,0.0,0.0,0.0,0.0,0.0,0.0,0.0,0.0,0.0,0.0,0.0,0.0,0.0,0.0,0.0,0.0,0.0,0.0,0.0,0.0,0.0,0.0,0.0,0.0,0.0,0.0,0.0,0.0,0.0,0.0,0.0,0.0,0.0,0.0,0.0,0.0,0.0,0.0,0.0,0.0,0.0,0.0,0.0,0.0,0.0,0.0,0.0,0.0,0.0,0.0,0.0,0.0,0.0,0.0,0.0,0.0,0.0,0.0,0.0,0.0,0.0,0.0,0.0,0.0,0.0,0.0,0.0,0.0,0.0,0.0,0.0,0.0,0.0,0.0,0.0,0.0,0.0,0.0,0.0,0.0,0.0,0.0,0.0,0.0,0.0,0.0,0.0,0.0,0.0,0.0,0.0,0.0,0.0,0.0,0.0,0.0,0.0,0.0,0.0,0.0,0.0,0.0,0.0,0.0,0.0,0.0,0.0,0.0,0.0,0.0,0.0,0.0,0.0,0.0,0.0,0.0,0.0,0.0,0.0,0.0,0.0,0.0,0.0,0.0,0.0,0.0,0.0,0.0,0.0,0.0,0.0,0.0,0.0,0.0,0.0,0.0,0.0,0.0,0.0,0.0,0.0,0.0,0.0,0.0,0.0,0.0,0.0,0.0,0.0,0.0,0.0,0.0,0.0,0.0,0.0,0.0,0.0,0.0,0.0,0.0,0.0,0.0,0.0,0.0,0.0,0.0,0.0,0.0,0.0,0.0,0.0,0.0,0.0,0.0,0.0,0.0,0.0,0.0,0.0,0.0,0.0,0.0,0.0,0.0,0.0,0.0,0.0,0.0,0.0,0.0,0.0,0.0,0.0,0.0,0.0,0.0,0.0,0.0,0.0,0.0,0.0,0.0,0.0,0.0,0.0,0.0,0.0,0.0,0.0,0.0,0.0,0.0,0.0,0.0,0.0,0.0,0.0,0.0,0.0,0.0,0.0,0.0,0.0,0.0,0.0,0.0,0.0,0.0,0.0,0.0,0.0,0.0,0.0,0.0,0.0,0.0,0.0,0.0,0.0,0.0,0.0,0.0,0.0,0.0,0.0,0.0,0.0,0.0,0.0,0.0,0.0,0.0,0.0,0.0,0.0,0.0,0.0,0.0,0.0,0.0,0.0,0.0,0.0,0.0,0.0,0.0,0.0,0.0,0.0,0.0,0.0,0.0,0.0,0.0,0.0,0.0,0.0,0.0,0.0,0.0,0.0,0.0,0.0,0.0,0.0,0.0,0.0,0.0,0.0,0.0,0.0,0.0,0.0,0.0,0.0,0.0,0.0,0.0,0.0,0.0,0.0,0.0,0.0,0.0,0.0,0.0,0.0,0.0,0.0,0.0,0.0,0.0,0.0,0.0,0.0,0.0,0.0,0.0,0.0,0.0,0.0,0.0,0.0,0.0,0.0,0.0,0.0,0.0,0.0,0.0,0.0,0.0,0.0,0.0,0.0,0.0,0.0,0.0,0.0,0.0,0.0,0.0,0.0,0.0,0.0,0.0,0.0,0.0,0.0,0.0,0.0,0.0,0.0,0.0,0.0,0.0,0.0,0.0,0.0,0.0,0.0,0.0,0.0,0.0,0.0,0.0,0.0,0.0,0.0,0.0,0.0,0.0,0.0,0.0,0.0,0.0,0.0,0.0,0.0,0.0,0.0,0.0,0.0,0.0,0.0,0.0,0.0,0.0,0.0,0.0,0.0,0.0,0.0,0.0,0.0,0.0,0.0,0.0,0.0,0.0,0.0,0.0,0.0,0.0,0.0,0.0,0.0,0.0,0.0,0.0,0.0,0.0,0.0,0.0,0.0,0.0,0.0,0.0,0.0,0.0,0.0,0.0,0.0,0.0,0.0,0.0,0.0,0.0,0.0,0.0,0.0,0.0,0.0,0.0,0.0,0.0,0.0,0.0,0.0,0.0,0.0,0.0,0.0,0.0,0.0,0.0,0.0,0.0,0.0,0.0,0.0,0.0,0.0,0.0,0.0,0.0,0.0,0.0,0.0,0.0,0.0,0.0,0.0,0.0,0.0,0.0,0.0,0.0,0.0,0.0,0.0,0.0,0.0,0.0,0.0,0.0,0.0,0.0,0.0,0.0,0.0,0.0,0.0,0.0,0.0,0.0,0.0,0.0,0.0,0.0,0.0,0.0,0.0,0.0,0.0,0.0,0.0,0.0,0.0,0.0,0.0,0.0,0.0,0.0,0.0,0.0,0.0,0.0,0.0,0.0,0.0,0.0,0.0,0.0,0.0,0.0,0.0,0.0,0.0,0.0,0.0,0.0,0.0,0.0,0.0,0.0,0.0,0.0,0.0,0.0,0.0,0.0,0.0,0.0,0.0,0.0,0.0,0.0,0.0,0.0,0.0,0.0,0.0,0.0,0.0,0.0,0.0,0.0,0.0,0.0,0.0,0.0,0.0,0.0,0.0,0.0,0.0,0.0,0.0,0.0,0.0,0.0,0.0,0.0,0.0,0.0,0.0,0.0,0.0,0.0,0.0,0.0,0.0,0.0,0.0,0.0,0.0,0.0,0.0,0.0,0.0,0.0,0.0,0.0,0.0,0.0,0.0,0.0,0.0,0.0,0.0,0.0,0.0,0.0,0.0,0.0,0.0,0.0,0.0,0.0,0.0,0.0,0.0,0.0,0.0,0.0,0.0,0.0,0.0,0.0,0.0,0.0,0.0,0.0,0.0,0.0,0.0,0.0,0.0,0.0,0.0,0.0,0.0,0.0,0.0,0.0,0.0,0.0,0.0,0.0,0.0,0.0,0.0,0.0,0.0,0.0,0.0,0.0,0.0,0.0,0.0,0.0,0.0,0.0,0.0,0.0,0.0,0.0,0.0,0.0,0.0,0.0,0.0,0.0,0.0,0.0,0.0,0.0,0.0,0.0,0.0,0.0,0.0,0.0,0.0,0.0,0.0,0.0,0.0,0.0,0.0,0.0,0.0,0.0,0.0,0.0,0.0,0.0,0.0,0.0,0.0,0.0,0.0,0.0,0.0,0.0,0.0,0.0,0.0,0.0,0.0,0.0,0.0,0.0,0.0,0.0,0.0,0.0,0.0,0.0,0.0,0.0,0.0,0.0,0.0,0.0,0.0,0.0,0.0,0.0,0.0,0.0,0.0,0.0,0.0,0.0,0.0,0.0,0.0,0.0,0.0,0.0,0.0,0.0,0.0,0.0,0.0,0.0,0.0,0.0,0.0,0.0,0.0,0.0,0.0,0.0,0.0,0.0,0.0,0.0,0.0,0.0,0.0,0.0,0.0,0.0,0.0,0.0,0.0,0.0,0.0,0.0,0.0,0.0,0.0,0.0,0.0,0.0,0.0,0.0,0.0,0.0,0.0,0.0,0.0,0.0,0.0,0.0,0.0,0.0,0.0,0.0,0.0,0.0,0.0,0.0,0.0,0.0,0.0,0.0,0.0,0.0,0.0,0.0,0.0,0.0,0.0,0.0,0.0,0.0,0.0,0.0,0.0,0.0,0.0,0.0,0.0,0.0,0.0,0.0,0.0,0.0,0.0,0.0,0.0,0.0,0.0,0.0,0.0,0.0,0.0,0.0,0.0,0.0,0.0,0.0,0.0,0.0,0.0,0.0,0.0,0.0,0.0,0.0,0.0,0.0,0.0,0.0,0.0,0.0,0.0,0.0,0.0,0.0,0.0,0.0,0.0,0.0,0.0,0.0,0.0,0.0,0.0,0.0,0.0,0.0,0.0,0.0,0.0,0.0,0.0,0.0,0.0,0.0,0.0,0.0,0.0,0.0,0.0,0.0,0.0,0.0,0.0,0.0,0.0,0.0,0.0,0.0,0.0,0.0,0.0,0.0,0.0,0.0,0.0,0.0,0.0,0.0,0.0,0.0,0.0,0.0,0.0,0.0,0.0,0.0,0.0,0.0,0.0,0.0,0.0,0.0,0.0,0.0,0.0,0.0,0.0,0.0,0.0,0.0,0.0,0.0,0.0,0.0,0.0,0.0,0.0,0.0,0.0,0.0,0.0,0.0,0.0,0.0,0.0,0.0,0.0,0.0,0.0,0.0,0.0,0.0,0.0,0.0,0.0,0.0,0.0,0.0,0.0,0.0,0.0,0.0,0.0,0.0,0.0,0.0,0.0,0.0,0.0,0.0,0.0,0.0,0.0,0.0,0.0,0.0,0.0,0.0,0.0,0.0,0.0,0.0,0.0,0.0,0.0,0.0,0.0,0.0,0.0,0.0,0.0,0.0,0.0,0.0,0.0,0.0,0.0,0.0,0.0,0.0,0.0,0.0,0.0,0.0,0.0,0.0,0.0,0.0,0.0,0.0,0.0,0.0,0.0,0.0,0.0,0.0,-1.071,0.0,0.0,0.0,0.0,0.0,0.0,0.0,0.0,0.0,0.0,0.0,0.0,0.0,0.0,0.0,0.0,0.0,0.0,0.0,0.0,0.0,0.0,0.0,0.0,-0.7026,-0.6874,-0.6668,-0.6616,-0.6599,-0.6599,0.0,0.0,0.0,0.0,0.0,-0.6599,-0.6599,-0.6724,-0.6991,-0.6991,-0.7413,-0.8212,-0.8294,-0.809,-0.7679,0.0,0.0,0.0,0.0,0.0,0.0,0.0,0.0,0.0,0.0,0.0,0.0,0.0,0.0,0.0,0.0,0.0,0.0,0.0,0.0,0.0,0.0,0.0,0.0,0.0,0.0,0.0,0.0,0.0,0.0,0.0,0.0,0.0,0.0,0.0,0.0,0.0,0.0,0.0,0.0,0.0,0.0,0.0,0.0,0.0,0.0,0.0,0.0,0.0,0.0,0.0,0.0,0.0,0.0,0.0,0.0,0.0,0.0,0.0,0.0,0.0,0.0,0.0,0.0,0.0,0.0,0.0,0.0,0.0,0.0,0.0,-1.1621,0.0,0.0,0.0,0.0,0.0,0.0,0.0,0.0,0.0,0.0,0.0,0.0,0.0,0.0,0.0,0.0,0.0,0.0,0.0,0.0,0.0,-0.7461,-0.7251,-0.705,-0.6905,-0.6829,-0.6684,-0.6637,-0.6737,-0.6649,0.0,0.0,0.0,-0.6599,-0.6599,-0.6699,-0.7003,-0.7566,-0.7941,-0.8614,-0.9554,-1.0314,-1.02,-0.9358,-0.9028,0.0,0.0,0.0,0.0,0.0,0.0,0.0,0.0,0.0,0.0,0.0,0.0,0.0,0.0,0.0,0.0,0.0,0.0,0.0,0.0,0.0,0.0,0.0,0.0,0.0,0.0,0.0,0.0,0.0,0.0,0.0,0.0,0.0,0.0,0.0,0.0,0.0,0.0,0.0,0.0,0.0,0.0,0.0,0.0,0.0,0.0,0.0,0.0,0.0,0.0,0.0,0.0,0.0,0.0,0.0,0.0,0.0,0.0,0.0,0.0,0.0,0.0,0.0,0.0,-1.7711,-1.7503,-1.5884,-1.5411,-1.5847,-1.4952,-1.4297,-1.3783,0.0,0.0,0.0,0.0,0.0,0.0,0.0,0.0,0.0,0.0,0.0,0.0,0.0,0.0,0.0,0.0,0.0,0.0,0.0,0.0,-0.7183,-0.6977,-0.6774,-0.6831,-0.7275,-0.6874,-0.679,-0.7256,-0.6853,0.0,0.0,-0.6599,-0.6599,-0.6599,-0.7053,-0.7578,-0.8175,-1.0106,-1.1111,-1.1289,-1.2367,-1.2869,-1.2769,-1.0897,-1.0325,-1.0651,0.0,0.0,0.0,0.0,0.0,0.0,0.0,0.0,0.0,0.0,0.0,0.0,0.0,0.0,0.0,0.0,0.0,0.0,0.0,0.0,0.0,0.0,0.0,0.0,0.0,0.0,0.0,0.0,0.0,0.0,0.0,0.0,0.0,0.0,0.0,0.0,0.0,0.0,0.0,0.0,0.0,-0.8097,-0.8563,0.0,0.0,0.0,0.0,0.0,0.0,0.0,0.0,0.0,0.0,0.0,0.0,0.0,0.0,-1.1122,-1.5476,-1.849,-2.0118,-1.9856,-1.9289,-1.849,-1.8239,-1.8192,-1.8239,-1.8097,0.0,-1.5418,-1.4559,0.0,0.0,0.0,0.0,0.0,0.0,0.0,0.0,0.0,0.0,0.0,0.0,0.0,0.0,0.0,0.0,0.0,0.0,0.0,0.0,0.0,-0.766,-0.7975,-0.8322,-0.8424,-0.83,-0.7926,-0.7686,-0.7272,-0.6624,-0.6599,-0.6749,-0.7041,-0.7613,-0.8651,-1.0144,-1.2071,-1.3002,-1.3015,-1.3862,-1.4332,-1.4433,-1.35,-1.2558,-1.1578,-1.0584,0.0,0.0,0.0,0.0,0.0,0.0,0.0,0.0,0.0,0.0,0.0,0.0,0.0,0.0,0.0,0.0,0.0,0.0,0.0,0.0,0.0,0.0,0.0,0.0,0.0,0.0,0.0,0.0,0.0,0.0,0.0,0.0,0.0,0.0,0.0,0.0,0.0,0.0,0.0,-0.8235,-0.9195,-0.9943,-0.9813,-0.9589,0.0,0.0,0.0,0.0,0.0,0.0,0.0,0.0,0.0,-1.4941,-1.4836,-1.5279,-1.6334,-1.8013,-1.9813,-2.171,-2.121,-2.0729,-2.0303,-1.9757,-1.9475,-1.954,-2.0642,-2.0642,-1.9659,-1.7098,-1.514,-1.3663,0.0,0.0,0.0,0.0,0.0,-1.3729,0.0,0.0,0.0,0.0,0.0,0.0,0.0,0.0,0.0,0.0,0.0,0.0,-0.8042,-0.8608,-0.9129,-0.9478,-0.9629,-0.9479,0.0,0.0,-0.7761,-0.7062,-0.6887,-0.6991,-0.7393,-0.8551,-1.017,-1.2231,-1.3758,-1.4513,-1.4525,-1.5106,-1.5469,-1.5633,-1.5691,-1.4754,-1.3066,-1.2105,-1.1057,0.0,0.0,0.0,0.0,0.0,0.0,0.0,0.0,0.0,0.0,0.0,0.0,0.0,0.0,0.0,0.0,0.0,0.0,0.0,0.0,0.0,0.0,0.0,0.0,0.0,0.0,0.0,0.0,0.0,0.0,0.0,0.0,0.0,0.0,0.0,0.0,0.0,0.0,-0.945,-1.0518,-1.1324,-1.1477,-1.1395,0.0,0.0,0.0,0.0,0.0,0.0,-1.54,-1.5723,-1.6526,-1.7966,-1.801,-1.8938,-2.0827,-2.0838,-2.1557,-2.299,-2.2291,-2.1953,-2.192,-2.1165,-2.0838,-2.0925,-2.2379,-2.3001,-2.2739,-1.9386,-1.7158,-1.5858,-1.5858,-1.4985,-1.3706,-1.3706,-1.5858,-1.8772,0.0,0.0,0.0,0.0,0.0,0.0,0.0,0.0,0.0,0.0,0.0,-0.8459,-0.8722,-0.9181,-0.9771,-1.0546,-0.9705,-0.9554,0.0,0.0,-0.7678,-0.8187,-0.7666,-0.7369,-0.7406,-1.0056,-1.2272,-1.3977,-1.5085,-1.5618,-1.5618,-1.617,-1.6562,-1.6807,-1.682,-1.6584,-1.6023,-1.3778,-1.3098,-1.3294,0.0,0.0,0.0,0.0,0.0,0.0,0.0,0.0,0.0,0.0,0.0,0.0,0.0,0.0,0.0,0.0,0.0,0.0,0.0,0.0,0.0,0.0,0.0,0.0,0.0,0.0,0.0,0.0,0.0,0.0,0.0,0.0,0.0,0.0,0.0,0.0,0.0,0.0,0.0,-1.275,-1.3181,0.0,0.0,0.0,0.0,-1.4728,-1.5128,-1.6228,-1.8362,-1.813,-1.857,-1.99,-1.9965,-2.0892,-2.2837,-2.2859,-2.2903,-2.3001,-2.2957,-2.2925,-2.2925,-2.2881,-2.2859,-2.2859,-2.2957,-2.3001,-2.2848,-2.0794,-1.9911,-1.9824,-1.9824,-1.9769,-1.9682,-1.9682,-2.0947,-2.2706,0.0,0.0,0.0,-0.8444,-0.8232,-0.8034,-0.7942,-0.7892,-0.7768,-0.7507,-0.8319,-0.8942,0.0,-1.0199,-1.1199,-1.1738,-1.1761,-1.1613,-1.1299,0.0,-0.9103,-0.9315,-0.8463,-0.8814,-1.0582,-1.2319,-1.3846,-1.5135,-1.5856,-1.6199,-1.6233,-1.6498,-1.6727,-1.6897,-1.6939,-1.6962,-1.6807,-1.5238,-1.4262,-1.3638,-1.184,-1.0585,0.0,0.0,0.0,0.0,0.0,0.0,0.0,0.0,0.0,0.0,0.0,0.0,0.0,0.0,0.0,0.0,0.0,0.0,0.0,0.0,0.0,0.0,0.0,0.0,0.0,0.0,0.0,0.0,0.0,0.0,0.0,0.0,0.0,0.0,0.0,0.0,0.0,-1.4583,-1.4799,0.0,0.0,-1.5491,-1.6046,-1.7094,-1.7688,-1.8628,-2.003,-1.9987,-2.04,-2.1481,-2.1208,-2.1701,-2.299,-2.3001,-2.3001,-2.3001,-2.3001,-2.3001,-2.3001,-2.3001,-2.3678,-2.4869,-2.4869,-2.4519,-2.3908,-2.322,-2.2564,-2.1985,-2.1985,-2.1985,-2.1985,-2.1985,-2.2411,-2.3001,-0.8919,-0.869,0.0,-0.8504,-0.8211,-0.7963,-0.7963,-0.7914,-0.7849,-0.7777,-0.8762,-0.9592,-0.9911,-1.1257,-1.2286,-1.2642,-1.2839,-1.2714,-1.2162,-1.0896,-1.027,-1.0458,-0.9792,-1.0621,-1.3182,-1.3979,-1.4903,-1.5969,-1.6333,-1.65,-1.65,-1.6654,-1.6761,-1.6897,-1.696,-1.7086,-1.7146,-1.6388,-1.5532,-1.4568,-1.337,-1.2337,-1.1425,0.0,0.0,0.0,0.0,0.0,0.0,0.0,0.0,0.0,0.0,0.0,0.0,0.0,0.0,0.0,0.0,0.0,0.0,0.0,0.0,0.0,0.0,0.0,0.0,0.0,0.0,0.0,0.0,0.0,0.0,0.0,0.0,0.0,0.0,0.0,-1.4718,-1.5822,-1.629,-1.6666,-1.7034,-1.7583,-1.8281,-1.9177,-1.9802,-2.05,-2.1343,-2.1529,-2.1953,-2.2735,-2.2531,-2.275,-2.3493,-2.382,-2.3984,-2.3984,-2.3984,-2.3984,-2.3984,-2.3984,-2.4683,-2.5895,-2.5895,-2.5426,-2.4639,-2.4639,-2.4337,-2.3891,-2.3815,-2.3471,-2.3001,-2.3001,-2.3001,-2.3001,-0.8908,-0.8683,-0.854,-0.8669,-0.8247,-0.7947,-0.8073,-0.7934,-0.8012,-0.8621,-0.9482,-1.0379,-1.1282,-1.2249,-1.2923,-1.3182,-1.271,-1.2651,-1.3173,-1.1645,-1.0996,-1.1603,-1.1678,-1.2709,-1.4871,-1.4909,-1.5449,-1.65,-1.65,-1.65,-1.65,-1.6654,-1.6782,-1.6897,-1.6981,-1.7073,-1.7199,-1.7199,-1.6898,-1.631,-1.5121,-1.4324,-1.3726,0.0,0.0,0.0,0.0,0.0,0.0,0.0,0.0,0.0,0.0,0.0,0.0,0.0,0.0,0.0,0.0,0.0,0.0,0.0,0.0,0.0,0.0,0.0,0.0,0.0,0.0,0.0,0.0,0.0,0.0,0.0,0.0,0.0,-1.2987,-1.4593,-1.5929,-1.6433,-1.7657,-1.8416,-1.8287,-1.9541,-2.0507,-2.0926,-2.1385,-2.1865,-2.2321,-2.2805,-2.3263,-2.3694,-2.3908,-2.4198,-2.4497,-2.5437,-2.5895,-2.5895,-2.5895,-2.5895,-2.5895,-2.5895,-2.5895,-2.5895,-2.5895,-2.5546,-2.4967,-2.4967,-2.5278,-2.5727,-2.5444,-2.4381,-2.3082,-2.3034,-2.3023,-2.3023,-0.8788,-0.861,-0.8473,-0.8419,-0.8126,-0.7947,-0.8073,-0.7934,-0.7989,-0.8486,-0.9823,-1.0842,-1.115,-1.2544,-1.338,-1.322,-1.306,-1.3035,-1.3185,-1.2037,-1.16,-1.2165,-1.335,-1.4456,-1.5462,-1.5467,-1.5819,-1.65,-1.65,-1.6556,-1.6654,-1.6782,-1.6876,-1.6981,-1.7094,-1.7178,-1.7199,-1.7199,-1.7107,-1.6911,-1.6212,-1.5539,-1.4917,0.0,0.0,0.0,0.0,0.0,0.0,0.0,0.0,0.0,0.0,0.0,0.0,0.0,0.0,0.0,0.0,0.0,0.0,0.0,0.0,0.0,0.0,0.0,0.0,0.0,0.0,0.0,0.0,0.0,0.0,0.0,0.0,-1.4925,-1.4925,-1.6218,-1.746,-1.8268,-1.8984,-1.9526,-1.9757,-2.0706,-2.1492,-2.1953,-2.2674,-2.3362,-2.3864,-2.4006,-2.4148,-2.4279,-2.453,-2.4716,-2.4774,-2.5535,-2.5895,-2.5895,-2.5895,-2.5895,-2.5895,-2.5895,-2.5895,-2.5895,-2.5895,-2.616,-2.6585,-2.6585,-2.6771,-2.6988,-2.5992,-2.5321,-2.4842,-2.4045,-2.3738,-2.3673,-0.88,-0.8663,-0.8536,-0.8517,-0.8223,-0.8023,-0.8169,-0.797,-0.8085,-0.8889,-0.9918,-1.0828,-1.1521,-1.264,-1.32,-1.2881,-1.3073,-1.2998,-1.2563,-1.2363,-1.2714,-1.3747,-1.4733,-1.55,-1.6019,-1.6045,-1.6195,-1.65,-1.65,-1.6577,-1.6697,-1.6846,-1.7068,-1.7372,-1.7514,-1.7695,-1.7917,-1.7917,-1.7917,-1.7865,-1.7329,-1.6741,-1.6114,-1.5231,-1.4507,-1.387,-1.2954,-1.2677,-1.2661,-1.2103,0.0,0.0,0.0,0.0,0.0,0.0,0.0,0.0,0.0,0.0,0.0,0.0,0.0,0.0,0.0,0.0,0.0,0.0,0.0,0.0,0.0,0.0,0.0,0.0,-1.5929,-1.6983,-1.7366,-1.7916,-1.863,-1.953,-2.0142,-2.0609,-2.0895,-2.1818,-2.2553,-2.2907,-2.3612,-2.4181,-2.4476,-2.4672,-2.477,-2.477,-2.5142,-2.5308,-2.5308,-2.5721,-2.5895,-2.5895,-2.5895,-2.5895,-2.5895,-2.5895,-2.5895,0.0,-2.5895,-2.6188,-2.6663,-2.7062,-2.7499,0.0,0.0,0.0,0.0,0.0,-2.422,-2.4165,-0.8869,-0.8718,-0.8634,-0.8751,-0.8396,-0.8142,-0.8273,-0.8011,-0.8263,-0.9539,-0.9915,-1.0613,-1.206,-1.2534,-1.2665,-1.242,-1.2839,-1.2764,-1.1942,-1.2826,-1.408,-1.563,-1.5756,-1.6019,-1.6488,-1.65,-1.65,-1.65,-1.65,-1.6577,-1.6697,-1.691,-1.7321,-1.7908,-1.8109,-1.8453,-1.8911,-1.8911,-1.8911,-1.8858,-1.8388,-1.7826,-1.7238,-1.6689,-1.6153,-1.5604,-1.5021,-1.455,-1.4092,-1.3503,0.0,0.0,0.0,0.0,0.0,0.0,0.0,0.0,0.0,0.0,0.0,0.0,0.0,0.0,0.0,0.0,0.0,0.0,0.0,0.0,0.0,0.0,0.0,0.0,-1.7719,-1.8891,-1.9824,-1.9596,-1.9637,-2.041,-2.1001,-2.1523,-2.1813,-2.2767,-2.3507,-2.3808,-2.4312,-2.4585,-2.465,0.0,0.0,0.0,0.0,-2.5895,-2.5895,-2.5895,-2.5895,-2.5895,-2.5895,-2.5895,-2.5895,-2.5895,-2.5937,-2.6063,-2.6063,-2.6135,-2.6385,-2.7174,-2.7879,-2.8497,-2.8026,-2.7466,-2.6784,-2.5284,-2.4711,0.0,-0.8694,-0.8634,-0.8587,-0.8563,-0.8309,-0.8142,-0.8273,-0.8011,-0.8263,-0.9539,-1.0161,-1.0781,-1.1574,-1.2195,-1.2511,-1.2398,-1.2488,-1.2856,0.0,0.0,-1.4909,-1.5668,-1.612,-1.6387,-1.65,-1.65,-1.65,-1.65,-1.65,-1.6577,-1.6709,-1.7284,-1.7672,-1.7921,-1.85,-1.8806,-1.8911,-1.8911,-1.8911,-1.8898,-1.8793,-1.8427,-1.7852,-1.7264,-1.6977,-1.6794,-1.6245,-1.6258,-1.6454,-1.5924,-1.5317,-1.4789,-1.4631,0.0,0.0,0.0,0.0,0.0,0.0,0.0,0.0,0.0,0.0,0.0,0.0,0.0,0.0,0.0,0.0,0.0,0.0,0.0,0.0,-1.7812,-1.887,-1.9844,-2.0721,-2.0917,-2.0964,-2.0959,-2.1235,-2.1702,-2.2496,-2.3075,-2.3738,-2.4594,-2.4908,-2.5218,-2.5611,-2.571,0.0,-2.5764,-2.5852,-2.5895,-2.5895,-2.5895,-2.5895,-2.5895,0.0,0.0,-2.5895,-2.5895,-2.6302,-2.694,-2.694,-2.773,-2.8991,-2.9147,-2.9303,-2.9447,-2.9347,-2.9207,-2.8837,-2.6772,-2.6018,-2.5893,-0.8736,-0.8706,-0.8694,-0.8652,-0.8399,-0.8229,-0.8286,-0.8011,-0.813,-0.9078,-0.9366,-0.982,-1.0666,-1.0901,-1.0965,-1.0901,-1.1041,0.0,0.0,-1.4337,-1.4972,-1.6057,-1.635,-1.65,-1.65,-1.65,-1.65,-1.65,-1.681,-1.7036,-1.7202,-1.7843,-1.839,-1.8881,-1.9201,-1.9512,-1.981,-1.981,-1.981,-1.9771,-1.9473,-1.9015,-1.844,-1.7865,-1.746,-1.716,-1.6898,-1.6963,-1.716,-1.6885,-1.6415,-1.5944,-1.5905,-1.4693,-1.3115,0.0,0.0,0.0,0.0,0.0,0.0,0.0,0.0,0.0,0.0,0.0,0.0,0.0,0.0,-1.5214,0.0,0.0,-1.835,-1.9251,-1.9986,-2.0679,-2.1362,-2.1605,-2.1717,-2.1605,-2.2077,-2.2594,-2.3062,-2.3817,-2.4491,-2.5009,-2.5352,-2.5644,-2.5884,-2.5895,-2.5895,-2.5895,-2.5895,-2.5895,-2.5895,-2.5895,-2.5895,-2.5906,-2.6343,-2.6302,-2.5937,-2.6775,-2.7174,-2.7226,-2.7609,-2.8279,-2.9096,-2.9498,-2.9947,-3.0343,-3.0343,-2.9819,-2.8915,-2.781,-2.7399,-2.7245,-0.8829,-0.8806,-0.8789,-0.8781,-0.8542,-0.8325,-0.8299,-0.8046,-0.8065,-0.863,-0.857,-0.8807,-0.9695,-0.9581,-0.9463,0.0,0.0,0.0,0.0,-1.4204,-1.496,-1.648,-1.6543,-1.6543,-1.6586,-1.6586,-1.6586,-1.6586,-1.7166,-1.7533,-1.7712,-1.8449,-1.9132,-1.9775,-1.9917,-2.0242,-2.0699,-2.0699,-2.0699,-2.0673,-2.0177,-1.9538,-1.8858,-1.8427,-1.7813,-1.7199,-1.7199,-1.7133,-1.7055,-1.716,-1.6833,-1.6415,-1.6519,-1.5833,-1.4742,-1.363,-1.3253,0.0,0.0,0.0,0.0,0.0,0.0,0.0,0.0,0.0,-1.4296,-1.529,-1.6395,-1.7374,-1.8051,-1.8956,-1.9809,-2.0441,-2.1057,-2.163,-2.1967,-2.2199,-2.2351,-2.2351,-2.2958,-2.3457,-2.3554,-2.4541,-2.5248,-2.5347,-2.5677,-2.5895,-2.5895,-2.5895,-2.5895,-2.5895,-2.5895,-2.5979,-2.6146,-2.5979,-2.5979,-2.6146,-2.6857,-2.6816,-2.6218,-2.7718,-2.8159,-2.773,-2.8557,-2.89,-2.8939,-2.9665,-3.0381,-3.0986,-3.0986,-3.0139,-2.8861,-2.8703,-2.8664,-2.8545,-0.8886,-0.8846,-0.8777,-0.8723,-0.8575,-0.8434,-0.8312,-0.8169,-0.8219,-0.8646,-0.8735,-0.8813,-0.9008,-0.9146,-0.9472,-1.0068,0.0,0.0,-1.399,-1.4594,-1.5423,-1.6625,-1.6675,-1.674,-1.6854,-1.6854,-1.6854,-1.6854,-1.7408,-1.7677,-1.7725,-1.8939,-1.954,-1.9642,-2.0298,-2.0646,-2.0699,-2.0699,-2.0699,-2.0699,-2.0633,-1.9928,-1.8898,-1.8832,-1.814,-1.7199,-1.7199,-1.6885,-1.6558,-1.7042,-1.6833,-1.648,-1.6963,-1.6689,-1.6062,-1.5395,0.0,-1.4293,-1.3763,-1.3846,-1.4543,-1.6532,-1.628,-1.6295,0.0,0.0,-1.8191,-1.8953,-1.9575,-1.9912,-1.9849,-2.0699,-2.1317,-2.1057,-2.2069,-2.2822,-2.272,-2.303,-2.3262,-2.3262,-2.3354,-2.3587,-2.4047,-2.4766,-2.5349,-2.5786,-2.5874,-2.5895,-2.5895,-2.5895,-2.5895,-2.5895,-2.5895,-2.626,-2.7062,-2.6302,-2.6302,-2.7062,-2.7144,-2.7144,-2.7103,-2.7999,-2.8782,-2.9471,-3.0343,-3.0697,-3.071,-3.0823,-3.0911,-3.0986,-3.0986,-3.0861,-3.0621,-2.9819,-2.9537,-2.942,-0.8857,-0.8817,-0.877,-0.8711,-0.8587,-0.8453,-0.8312,-0.8189,-0.8118,-0.8168,-0.8128,-0.8128,-0.8197,-0.8174,-0.8414,-0.9036,-1.0187,-1.1655,-1.3463,-1.4549,-1.5578,-1.6646,-1.6761,-1.6846,-1.6897,-1.6897,-1.6897,-1.6897,-1.7785,-1.8257,-1.8361,-1.9555,-2.016,-2.0247,-2.0569,-2.0699,-2.0699,-2.0699,-2.0699,-2.0673,-2.0321,-1.9656,-1.8872,-1.8558,-1.7917,-1.7199,-1.7199,-1.6859,0.0,0.0,-1.6833,-1.6493,-1.7029,-1.6833,-1.6336,-1.6107,-1.6062,0.0,-1.6703,-1.6931,0.0,0.0,-1.9231,-1.9626,-2.1247,-2.1051,-2.0595,-2.0804,-2.1384,-2.1693,-2.114,-2.1621,-2.2126,0.0,-2.2734,-2.3172,-2.3398,-2.3403,-2.3386,-2.3386,-2.3502,-2.3813,-2.4302,-2.4891,-2.5371,-2.5863,-2.5895,-2.5895,-2.5895,-2.5895,-2.5895,-2.5895,-2.6385,-2.6816,-2.7185,-2.7284,-2.7528,-2.7919,-2.8398,-2.8398,-2.7959,-2.9303,-3.0101,-3.047,-3.0823,-3.0986,-3.0986,-3.0986,-3.0986,-3.0986,-3.0986,-3.0986,-3.0949,-3.0583,-3.047,-3.0343,-0.8812,-0.8794,-0.8763,-0.8658,-0.8587,-0.8501,-0.8319,-0.8223,-0.8066,-0.7827,-0.7731,-0.7694,-0.7724,-0.7446,-0.7577,-0.8378,-0.9411,-1.088,-1.2872,-1.4266,-1.5479,-1.6523,-1.6799,-1.6939,-1.6981,-1.6981,-1.6981,-1.6981,-1.7965,-1.8523,-1.8627,-1.9601,-2.0105,-2.0203,-2.0203,-2.0203,-2.0203,-2.0203,-2.0203,-2.0164,-1.9721,-1.9198,-1.8636,-1.8244,-1.763,-1.6977,-1.6977,-1.6611,0.0,0.0,-1.6219,-1.5957,-1.6349,-1.6323,-1.6205,-1.6532,-1.712,-1.7831,-1.8624,0.0,0.0,-2.0849,-2.1798,-2.2582,-2.3025,-2.3004,-2.2863,-2.2709,-2.3029,-2.3057,-2.2258,-2.2371,0.0,-2.2877,-2.3225,-2.3634,-2.4095,-2.3881,-2.3708,-2.3708,-2.3585,-2.3787,-2.4432,-2.4902,-2.5371,-2.5863,-2.5895,-2.5895,-2.5895,-2.5895,-2.6021,-2.626,-2.6857,-2.7418,-2.7891,-2.8239,-2.8505,-2.8782,-2.9381,-2.9381,-2.8821,-3.0305,-3.0986,-3.0986,-3.0986,-3.0986,-3.0986,-3.0986,-3.0986,-3.0986,-3.0986,-3.0986,-3.0986,-3.0986,-3.0986,-3.0911,-0.8812,-0.8794,-0.8745,-0.8544,-0.8616,-0.8604,-0.8348,-0.8293,-0.8182,-0.7841,-0.7856,-0.787,-0.7797,-0.7266,-0.7424,-0.8671,-0.9124,-1.0238,-1.2374,-1.3766,-1.5038,-1.6177,-1.6726,-1.7065,-1.7199,-1.7199,-1.7199,-1.7199,-1.7826,-1.8127,-1.814,-1.8702,-1.8963,-1.8963,-1.8963,-1.8963,-1.8963,-1.8963,-1.8963,-1.8963,-1.8937,-1.861,-1.8127,-1.8114,-1.7395,-1.6415,-1.6415,0.0,0.0,-1.4859,-1.4663,-1.4668,-1.4663,-1.5055,0.0,-1.6846,-1.797,0.0,0.0,0.0,-2.1681,-2.283,-2.4021,-2.4987,-2.5307,-2.5407,-2.5335,-2.5224,-2.4727,-2.4104,-2.3209,-2.3173,-2.3093,-2.2499,-2.3571,-2.4549,-2.4843,-2.4639,-2.4465,-2.4465,-2.3613,-2.3405,0.0,-2.4902,-2.5371,-2.5863,-2.5895,-2.5895,-2.5895,-2.5895,-2.6302,-2.7144,-2.7185,-2.7971,-2.9626,-2.8821,-2.8821,-2.9665,-2.9704,-2.9704,-2.9704,-3.0583,-3.0986,-3.0986,-3.0986,-3.0986,-3.0986,-3.0986,-3.0986,-3.0986,-3.0986,-3.0986,-3.0986,-3.0986,-3.0986,-3.0986,-0.8812,-0.8794,-0.8775,-0.8711,-0.8628,-0.8538,-0.8447,-0.8351,-0.8236,-0.8018,-0.7899,0.0,0.0,0.0,0.0,0.0,-0.9295,-1.0461,-1.1758,-1.3332,-1.4734,-1.5817,-1.6349,-1.6792,-1.7186,-1.7199,-1.7199,-1.7199,-1.78,-1.81,-1.8114,-1.8649,-1.8911,-1.8911,-1.8911,-1.8911,-1.8911,-1.8911,-1.9071,-1.9315,-1.8631,-1.842,-1.842,-1.775,-1.6794,-1.5748,0.0,0.0,0.0,-1.4563,-1.4367,-1.421,-1.4951,0.0,0.0,-1.7342,0.0,-1.9237,0.0,0.0,-2.3014,-2.4527,-2.5524,-2.6263,-2.671,-2.6824,-2.656,-2.5617,-2.4978,-2.4377,-2.3595,-2.2785,-2.2627,-2.3743,-2.3935,-2.4338,-2.542,-2.5199,-2.4836,-2.453,-2.4192,0.0,0.0,0.0,0.0,-2.5841,-2.5895,-2.5895,-2.5895,-2.5895,-2.6302,-2.7185,-2.773,-2.8557,-2.9704,-2.9986,-3.0266,-3.0545,-3.0545,-3.0545,-3.0583,-3.0861,-3.0986,-3.0986,-3.0986,-3.0986,-3.0986,-3.0986,-3.0986,-3.0986,-3.0986,-3.0986,-3.0986,-3.0986,-3.0986,-3.0986,-0.8846,-0.8822,-0.8757,-0.8645,-0.8551,0.0,0.0,0.0,0.0,0.0,0.0,0.0,0.0,0.0,0.0,0.0,0.0,-0.9991,-1.1177,-1.2423,-1.3728,-1.5061,-1.5362,-1.5722,-1.6258,-1.6075,-1.6179,-1.6584,-1.6977,-1.7382,-1.7787,-1.8127,-1.8296,-1.8296,-1.8438,-1.8526,-1.8591,-1.873,-1.8967,-1.916,-1.8156,-1.7873,-1.7977,-1.6989,-1.5879,0.0,0.0,0.0,-1.3213,-1.3549,-1.3722,-1.3935,0.0,0.0,0.0,0.0,-1.8924,-2.0244,0.0,-2.3237,-2.4217,-2.5746,-2.6556,-2.7027,-2.7183,-2.7223,-2.6856,-2.5569,-2.469,-2.3941,-2.3228,-2.2226,-2.2142,-2.4001,-2.4249,-2.4758,-2.63,-2.6261,-2.5865,-2.5255,-2.5037,0.0,0.0,0.0,0.0,-2.5841,-2.5895,-2.5895,-2.5895,-2.6177,-2.6734,-2.7609,-2.8426,-2.9264,-3.0139,-3.071,-3.0986,-3.0986,-3.0986,-3.0986,-3.0986,-3.0986,-3.0986,-3.0986,-3.0986,-3.0986,-3.0986,-3.0986,-3.0986,-3.0986,-3.0986,-3.0986,-3.0986,-3.0986,-3.0986,-3.0986,-0.8903,-0.884,-0.8693,0.0,0.0,0.0,0.0,0.0,0.0,0.0,0.0,0.0,0.0,0.0,0.0,0.0,0.0,0.0,-1.0593,-1.1141,0.0,-1.3931,-1.3861,-1.4031,-1.4585,-1.4066,-1.4341,-1.5446,-1.5472,-1.6016,-1.7068,-1.7115,-1.7149,-1.7169,-1.7545,-1.7793,-1.7952,-1.8335,-1.8513,-1.8451,-1.7463,-1.7054,-1.6894,-1.5902,0.0,0.0,0.0,0.0,0.0,0.0,0.0,0.0,0.0,0.0,0.0,0.0,0.0,-2.1851,-2.3027,-2.4178,-2.5358,-2.647,-2.7105,-2.734,-2.6837,-2.6654,-2.6287,-2.5149,-2.3942,-2.2922,0.0,0.0,-2.1691,-2.3336,-2.4463,-2.5696,-2.7378,-2.7695,-2.7386,0.0,0.0,0.0,0.0,0.0,0.0,-2.5946,0.0,-2.5906,-2.5979,-2.6745,-2.7568,-2.8426,-2.9264,-3.0101,-3.0986,-3.0986,-3.0986,-3.0986,-3.0986,-3.0986,-3.0986,-3.0986,-3.0986,-3.0986,-3.0986,-3.0986,-3.0986,-3.0986,-3.0986,-3.0986,-3.0986,-3.0986,-3.0986,-3.0986,-3.0986,-3.0986,0.0,0.0,0.0,0.0,0.0,0.0,0.0,0.0,0.0,0.0,0.0,0.0,0.0,0.0,0.0,0.0,0.0,0.0,-0.9356,-1.0602,0.0,0.0,0.0,-1.3769,-1.4512,-1.4057,-1.4019,0.0,0.0,-1.5216,-1.5283,-1.603,-1.6367,-1.6391,-1.6527,-1.678,-1.7038,-1.7146,-1.7362,-1.7592,0.0,-1.6937,-1.7038,0.0,0.0,0.0,0.0,0.0,0.0,0.0,0.0,0.0,0.0,0.0,-1.9041,0.0,0.0,-2.3104,-2.4696,-2.5694,-2.6444,-2.7131,-2.7105,-2.6857,-2.6745,-2.6052,-2.5097,-2.3903,-2.2753,-2.1759,-2.1199,0.0,0.0,-2.3343,-2.4553,0.0,-2.7378,-2.7981,0.0,-2.6546,0.0,-2.7293,-2.6189,-2.6478,0.0,0.0,-2.626,-2.6177,-2.6816,-2.7062,-2.7851,-2.9303,-2.9575,-3.0101,-3.0986,-3.0986,-3.0986,-3.0986,-3.0986,-3.0986,-3.0986,-3.0986,-3.0986,-3.0986,-3.0986,-3.0986,-3.0986,-3.0986,-3.0986,-3.0986,-3.0986,-3.0986,-3.0986,-3.0986,-3.0986,-3.0986,0.0,0.0,0.0,0.0,0.0,0.0,0.0,0.0,0.0,0.0,0.0,0.0,0.0,0.0,0.0,0.0,0.0,0.0,0.0,0.0,0.0,0.0,0.0,-1.2609,-1.3212,-1.3137,-1.3198,0.0,0.0,0.0,0.0,-1.5135,-1.5387,-1.5322,-1.5661,-1.5926,-1.6186,-1.6362,0.0,0.0,0.0,0.0,0.0,0.0,0.0,0.0,0.0,0.0,0.0,0.0,0.0,-1.7587,-1.8547,-1.9577,-2.0727,-2.231,0.0,-2.4605,-2.5863,-2.6608,-2.7131,-2.7411,-2.7105,-2.651,-2.572,-2.4844,-2.3655,-2.1721,-2.0806,0.0,-1.9313,0.0,0.0,0.0,0.0,0.0,-2.8101,-2.9049,-2.9114,0.0,-2.8521,0.0,-2.7375,-2.7232,-2.7336,0.0,-2.694,-2.6663,-2.7185,-2.7891,-2.8715,-2.9665,-3.0063,-3.0508,-3.0986,-3.0986,-3.0986,-3.0986,-3.0986,-3.0986,-3.0986,-3.0986,-3.0986,-3.0986,0.0,-3.0986,-3.0986,-3.0986,-3.0986,-3.0986,-3.0986,-3.0986,-3.0986,-3.0986,-3.0986,-3.0986,0.0,0.0,0.0,0.0,0.0,0.0,0.0,0.0,0.0,0.0,0.0,0.0,0.0,0.0,0.0,0.0,0.0,0.0,0.0,0.0,0.0,0.0,-1.1054,-1.1206,-1.1618,0.0,0.0,0.0,0.0,0.0,0.0,0.0,0.0,0.0,0.0,0.0,0.0,0.0,0.0,0.0,0.0,0.0,0.0,0.0,0.0,0.0,0.0,0.0,0.0,0.0,-1.835,-1.9076,-1.989,-2.1224,-2.265,-2.3354,-2.4605,-2.5968,-2.6608,-2.7157,-2.7477,-2.7398,-2.6922,-2.6052,-2.4374,-2.3326,-2.2008,-1.9342,0.0,-1.827,-1.7277,-1.8453,-2.0191,-2.2087,0.0,-2.7151,-2.9048,-3.0202,-3.0581,-2.9768,-2.9781,-2.9537,-2.8664,-2.7919,-2.781,-2.8505,-2.7931,-2.7539,-2.7539,-2.8912,-2.9742,-2.9858,-3.0621,-3.0986,-3.0986,-3.0986,-3.0986,-3.0986,-3.0986,-3.0986,-3.0986,-3.0986,-3.0986,-3.0986,0.0,0.0,-3.0986,-3.0986,-3.0986,-3.0986,-3.0986,-3.0986,-3.0986,-3.0986,-3.0986,-3.0986,0.0,0.0,0.0,0.0,0.0,0.0,0.0,0.0,0.0,0.0,0.0,0.0,0.0,0.0,0.0,0.0,0.0,0.0,0.0,0.0,0.0,0.0,-1.0438,-1.0973,0.0,0.0,0.0,0.0,0.0,0.0,0.0,0.0,0.0,0.0,0.0,0.0,0.0,0.0,0.0,0.0,0.0,0.0,0.0,0.0,0.0,0.0,0.0,0.0,0.0,0.0,-1.9357,-2.0324,-2.1549,-2.2465,-2.3367,-2.4892,-2.5558,-2.6015,-2.7059,-2.7425,-2.7385,-2.6935,-2.6065,-2.4966,-2.3668,-2.1825,0.0,0.0,0.0,-1.6767,-1.6571,-1.7552,0.0,-2.1956,0.0,0.0,0.0,0.0,-3.0104,0.0,0.0,0.0,0.0,0.0,0.0,0.0,0.0,0.0,-2.9277,-2.9549,-3.0024,-3.0748,-3.0898,-3.0986,-3.0986,-3.0986,-3.0986,-3.0986,-3.0986,-3.0986,-3.0986,-3.0986,-3.0986,-3.0986,0.0,0.0,-3.0986,-3.0986,-3.0986,-3.0986,-3.0986,-3.0986,-3.0986,-3.0986,-3.0986,-3.0986,0.0,0.0,0.0,0.0,0.0,0.0,0.0,0.0,0.0,0.0,0.0,0.0,0.0,0.0,0.0,0.0,0.0,0.0,0.0,0.0,0.0,0.0,0.0,0.0,0.0,0.0,0.0,0.0,0.0,0.0,0.0,0.0,0.0,0.0,0.0,0.0,0.0,0.0,0.0,0.0,0.0,0.0,0.0,0.0,0.0,0.0,0.0,0.0,0.0,0.0,-1.9154,-2.0354,-2.1887,-2.2959,-2.3874,-2.504,-2.5798,-2.6452,-2.7268,-2.749,-2.7359,-2.6817,-2.5842,-2.4534,-2.2727,0.0,0.0,0.0,0.0,-1.5748,-1.5165,0.0,0.0,0.0,0.0,0.0,0.0,0.0,0.0,0.0,0.0,0.0,0.0,0.0,0.0,0.0,0.0,0.0,-2.9704,-3.0139,-3.0583,-3.0986,-3.0986,-3.0986,-3.0986,-3.0986,-3.0986,-3.0986,-3.0986,-3.0986,-3.0986,-3.0986,-3.0986,-3.0986,-3.0986,0.0,-3.0986,-3.0986,-3.0986,-3.0986,-3.0986,-3.0986,-3.0986,-3.0986,-3.0986,-3.0986,0.0,0.0,0.0,0.0,0.0,0.0,0.0,0.0,-1.0324,-1.1114,-1.1362,-1.1029,-0.9844,-0.8881,0.0,0.0,0.0,0.0,0.0,0.0,0.0,0.0,0.0,0.0,0.0,0.0,0.0,0.0,0.0,0.0,0.0,0.0,0.0,0.0,0.0,0.0,0.0,0.0,0.0,0.0,0.0,0.0,0.0,0.0,0.0,0.0,0.0,0.0,0.0,0.0,-1.8417,-1.9487,-2.1162,-2.2602,-2.3795,-2.4446,-2.5437,-2.6497,-2.7157,-2.7398,-2.7333,-2.6661,-2.5568,-2.405,-2.1825,-1.9786,0.0,0.0,-1.5322,-1.4886,-1.4118,0.0,0.0,0.0,0.0,0.0,0.0,0.0,0.0,0.0,0.0,0.0,0.0,0.0,0.0,0.0,0.0,0.0,0.0,-3.0621,-3.0986,-3.0986,-3.0986,-3.0986,-3.0986,-3.0986,-3.0986,-3.0986,-3.0986,-3.0986,-3.0986,-3.0986,-3.0986,-3.0986,-3.0986,0.0,0.0,-3.0986,-3.0986,-3.0986,-3.0986,-3.0986,-3.0986,-3.0986,-3.0986,-3.0986,0.0,0.0,0.0,0.0,0.0,0.0,0.0,0.0,-1.1296,-1.2703,-1.2227,-1.1666,-1.1407,-1.0382,0.0,0.0,0.0,0.0,0.0,0.0,0.0,0.0,0.0,0.0,0.0,0.0,0.0,0.0,0.0,0.0,0.0,0.0,0.0,0.0,0.0,0.0,0.0,0.0,0.0,0.0,0.0,0.0,0.0,0.0,0.0,0.0,0.0,0.0,0.0,0.0,0.0,-1.7548,-1.9174,-2.0864,-2.2429,-2.3152,0.0,0.0,-2.6484,-2.7131,-2.7229,-2.6145,-2.4605,-2.291,-2.1171,0.0,0.0,-1.5662,-1.4681,-1.4062,-1.4472,-1.5186,0.0,0.0,0.0,-2.2035,0.0,0.0,0.0,0.0,0.0,0.0,0.0,0.0,0.0,0.0,0.0,0.0,0.0,-3.0949,-3.0986,-3.0986,-3.0986,-3.0986,-3.0986,-3.0986,-3.0986,-3.0986,-3.0986,-3.0986,-3.0986,-3.0986,-3.0986,-3.0986,0.0,0.0,0.0,-3.0986,-3.0986,-3.0986,-3.0986,-3.0986,-3.0986,-3.0986,-3.0986,-3.0986,0.0,0.0,0.0,0.0,0.0,0.0,0.0,0.0,-1.0774,-1.224,-1.2388,-1.2182,-1.1763,-1.1095,0.0,0.0,0.0,0.0,0.0,0.0,0.0,0.0,0.0,0.0,0.0,0.0,0.0,0.0,0.0,0.0,0.0,0.0,0.0,0.0,0.0,0.0,0.0,0.0,0.0,0.0,0.0,0.0,0.0,0.0,0.0,0.0,0.0,0.0,0.0,0.0,0.0,0.0,-1.7303,-1.8529,0.0,0.0,-2.3014,-2.4164,-2.5358,-2.6073,-2.6276,-2.5511,-2.4008,-2.2361,-2.1001,0.0,-1.6219,-1.5617,-1.4585,-1.387,-1.4079,-1.4589,-1.5369,-1.665,-1.7573,-1.9195,0.0,0.0,0.0,0.0,0.0,0.0,0.0,0.0,0.0,0.0,0.0,0.0,0.0,-3.0986,-3.0986,-3.0986,-3.0986,-3.0986,-3.0986,-3.0986,-3.0986,-3.0986,-3.0986,-3.0986,-3.0986,-3.0986,-3.0986,-3.0986,0.0,0.0,0.0,-3.0986,-3.0986,-3.0986,-3.0986,-3.0986,-3.0986,-3.0986,-3.0986,-3.0986,0.0,0.0,0.0,0.0,0.0,0.0,-0.9788,-0.9839,-1.0333,-1.1809,-1.2113,-1.2107,-1.1841,-1.1122,-1.0017,-0.8416,0.0,0.0,0.0,0.0,0.0,0.0,0.0,0.0,0.0,0.0,0.0,0.0,0.0,0.0,0.0,0.0,0.0,0.0,0.0,0.0,0.0,0.0,0.0,0.0,0.0,0.0,0.0,0.0,0.0,0.0,0.0,0.0,0.0,0.0,0.0,0.0,0.0,0.0,0.0,0.0,-2.1629,-2.2975,-2.4168,-2.5001,-2.5432,-2.4857,-2.342,-2.1799,0.0,0.0,-1.5957,-1.5375,-1.4472,-1.3804,-1.3804,-1.4376,-1.5021,-1.5421,-1.6284,-1.7861,-2.0556,0.0,0.0,0.0,0.0,0.0,0.0,0.0,0.0,0.0,0.0,0.0,0.0,-3.0986,-3.0986,-3.0986,-3.0986,-3.0986,-3.0986,-3.0986,-3.0986,-3.0986,-3.0986,-3.0986,-3.0986,-3.0986,-3.0986,0.0,0.0,0.0,0.0,-3.0986,-3.0986,-3.0986,-3.0986,-3.0986,-3.0986,-3.0986,-3.0986,-3.0986,0.0,0.0,0.0,0.0,0.0,0.0,0.0,0.0,-1.034,-1.1817,-1.1424,-1.1212,-1.1745,-1.0388,-0.9358,-0.9194,0.0,0.0,0.0,0.0,0.0,0.0,0.0,0.0,0.0,0.0,0.0,0.0,0.0,0.0,0.0,0.0,0.0,0.0,0.0,0.0,0.0,0.0,0.0,0.0,0.0,0.0,0.0,0.0,0.0,0.0,0.0,0.0,0.0,0.0,0.0,0.0,0.0,-1.4796,-1.5153,0.0,-1.9996,-2.1786,-2.2923,-2.4086,-2.4874,-2.4269,-2.2791,-2.1067,0.0,-1.7146,-1.533,-1.4729,-1.4184,-1.3804,-1.3804,-1.4733,-1.5487,-1.5487,-1.695,-1.8885,-2.1185,0.0,0.0,0.0,0.0,0.0,0.0,0.0,0.0,0.0,0.0,0.0,0.0,0.0,-3.0986,-3.0986,-3.0986,-3.0986,-3.0986,-3.0986,-3.0986,-3.0986,-3.0986,-3.0986,-3.0986,-3.0986,0.0,0.0,0.0,0.0,0.0,-3.0986,-3.0986,-3.0986,-3.0986,-3.0986,-3.0986,-3.0986,-3.0986,-3.0986,0.0,0.0,0.0,0.0,0.0,0.0,0.0,0.0,-0.9469,-1.0439,-1.0379,-1.0498,-1.1179,-1.0269,-0.9555,-0.9419,0.0,0.0,0.0,0.0,0.0,0.0,0.0,0.0,0.0,0.0,-1.2282,-1.3201,-1.3201,0.0,0.0,0.0,0.0,0.0,0.0,0.0,0.0,0.0,0.0,0.0,0.0,0.0,0.0,0.0,0.0,0.0,0.0,0.0,0.0,0.0,0.0,0.0,0.0,0.0,0.0,-1.5339,-1.7322,-1.9342,-2.0074,-2.0845,-2.1302,-2.0701,-1.9865,-1.8924,-1.7957,-1.6571,-1.5317,-1.4716,-1.4184,-1.3804,-1.3804,-1.4092,-1.4851,-1.6402,-1.712,0.0,0.0,0.0,0.0,0.0,0.0,0.0,0.0,0.0,0.0,0.0,0.0,0.0,0.0,0.0,-3.0986,-3.0986,-3.0986,-3.0986,-3.0986,-3.0986,-3.0986,-3.0986,-3.0986,-3.0986,-3.0986,-3.0986,0.0,0.0,0.0,0.0,0.0,-3.0986,-3.0986,-3.0986,-3.0986,-3.0986,-3.0986,-3.0986,-3.0986,-3.0986,0.0,0.0,0.0,0.0,0.0,0.0,0.0,0.0,-0.8967,-0.9465,-0.9522,-0.98,-1.054,-0.9855,-0.9376,-0.952,0.0,0.0,0.0,0.0,0.0,0.0,0.0,0.0,0.0,-1.1229,-1.2374,-1.3575,-1.3575,-1.4052,-1.4932,-1.4267,0.0,0.0,0.0,0.0,0.0,0.0,0.0,0.0,0.0,0.0,-1.3452,0.0,0.0,0.0,0.0,0.0,0.0,0.0,0.0,0.0,0.0,0.0,0.0,0.0,-1.4721,-1.6441,-1.7865,-1.8702,-1.9068,-1.8689,-1.8179,-1.7552,-1.6741,-1.5826,-1.5008,-1.4419,-1.404,-1.3804,-1.3804,-1.4158,-1.4917,-1.6323,-1.7107,0.0,0.0,0.0,0.0,0.0,0.0,0.0,0.0,0.0,0.0,0.0,0.0,0.0,0.0,0.0,-3.0986,-3.0986,-3.0986,-3.0986,-3.0986,-3.0986,-3.0986,-3.0986,-3.0986,-3.0986,-3.0986,0.0,0.0,0.0,0.0,0.0,0.0,-3.0986,-3.0986,-3.0986,-3.0986,-3.0986,-3.0986,-3.0986,-3.0986,-3.0986,0.0,0.0,0.0,0.0,0.0,0.0,0.0,0.0,0.0,0.0,0.0,-0.9156,-0.9845,-0.9199,0.0,0.0,0.0,0.0,0.0,0.0,0.0,0.0,0.0,0.0,0.0,-1.0847,-1.2138,-1.4214,-1.4276,-1.4973,-1.6256,-1.5639,-1.4962,0.0,0.0,0.0,0.0,0.0,0.0,0.0,0.0,-1.22,0.0,0.0,0.0,0.0,0.0,0.0,0.0,0.0,0.0,0.0,0.0,0.0,0.0,0.0,0.0,0.0,0.0,-1.7329,-1.7787,-1.7787,-1.7395,-1.6728,-1.5617,-1.4964,0.0,-1.3909,-1.3804,-1.3831,-1.3909,-1.476,-1.5487,-1.5696,0.0,0.0,0.0,0.0,0.0,0.0,0.0,0.0,0.0,0.0,0.0,0.0,0.0,0.0,0.0,0.0,0.0,-3.0986,-3.0986,-3.0986,-3.0986,-3.0986,-3.0986,-3.0986,-3.0986,-3.0986,-3.0986,0.0,0.0,0.0,0.0,0.0,0.0,-3.0986,-3.0986,-3.0986,-3.0986,-3.0986,-3.0986,-3.0986,-3.0986,-3.0986,0.0,0.0,0.0,0.0,0.0,0.0,0.0,0.0,0.0,0.0,0.0,0.0,0.0,0.0,0.0,0.0,0.0,0.0,0.0,0.0,0.0,0.0,0.0,0.0,0.0,-1.107,-1.2346,-1.4421,-1.4942,-1.5796,-1.6962,-1.6793,-1.61,-1.4932,-1.4267,0.0,0.0,0.0,0.0,0.0,-1.22,-1.22,0.0,0.0,0.0,0.0,-1.2227,-1.2277,0.0,0.0,0.0,0.0,0.0,0.0,0.0,0.0,-1.1488,-1.1933,-1.349,0.0,-1.4825,-1.4825,-1.5003,-1.5029,0.0,-1.4419,-1.4459,-1.3909,-1.3804,-1.4079,-1.4943,-1.4938,-1.5526,0.0,0.0,0.0,0.0,0.0,0.0,0.0,0.0,0.0,0.0,0.0,0.0,0.0,0.0,0.0,0.0,0.0,0.0,-3.0986,-3.0986,-3.0986,-3.0986,-3.0986,-3.0986,-3.0986,-3.0986,-3.0986,-3.0986,0.0,0.0,0.0,0.0,0.0,-3.0986,-3.0986,-3.0986,-3.0986,-3.0986,-3.0986,-3.0986,-3.0986,-3.0986,-3.0986,0.0,0.0,0.0,0.0,0.0,0.0,0.0,0.0,0.0,0.0,0.0,0.0,0.0,0.0,0.0,0.0,0.0,0.0,0.0,0.0,0.0,0.0,0.0,0.0,-1.0676,-1.1132,-1.2396,-1.4502,-1.5089,-1.5991,-1.7193,-1.6886,-1.6193,-1.5147,-1.3852,0.0,0.0,0.0,0.0,0.0,-1.22,0.0,0.0,0.0,0.0,0.0,-1.2091,-1.208,0.0,-1.253,-1.2408,-1.2082,0.0,0.0,0.0,0.0,-1.0795,-1.0978,-1.1881,-1.2941,-1.387,-1.4105,-1.4393,-1.4507,-1.4219,-1.421,-1.4158,-1.387,0.0,-1.4367,-1.4964,-1.5461,0.0,0.0,0.0,0.0,0.0,0.0,0.0,0.0,0.0,0.0,0.0,0.0,0.0,0.0,0.0,0.0,0.0,0.0,0.0,0.0,-3.0986,-3.0986,-3.0986,-3.0986,-3.0986,-3.0986,-3.0986,-3.0986,-3.0986,-3.0986,0.0,0.0,0.0,0.0,-3.0986,-3.0986,-3.0986,-3.0986,-3.0986,-3.0986,-3.0986,-3.0986,-3.0986,-3.0986,0.0,0.0,0.0,0.0,0.0,0.0,0.0,0.0,0.0,0.0,0.0,0.0,0.0,0.0,0.0,0.0,0.0,0.0,0.0,0.0,0.0,0.0,0.0,-0.9435,-1.0992,-1.1257,-1.2473,-1.4702,-1.5171,-1.6066,-1.7347,-1.6885,-1.6147,-1.5116,-1.3201,-1.2303,0.0,0.0,0.0,0.0,0.0,0.0,0.0,0.0,0.0,0.0,0.0,0.0,0.0,-1.233,-1.2438,-1.2405,-1.1795,0.0,0.0,0.0,0.0,0.0,-1.1253,-1.2666,-1.4014,-1.4376,-1.4598,-1.4747,-1.4747,0.0,0.0,0.0,0.0,0.0,-1.51,-1.6336,0.0,0.0,0.0,0.0,0.0,0.0,0.0,0.0,0.0,0.0,0.0,0.0,0.0,0.0,0.0,0.0,0.0,0.0,0.0,0.0,-3.0986,-3.0986,-3.0986,-3.0986,-3.0986,-3.0986,-3.0986,-3.0986,-3.0986,-3.0986,0.0,0.0,0.0,0.0,-3.0986,-3.0986,-3.0986,-3.0986,-3.0986,-3.0986,-3.0986,-3.0986,-3.0986,-3.0986,0.0,0.0,0.0,0.0,0.0,0.0,0.0,0.0,0.0,0.0,0.0,0.0,0.0,0.0,0.0,0.0,0.0,0.0,0.0,0.0,0.0,0.0,-0.9682,-1.0375,-1.2031,-1.1844,-1.3022,-1.5689,-1.6101,-1.6899,-1.8069,-1.8577,-1.753,-1.5132,-1.3682,-1.2724,-1.22,0.0,0.0,0.0,0.0,0.0,0.0,0.0,0.0,0.0,0.0,0.0,0.0,-1.1957,-1.1778,-1.1554,-1.1273,0.0,0.0,0.0,0.0,0.0,-1.2206,-1.3543,-1.4393,-1.4027,-1.4655,-1.5356,-1.5356,-1.5309,0.0,0.0,0.0,0.0,0.0,0.0,0.0,0.0,0.0,0.0,0.0,0.0,0.0,0.0,0.0,0.0,0.0,0.0,0.0,0.0,0.0,0.0,0.0,0.0,0.0,0.0,0.0,-3.0986,-3.0986,-3.0986,-3.0986,-3.0986,-3.0986,-3.0986,-3.0986,-3.0986,-3.0986,0.0,0.0,-3.0986,-3.0986,-3.0986,-3.0986,-3.0986,-3.0986,-3.0986,-3.0986,-3.0986,-3.0986,-3.0986,0.0,0.0,0.0,0.0,0.0,0.0,0.0,0.0,0.0,0.0,0.0,0.0,0.0,0.0,0.0,0.0,0.0,0.0,0.0,0.0,0.0,-1.0531,-1.0955,-1.1696,-1.2863,-1.286,-1.4009,-1.6439,-1.6734,-1.7326,-1.8176,-1.7438,-1.6207,-1.4593,-1.3251,-1.2493,-1.22,0.0,0.0,-1.22,0.0,0.0,0.0,0.0,0.0,0.0,0.0,0.0,0.0,0.0,-1.181,-1.1858,-1.1126,0.0,0.0,0.0,0.0,0.0,-1.1319,-1.2825,-1.4197,-1.4267,-1.561,-1.682,-1.6493,-1.6415,-1.6415,0.0,0.0,0.0,0.0,0.0,0.0,0.0,0.0,0.0,0.0,0.0,0.0,0.0,0.0,0.0,0.0,0.0,0.0,0.0,0.0,0.0,0.0,0.0,0.0,0.0,0.0,0.0,-3.0986,-3.0986,-3.0986,-3.0986,-3.0986,-3.0986,-3.0986,-3.0986,-3.0986,-3.0986,0.0,-3.0986,-3.0986,-3.0986,-3.0986,-3.0986,-3.0986,-3.0986,-3.0986,-3.0986,-3.0986,-3.0986,0.0,0.0,0.0,0.0,0.0,0.0,0.0,0.0,0.0,0.0,0.0,0.0,0.0,0.0,0.0,0.0,0.0,0.0,0.0,0.0,-0.9552,-1.1035,-1.1874,-1.2812,-1.3879,-1.4106,-1.5177,-1.7155,-1.7188,-1.7469,-1.793,-1.6239,-1.4993,-1.416,-1.297,-1.2339,-1.22,-1.22,-1.22,-1.22,0.0,0.0,0.0,0.0,0.0,0.0,0.0,0.0,0.0,0.0,0.0,0.0,0.0,0.0,0.0,-1.0556,-1.0299,-1.0377,-1.0703,-1.2277,-1.3975,-1.4721,-1.6415,-1.7878,-1.7813,-1.7813,-1.7852,0.0,0.0,0.0,0.0,0.0,0.0,0.0,0.0,0.0,0.0,0.0,0.0,0.0,0.0,0.0,0.0,0.0,0.0,0.0,0.0,0.0,0.0,0.0,0.0,0.0,0.0,0.0,-3.0986,-3.0986,-3.0986,-3.0986,-3.0986,-3.0986,-3.0986,-3.0986,-3.0986,-3.0986,-3.0986,-3.0986,-3.0986,-3.0986,-3.0986,-3.0986,-3.0986,-3.0986,-3.0986,-3.0986,-3.0986,-3.0986,0.0,0.0,0.0,0.0,0.0,0.0,0.0,0.0,0.0,0.0,0.0,0.0,0.0,0.0,0.0,0.0,0.0,0.0,0.0,0.0,-0.9552,-1.1035,-1.1874,-1.3295,-1.5392,-1.5643,-1.6467,-1.791,-1.7436,-1.7224,-1.7254,-1.6486,-1.5439,-1.4175,-1.3452,-1.2785,-1.22,-1.22,-1.22,-1.22,-1.22,0.0,0.0,0.0,0.0,0.0,0.0,0.0,0.0,0.0,0.0,0.0,0.0,0.0,-1.0564,-1.035,-1.0299,-1.0547,-1.1674,-1.288,-1.4083,-1.5238,-1.6409,-1.7682,-1.9251,-1.9616,-1.976,-2.0321,0.0,0.0,0.0,0.0,0.0,0.0,0.0,0.0,0.0,0.0,0.0,0.0,0.0,0.0,0.0,0.0,0.0,0.0,0.0,0.0,0.0,0.0,0.0,0.0,0.0,0.0,-3.0986,-3.0986,-3.0986,-3.0986,-3.0986,-3.0986,-3.0986,-3.0986,-3.0986,-3.0986,-3.0986,-3.0986,-3.0986,-3.0986,-3.0986,-3.0986,-3.0986,-3.0986,-3.0986,-3.0986,-3.0986,-3.0986,0.0,0.0,0.0,0.0,0.0,0.0,0.0,0.0,0.0,0.0,0.0,0.0,0.0,0.0,0.0,0.0,0.0,0.0,0.0,0.0,-0.9552,-1.1035,-1.1874,-1.2914,-1.42,-1.5321,-1.658,-1.799,-1.706,-1.6793,-1.7162,-1.5239,-1.4298,-1.416,-1.3063,-1.2431,-1.22,-1.22,-1.22,-1.22,-1.22,-1.22,0.0,0.0,0.0,0.0,0.0,0.0,0.0,0.0,-1.0825,-1.0523,-1.0856,-1.0741,-1.0486,-1.0387,-1.0324,-1.0429,-1.0952,-1.2675,-1.4419,-1.4918,-1.6664,-1.8532,0.0,-2.0348,-2.1132,-2.206,-2.2714,0.0,0.0,0.0,0.0,0.0,0.0,0.0,0.0,0.0,0.0,0.0,0.0,0.0,0.0,0.0,0.0,0.0,0.0,0.0,0.0,0.0,0.0,0.0,0.0,0.0,0.0,-3.0986,-3.0986,-3.0986,-3.0986,-3.0986,-3.0986,-3.0986,-3.0986,-3.0986,-3.0986,-3.0986,-3.0986,-3.0986,-3.0986,-3.0986,-3.0986,-3.0986,-3.0986,-3.0986,-3.0986,-3.0986,0.0,0.0,0.0,0.0,0.0,0.0,0.0,0.0,0.0,0.0,0.0,0.0,0.0,0.0,0.0,0.0,0.0,0.0,0.0,-0.8897,-0.945,-1.0707,-1.1502,-1.2358,-1.3286,-1.4574,-1.5923,-1.7303,-1.6561,-1.6223,-1.621,-1.4363,-1.3759,-1.416,-1.3032,-1.2523,-1.2493,-1.2292,-1.22,-1.22,-1.22,-1.22,0.0,0.0,0.0,0.0,0.0,0.0,0.0,0.0,-1.0401,-1.0186,-1.0668,-1.0668,-1.0498,-1.0424,-1.0611,-1.0873,-1.0991,-1.2782,-1.4707,-1.5136,-1.6965,0.0,-2.0309,-2.1355,-2.2374,-2.3537,-2.4099,-2.4439,0.0,0.0,0.0,0.0,0.0,0.0,0.0,0.0,0.0,0.0,0.0,0.0,0.0,0.0,0.0,0.0,0.0,0.0,0.0,0.0,0.0,0.0,0.0,0.0,0.0,-3.0986,-3.0986,-3.0986,-3.0986,-3.0986,-3.0986,-3.0986,-3.0986,-3.0986,-3.0986,-3.0986,-3.0986,-3.0986,-3.0986,-3.0986,-3.0986,-3.0986,-3.0986,-3.0986,-3.0986,-3.0986,0.0,0.0,0.0,0.0,0.0,0.0,0.0,0.0,0.0,0.0,0.0,0.0,0.0,0.0,0.0,0.0,0.0,0.0,0.0,-0.8897,-0.9224,-0.995,-1.07,-1.1724,-1.3035,-1.3525,-1.4438,-1.5783,-1.6053,-1.5501,-1.4206,-1.419,-1.419,-1.416,-1.3498,-1.3201,-1.3155,-1.2477,-1.22,-1.22,-1.22,-1.22,-1.2123,0.0,0.0,0.0,0.0,0.0,0.0,0.0,-1.0428,-1.0183,-1.0727,-1.0717,-1.0512,-1.0424,-1.1175,-1.205,-1.2167,-1.3387,-1.4904,-1.612,0.0,0.0,-2.1747,-2.2818,-2.3563,-2.4769,-2.5018,-2.5188,-2.5702,0.0,0.0,0.0,0.0,0.0,0.0,0.0,0.0,0.0,0.0,0.0,0.0,0.0,0.0,0.0,0.0,0.0,0.0,0.0,0.0,0.0,0.0,0.0,-3.0986,-3.0986,-3.0986,-3.0986,-3.0986,-3.0986,-3.0986,-3.0986,-3.0986,-3.0986,-3.0986,-3.0986,-3.0986,-3.0986,-3.0986,-3.0986,-3.0986,-3.0986,-3.0986,-3.0986,-3.0986,-3.0986,0.0,0.0,0.0,0.0,0.0,0.0,0.0,0.0,0.0,0.0,0.0,0.0,0.0,0.0,0.0,0.0,0.0,0.0,0.0,-0.8897,-0.8999,-0.9207,-1.0292,-1.0832,-1.0705,-1.1578,-1.2916,-1.4666,-1.4748,-1.459,-1.419,-1.3713,-1.3498,-1.3482,-1.3294,-1.2939,-1.2477,-1.2277,-1.22,-1.22,-1.22,-1.22,-1.2123,0.0,0.0,0.0,0.0,0.0,0.0,0.0,0.0,0.0,-0.9998,-1.0702,-1.1121,-1.0668,-1.1642,-1.2754,-1.2316,-1.3723,0.0,-1.667,0.0,0.0,0.0,-2.342,0.0,0.0,-2.6452,-2.6248,0.0,0.0,0.0,0.0,0.0,0.0,0.0,0.0,0.0,0.0,0.0,0.0,0.0,0.0,0.0,0.0,0.0,0.0,0.0,0.0,0.0,0.0,0.0,0.0,-3.0986,-3.0986,-3.0986,-3.0986,-3.0986,-3.0986,-3.0986,-3.0986,-3.0986,-3.0986,-3.0986,-3.0986,-3.0986,-3.0986,-3.0986,-3.0986,-3.0986,-3.0986,-3.0986,-3.0986,-3.0986,-3.0986,0.0,0.0,0.0,0.0,0.0,0.0,0.0,0.0,0.0,0.0,0.0,-0.8913,0.0,0.0,0.0,0.0,0.0,0.0,0.0,0.0,-0.8897,-0.8897,-0.9592,-0.995,-0.9936,-1.1073,-1.2086,-1.2963,-1.3267,-1.3267,-1.299,-1.3405,-1.359,-1.3605,-1.3883,-1.3621,-1.2985,-1.2708,-1.2446,-1.22,-1.22,-1.22,-1.2123,0.0,0.0,0.0,0.0,0.0,0.0,0.0,0.0,0.0,-0.9695,-1.0313,-1.0837,-1.0907,-1.2106,-1.352,-1.3818,-1.5217,0.0,-1.8253,-1.981,-2.159,-2.3746,0.0,0.0,0.0,0.0,0.0,0.0,0.0,0.0,0.0,0.0,0.0,0.0,0.0,0.0,0.0,0.0,0.0,0.0,0.0,0.0,0.0,0.0,0.0,0.0,0.0,0.0,0.0,0.0,0.0,-3.0307,-3.0307,-3.0424,-3.0647,-3.0953,-3.1206,-3.1431,-3.1123,-3.0986,-3.0986,-3.0986,-3.0986,-3.0986,-3.0986,-3.0986,-3.0986,-3.0986,-3.0986,-3.0986,-3.0986,-3.0986,-3.0986,0.0,0.0,-0.9343,-0.9133,0.0,0.0,0.0,0.0,0.0,-0.906,-0.898,-0.8936,0.0,0.0,0.0,-0.8897,0.0,0.0,0.0,0.0,-0.8897,-0.8897,-0.8889,-0.9391,-1.0482,-1.1511,-1.1742,-1.1131,-1.1856,-1.182,-1.1149,-1.3225,-1.4175,-1.4144,-1.4809,-1.4701,0.0,-1.3298,-1.2631,-1.2015,-1.2077,-1.2061,-1.1943,-1.1261,0.0,0.0,0.0,0.0,0.0,0.0,0.0,0.0,-0.9749,-0.988,-1.0201,-1.1107,-1.2593,-1.4309,-1.5953,0.0,0.0,-2.0394,-2.1379,0.0,-2.5145,0.0,0.0,0.0,0.0,0.0,0.0,0.0,0.0,0.0,0.0,0.0,0.0,0.0,0.0,0.0,0.0,0.0,0.0,0.0,0.0,0.0,0.0,0.0,0.0,0.0,0.0,0.0,0.0,0.0,-2.9473,-2.9473,-2.9737,0.0,-3.089,-3.1501,-3.1996,-3.1378,-3.1048,-3.0986,-3.0986,-3.0986,-3.0986,-3.0986,-3.0986,-3.0986,-3.0986,-3.0986,-3.0986,-3.0986,-3.0986,-3.0986,0.0,0.0,-0.9362,-0.9201,0.0,0.0,0.0,0.0,-0.8908,-0.893,-0.8913,-0.8908,-0.893,-0.8913,0.0,-0.8897,-0.8897,0.0,0.0,0.0,-0.8897,-0.8897,-0.9829,-1.0881,-1.1999,-1.1215,-1.0976,-1.1336,-1.1926,-1.182,-1.1149,-1.3225,-1.3929,-1.3436,-1.4113,-1.3744,-1.2585,-1.1866,-1.1164,-1.0604,-1.1118,-1.101,-1.0589,-1.0936,-1.0331,0.0,0.0,0.0,0.0,0.0,0.0,0.0,-1.0134,-1.0909,-1.1626,-1.1268,-1.3007,-1.5125,-1.5397,-1.679,0.0,0.0,-2.3474,-2.4918,0.0,0.0,0.0,0.0,0.0,0.0,0.0,0.0,0.0,0.0,0.0,0.0,0.0,0.0,0.0,0.0,0.0,0.0,0.0,0.0,0.0,0.0,0.0,0.0,0.0,0.0,0.0,0.0,0.0,-3.0867,-3.0867,-3.0867,-3.0922,0.0,-3.1215,-3.1352,-3.1471,-3.1738,-3.1529,-3.0986,-3.0986,-3.0986,-3.0986,-3.0986,-3.0986,-3.0986,-3.0986,-3.0986,-3.0986,-3.0986,-3.0986,-3.0986,0.0,0.0,0.0,0.0,0.0,0.0,0.0,0.0,-0.8936,-0.9038,-0.8963,-0.8936,-0.9043,-0.8957,0.0,0.0,-0.8897,-0.8897,0.0,0.0,0.0,-0.8812,-0.9756,-1.0521,-1.1061,-1.0287,-1.0199,-1.0868,-1.1189,-1.1449,-1.1666,-1.3729,-1.4655,-1.464,-1.4993,-1.4421,-1.3093,-1.2066,-1.1035,-1.0119,-1.0472,-1.0411,-1.0103,-1.0132,-0.971,-0.905,-0.8735,0.0,0.0,0.0,0.0,0.0,0.0,0.0,-1.1037,-1.1483,-1.2856,-1.4493,-1.5879,0.0,0.0,-2.181,0.0,0.0,0.0,0.0,0.0,0.0,0.0,0.0,0.0,0.0,0.0,0.0,0.0,0.0,0.0,0.0,0.0,0.0,0.0,0.0,0.0,0.0,0.0,0.0,0.0,0.0,0.0,0.0,0.0,0.0,-3.0255,-3.0455,-3.0455,-3.0455,-3.0577,-3.0886,-3.1229,-3.1561,-3.1823,-3.2048,-3.1738,-3.107,-3.1372,-3.1334,-3.0986,-3.0986,-3.0986,-3.0986,-3.0986,-3.0986,-3.0986,-3.0986,-3.0986,-3.0986,0.0,0.0,0.0,0.0,0.0,0.0,0.0,0.0,0.0,-0.9162,-0.9022,-0.8974,-0.9167,-0.9017,-0.8897,0.0,0.0,0.0,-0.8897,0.0,0.0,0.0,-0.9428,-0.9727,-0.9696,-0.9496,-0.9764,-1.0532,-1.0421,-1.1201,-1.2819,-1.4482,-1.5525,-1.6039,-1.6039,-1.5209,-1.3759,-1.2416,-1.1029,-0.9773,-0.9881,-0.9866,-0.9712,-0.9272,-0.9034,-0.885,-0.829,-0.8521,-0.9178,-0.962,0.0,0.0,0.0,0.0,-1.0142,-1.1554,-1.2361,-1.3375,-1.5988,0.0,-1.9675,-2.2072,-2.3906,0.0,0.0,0.0,0.0,0.0,0.0,0.0,0.0,0.0,0.0,0.0,0.0,0.0,0.0,0.0,0.0,0.0,0.0,0.0,0.0,0.0,0.0,0.0,0.0,0.0,0.0,0.0,0.0,-2.9858,-2.9858,-2.9858,-2.9858,-2.9858,-3.0097,-3.0591,-3.1215,-3.1753,-3.2244,-3.2239,-3.19,-3.1324,-3.1743,-3.1642,-3.1198,-3.1048,-3.0986,-3.0986,-3.0986,-3.0986,-3.0986,-3.0986,-3.1086,-3.1185,0.0,0.0,0.0,0.0,0.0,0.0,0.0,0.0,0.0,0.0,-0.8996,-0.8946,-0.9092,-0.8991,-0.8897,-0.8897,-0.8897,-0.8897,0.0,0.0,0.0,0.0,-0.9825,-1.0105,-1.0461,-0.9978,-1.0312,-1.1504,-1.0717,-1.1942,-1.5072,-1.5327,-1.5401,-1.5332,-1.5332,-1.4267,-1.2369,-1.0974,-0.9604,-0.8418,-0.8996,-0.8888,-0.8411,-0.8911,-0.8749,-0.8217,-0.8133,-0.8527,-0.9202,-0.983,-1.0413,0.0,0.0,0.0,0.0,0.0,-1.1696,-1.2665,0.0,0.0,-2.1069,0.0,0.0,0.0,0.0,0.0,0.0,0.0,0.0,0.0,0.0,0.0,0.0,0.0,0.0,0.0,0.0,0.0,0.0,0.0,0.0,0.0,0.0,0.0,0.0,0.0,0.0,0.0,0.0,0.0,-3.1219,-3.1219,-3.1219,-3.1219,-3.1219,-3.1219,-3.1264,-3.1353,-3.144,-3.1529,-3.1633,-3.2183,-3.2307,-3.2027,-3.1449,-3.1505,-3.1905,-3.1259,-3.0986,-3.0986,-3.0986,-3.0986,-3.0986,-3.0986,-3.1394,-3.1942,0.0,0.0,0.0,0.0,0.0,0.0,0.0,0.0,0.0,0.0,0.0,-0.9055,-0.9136,-0.9001,-0.8897,-0.8897,-0.8897,0.0,0.0,0.0,0.0,0.0,0.0,-0.9462,-0.9646,-0.9338,-0.964,-1.0583,-1.0131,0.0,0.0,-1.5317,-1.622,-1.7453,-1.6669,-1.5408,-1.3744,-1.1579,-0.9881,-0.8657,-0.8565,-0.9042,-0.9696,-0.8857,-0.9057,-0.9635,-0.8503,-0.8289,-0.8689,-0.9708,-1.0256,-1.0602,-1.1207,0.0,0.0,0.0,0.0,0.0,-1.4223,-1.7592,-2.0739,0.0,0.0,0.0,0.0,0.0,0.0,0.0,0.0,0.0,0.0,0.0,0.0,0.0,0.0,0.0,0.0,0.0,0.0,0.0,0.0,0.0,0.0,0.0,0.0,0.0,0.0,0.0,0.0,-3.1351,-3.1511,-3.1511,-3.1511,0.0,-3.1511,-3.1511,-3.1511,-3.1511,-3.1511,-3.1511,-3.1511,-3.1809,-3.1866,-3.1732,-3.1806,-3.1766,-3.1668,-3.1676,-3.167,-3.1711,-3.2073,-3.2245,-3.2173,-3.1786,-3.1809,-3.2051,0.0,0.0,0.0,0.0,0.0,0.0,0.0,0.0,0.0,0.0,0.0,-0.9113,-0.9167,0.0,0.0,0.0,-0.8891,0.0,0.0,0.0,0.0,0.0,0.0,-0.888,-0.8852,-0.8789,-0.9056,-0.9678,0.0,0.0,-1.481,-1.5538,-1.7292,0.0,-1.8161,-1.6559,-1.4866,-1.2596,-1.0958,-0.9843,-0.9343,-1.0043,-1.1241,-1.009,-1.0573,-1.1641,-0.9797,-0.9134,0.0,0.0,0.0,0.0,0.0,0.0,0.0,0.0,0.0,0.0,0.0,0.0,-1.9106,0.0,0.0,0.0,0.0,0.0,0.0,0.0,0.0,0.0,0.0,0.0,0.0,0.0,0.0,0.0,0.0,0.0,0.0,0.0,0.0,0.0,0.0,0.0,0.0,0.0,0.0,0.0,-3.1241,-3.1406,-3.1511,-3.1511,-3.1511,-3.1511,-3.1511,-3.1511,-3.1511,-3.1511,-3.1511,-3.1511,-3.1511,-3.1511,-3.1486,-3.1462,-3.1932,-3.1944,-3.1594,-3.1845,-3.2058,-3.224,-3.2737,-3.3052,-3.3108,-3.2362,-3.2326,-3.2541,0.0,0.0,0.0,0.0,0.0,0.0,0.0,0.0,0.0,0.0,0.0,-0.9104,-0.9109,-0.8985,-0.8903,-0.8891,-0.8897,0.0,0.0,0.0,0.0,0.0,0.0,0.0,0.0,-0.8829,-0.9117,-0.9612,0.0,0.0,-1.5929,-1.6605,-1.8448,-2.11,-1.9061,-1.6798,-1.4468,0.0,-1.2677,-1.2041,-1.2,-1.2046,-1.2262,-1.3436,-1.3944,-1.3867,-1.2477,0.0,0.0,0.0,0.0,0.0,0.0,0.0,0.0,0.0,0.0,0.0,0.0,-1.4192,0.0,0.0,0.0,0.0,0.0,0.0,0.0,0.0,0.0,0.0,0.0,0.0,0.0,0.0,0.0,0.0,0.0,0.0,0.0,0.0,0.0,0.0,0.0,0.0,0.0,0.0,0.0,0.0,-3.0552,-3.1152,-3.1511,-3.1511,-3.1511,-3.1511,-3.1511,-3.1511,-3.1511,-3.1511,-3.1511,-3.1511,-3.1511,-3.1511,-3.1497,-3.1498,-3.1464,-3.178,-3.2295,-3.1627,-3.168,-3.2198,-3.224,-3.2638,-3.3108,-3.2362,-3.2975,-3.3993,0.0,0.0,0.0,0.0,0.0,0.0,0.0,0.0,0.0,0.0,0.0,0.0,0.0,-0.9133,-0.9023,-0.9029,-0.8953,0.0,0.0,0.0,0.0,0.0,0.0,0.0,0.0,-0.8875,-0.8987,0.0,0.0,-1.1022,-1.4013,-1.4654,-1.5955,-1.7786,-1.8313,-1.8037,-1.7049,-1.4804,-1.3698,-1.3459,-1.3256,-1.3941,-1.5054,-1.4672,-1.5326,-1.6187,0.0,0.0,0.0,0.0,0.0,0.0,-1.1256,-1.0641,-0.9881,-0.878,-0.9073,0.0,0.0,0.0,0.0,0.0,0.0,0.0,0.0,0.0,0.0,0.0,0.0,0.0,0.0,0.0,0.0,0.0,0.0,0.0,0.0,0.0,0.0,0.0,0.0,0.0,0.0,0.0,0.0,0.0,0.0,0.0,-2.9909,-3.0148,-3.0283,-3.0283,-3.0672,-3.1062,-3.1511,-3.1511,-3.1511,-3.1511,-3.1511,-3.1511,-3.1511,-3.1511,-3.1511,-3.1497,-3.1456,-3.1604,-3.184,-3.198,-3.2194,-3.2487,-3.3337,-3.3838,-3.3974,-3.3645,-3.3856,-3.4177,0.0,0.0,0.0,-0.9504,0.0,-0.9504,-0.9504,-0.9504,-0.9496,-0.9465,0.0,0.0,0.0,0.0,-0.9088,-0.9034,-0.8953,-0.8903,-0.8897,0.0,0.0,0.0,0.0,0.0,0.0,-0.8897,-0.8875,-0.8835,-0.904,-1.0333,0.0,-1.3345,-1.4488,-1.6033,-1.6811,-1.7454,0.0,0.0,0.0,-1.5229,-1.544,-1.6209,-1.7188,-1.7103,-1.7695,0.0,0.0,0.0,0.0,0.0,0.0,0.0,0.0,-1.0967,-0.9542,-0.8426,-0.8888,-1.0002,-1.1072,0.0,0.0,0.0,0.0,0.0,0.0,0.0,0.0,0.0,0.0,0.0,0.0,0.0,0.0,0.0,0.0,0.0,0.0,0.0,0.0,0.0,0.0,0.0,0.0,0.0,0.0,0.0,0.0,0.0,-2.925,-2.9487,-2.9606,-2.9606,-2.9983,-3.0507,-3.1152,-3.1152,-3.1271,-3.1511,-3.1511,-3.1511,-3.1511,-3.1511,-3.1511,-3.1511,-3.1511,-3.1511,-3.154,-3.1974,-3.2288,-3.2602,-3.3469,-3.4114,-3.4454,-3.4127,-3.4287,-3.4543,-0.9616,-0.954,-0.9504,-0.9504,-0.9522,-0.9522,-0.9504,-0.9522,-0.9515,-0.9448,0.0,0.0,0.0,0.0,0.0,-0.8942,-0.8936,-0.892,-0.8897,-0.8897,0.0,0.0,0.0,0.0,0.0,-0.8897,-0.8841,-0.8703,-0.9546,-1.0672,-1.2056,-1.2932,-1.437,-1.6204,-1.4751,-1.4961,-1.6499,0.0,-1.8057,-1.7358,0.0,-1.8824,-1.8578,0.0,0.0,0.0,-2.0842,-2.0035,0.0,0.0,0.0,0.0,0.0,-1.1614,-0.9027,-0.8387,-0.8657,-0.9327,0.0,0.0,0.0,0.0,0.0,0.0,0.0,0.0,0.0,0.0,0.0,0.0,0.0,0.0,0.0,0.0,0.0,0.0,0.0,0.0,0.0,0.0,0.0,0.0,0.0,0.0,0.0,0.0,0.0,-2.8562,-2.8562,-2.9175,-2.9562,-2.9577,-2.9577,-2.9849,-3.0477,-3.0477,-3.0821,-3.1466,-3.1466,-3.1481,-3.1511,-3.1511,-3.1511,-3.1511,-3.1511,-3.1511,-3.1511,-3.1511,-3.1884,-3.2452,-3.2497,-3.3305,-3.4349,-3.3659,-3.4295,-3.5264,-0.9616,-0.954,-0.9504,-0.9504,-0.9987,-1.0173,-0.9595,-0.9987,-1.0367,0.0,0.0,0.0,-1.0189,-1.0017,-0.9835,-0.9698,-0.9697,-0.9466,-0.8931,-0.8897,-0.8897,-0.8897,-0.8897,-0.8897,-0.8897,-0.8897,-0.888,-0.8846,-0.9077,-0.968,-1.0602,-1.1369,-1.2246,-1.3161,-1.3765,-1.4199,-1.4487,-1.492,0.0,0.0,-1.8663,-1.9567,0.0,0.0,0.0,0.0,0.0,-2.2216,-2.1437,0.0,-1.9866,-1.7588,0.0,0.0,-1.0503,-1.0318,-1.0774,-1.1276,-1.0918,0.0,0.0,0.0,0.0,0.0,0.0,0.0,0.0,0.0,0.0,0.0,0.0,0.0,0.0,0.0,0.0,0.0,0.0,0.0,0.0,0.0,0.0,0.0,0.0,0.0,0.0,0.0,0.0,-2.7884,-2.7884,-2.8049,-2.8378,-2.8861,-2.8876,-2.919,-2.9834,-2.9834,-3.0163,-3.0791,-3.0791,-3.1017,-3.1511,-3.1511,-3.1511,-3.1511,-3.1511,-3.1511,-3.1511,-3.1511,-3.1615,-3.1824,-3.2303,-3.2736,-3.314,-3.3925,-3.4433,-3.4784,-1.0074,-1.0308,-1.0494,-1.0494,-1.1173,-1.1427,-1.0621,-1.1186,-1.1577,0.0,0.0,0.0,-1.1094,-1.1463,-1.1401,-1.0644,-1.0238,-0.9821,-0.9393,-0.9078,-0.8897,-0.8897,-0.8897,-0.8897,-0.8897,-0.8897,-0.8897,-0.8897,-0.8897,-0.9128,-0.9557,-0.9986,-1.0463,-1.1006,-1.1612,-1.246,-1.3417,-1.2855,0.0,0.0,-1.9571,0.0,0.0,-2.3223,-2.3786,0.0,0.0,0.0,-2.3194,-2.3636,-2.1883,0.0,0.0,-1.4241,-1.2656,-1.1805,-1.2251,-1.2928,-1.2502,-1.3205,0.0,0.0,0.0,0.0,0.0,0.0,0.0,0.0,0.0,0.0,0.0,0.0,0.0,0.0,0.0,0.0,0.0,0.0,0.0,0.0,0.0,0.0,0.0,0.0,0.0,0.0,-2.7765,-2.774,-2.7675,-2.7625,-2.7779,-2.8184,-2.8173,-2.8487,-2.916,-2.9175,-2.949,-3.0118,-3.0118,-3.0462,-3.1077,-3.1077,-3.1241,-3.1511,-3.1511,-3.1511,-3.1511,-3.1511,-3.1511,-3.154,-3.1929,-3.2243,-3.2572,-3.338,-3.3829,-3.4158,0.0,-1.1414,-1.1939,-1.2024,-1.2694,-1.2984,-1.2278,-1.2857,-1.3111,0.0,-1.2358,-1.2439,-1.2496,-1.3373,-1.3392,-1.2019,-1.0918,-1.0259,-1.0181,-0.9439,-0.8982,-0.8897,-0.8897,-0.8897,-0.8897,-0.8897,-0.8897,-0.8897,-0.8897,-0.8897,-0.8897,-0.8897,-0.9148,-0.9597,-0.9109,-1.039,-1.2822,-1.1873,0.0,-1.7178,-2.0555,-2.1828,0.0,0.0,-2.4562,0.0,-2.5606,-2.5362,-2.443,-2.526,-2.3429,0.0,0.0,-1.6738,-1.5275,-1.3372,-1.3659,-1.4563,-1.4452,-1.4901,-1.567,0.0,0.0,0.0,0.0,-1.6594,0.0,0.0,0.0,0.0,0.0,0.0,0.0,0.0,0.0,0.0,0.0,0.0,0.0,0.0,0.0,0.0,0.0,0.0,0.0,-2.7898,-2.7949,-2.7955,-2.7815,-2.77,-2.7625,-2.7625,-2.7625,-2.7899,-2.8472,-2.8487,-2.8816,-2.9502,-2.9502,-2.9804,-3.0402,-3.0477,-3.0836,-3.1391,-3.1466,-3.1511,-3.1511,-3.1511,-3.1511,-3.1511,-3.1511,-3.1854,-3.2392,-3.2452,-3.2886,-3.3484,-1.1678,-1.1794,-1.2097,-1.2749,-1.3521,-1.401,-1.3865,-1.4517,-1.4981,-1.4818,-1.5263,-1.5946,-1.6848,-1.5695,-1.4896,-1.502,-1.3175,-1.1778,-1.1233,-1.0318,-0.9523,-0.8931,-0.8897,-0.8897,-0.8897,-0.8897,-0.8897,-0.8897,-0.8897,-0.8897,-0.8897,-0.8897,-0.8965,-0.9049,-0.8948,-0.9872,-1.1586,-1.3168,0.0,-1.6892,-1.8807,0.0,-2.3984,-2.5075,-2.5731,-2.6118,-2.6455,-2.6404,-2.6067,0.0,-2.4397,-2.3054,0.0,0.0,0.0,-1.7,0.0,-1.684,-1.6028,-1.6286,-1.6609,-1.5779,0.0,0.0,0.0,-1.6331,0.0,0.0,0.0,0.0,0.0,0.0,0.0,0.0,0.0,0.0,0.0,0.0,0.0,0.0,0.0,0.0,0.0,0.0,-2.6623,-2.7146,-2.7692,-2.798,-2.7955,-2.7815,-2.7765,-2.7765,-2.765,-2.766,-2.7794,-2.7809,-2.8139,-2.8801,-2.8801,-2.9131,-2.9774,-3.0283,-3.0567,-3.0731,-3.1271,-3.1511,-3.1511,-3.1511,-3.1511,-3.1511,-3.1511,-3.1585,-3.1765,-3.2288,-3.2572,-3.2796,-1.2659,-1.2913,-1.3398,-1.4211,-1.4973,-1.5508,-1.5508,-1.6171,-1.6697,-1.6697,-1.8043,-1.8914,-1.866,-1.7995,-1.7285,-1.6648,-1.4446,-1.2914,-1.2469,-1.0903,-0.9863,-0.956,-0.9201,-0.9206,-0.9639,-0.9228,-0.9201,-0.9601,-0.9123,-0.8897,-0.8897,-0.8897,-0.9501,-1.0561,-0.98,-1.0893,-1.3362,0.0,-1.5436,-1.7991,-2.0242,0.0,-2.4118,-2.5592,-2.637,-2.6691,-2.6691,-2.6691,-2.6556,-2.5648,-2.4762,0.0,0.0,-2.1588,-2.0606,0.0,-1.9267,-1.9352,-1.8478,-1.8499,-1.8629,-1.8121,0.0,0.0,0.0,0.0,0.0,0.0,0.0,0.0,0.0,0.0,0.0,0.0,0.0,0.0,0.0,0.0,0.0,0.0,0.0,0.0,0.0,0.0,-2.6314,-2.6634,-2.6923,-2.725,-2.7585,-2.7479,-2.7557,-2.789,-2.7765,-2.77,-2.77,-2.7625,-2.7764,-2.8109,-2.8109,-2.8442,-2.9101,-2.9415,-2.9963,-3.0676,-3.0909,-3.1254,-3.1641,-3.1539,-3.1511,-3.1511,-3.1511,-3.1511,-3.154,-3.1869,-3.1989,-3.2093,-1.3607,-1.4033,-1.466,-1.5432,-1.6191,-1.6747,-1.6911,-1.7617,-1.8244,-1.8552,-2.0427,-2.1277,-2.0084,-2.0155,-1.9808,-1.8601,-1.6168,-1.4626,-1.4469,0.0,-1.0975,-1.0932,-1.0065,-0.9912,-1.0619,-0.9768,-0.9575,-1.0065,-0.9281,-0.8897,-0.8897,-0.9044,-1.0172,-1.2026,-1.1079,-1.25,0.0,0.0,0.0,-1.9582,0.0,-2.3393,-2.363,-2.5693,-2.6488,-2.6505,-2.664,-2.6793,-2.6776,-2.5913,0.0,-2.4346,-2.3393,-2.2941,0.0,0.0,0.0,0.0,0.0,0.0,0.0,0.0,0.0,-1.956,0.0,0.0,0.0,-1.8983,0.0,0.0,0.0,0.0,0.0,0.0,0.0,0.0,0.0,0.0,0.0,0.0,0.0,0.0,0.0,0.0,-2.5749,-2.6081,-2.5937,-2.6183,-2.6995,-2.7022,-2.7285,-2.7817,-2.783,-2.784,-2.784,-2.774,-2.765,-2.765,-2.765,-2.791,-2.8412,-2.8547,-2.9255,-3.0398,-3.0458,-3.0906,-3.1546,-3.1508,-3.1511,-3.1511,-3.1511,-3.1511,-3.1511,-3.1511,-3.1511,-3.1585,-1.4321,-1.4349,-1.4636,-1.5377,-1.6167,-1.6947,-1.7646,-1.8443,-1.9476,-2.0898,-2.1938,-2.2682,-2.2969,0.0,0.0,-2.2707,0.0,0.0,-1.8279,0.0,-1.4241,-1.3601,-1.2112,-1.1365,-1.147,-1.0616,-0.9863,-0.923,-0.9009,-0.8897,-0.8914,-0.9574,-1.0362,-1.1289,-1.2474,0.0,0.0,0.0,-1.8707,0.0,-2.2747,-2.3393,0.0,-2.5135,-2.5711,-2.5812,-2.6471,-2.7131,-2.7469,0.0,-2.5948,-2.6033,0.0,-2.3772,0.0,0.0,0.0,0.0,0.0,0.0,0.0,0.0,-2.2118,0.0,0.0,0.0,-2.0439,-1.942,0.0,0.0,0.0,0.0,0.0,0.0,0.0,0.0,0.0,0.0,0.0,0.0,0.0,0.0,0.0,0.0,0.0,-2.5266,-2.485,-2.5096,-2.6426,-2.6941,-2.7223,-2.73,-2.775,-2.798,-2.798,-2.7955,-2.7905,-2.779,-2.779,-2.7745,-2.7735,-2.8323,-2.8682,-2.8903,-3.0013,-3.0552,-3.07,-3.1256,-3.1511,-3.1511,-3.1511,-3.1511,-3.1511,-3.1511,-3.1511,-3.1511,-1.459,-1.4473,-1.463,-1.5418,-1.5807,-1.6425,-1.77,-1.9775,-2.1441,-2.2101,-2.326,-2.4306,0.0,0.0,0.0,0.0,0.0,-2.0157,0.0,0.0,-1.5892,-1.6138,-1.4203,-1.3348,-1.3847,-1.2092,-1.0998,-1.0674,-0.9598,-0.9068,-0.908,-0.9783,-1.1192,-1.3164,-1.3769,0.0,-1.8838,0.0,0.0,0.0,0.0,0.0,0.0,-2.5355,-2.6234,-2.6336,-2.7063,-2.7249,-2.7131,0.0,-2.6234,0.0,0.0,0.0,0.0,0.0,0.0,0.0,0.0,0.0,0.0,0.0,0.0,0.0,0.0,0.0,-2.0658,0.0,0.0,0.0,0.0,0.0,0.0,0.0,0.0,0.0,0.0,0.0,0.0,0.0,0.0,0.0,0.0,0.0,0.0,0.0,0.0,-2.3577,-2.5389,-2.5506,-2.6082,-2.7279,-2.7468,-2.7731,-2.8113,-2.8029,-2.7955,-2.793,-2.793,-2.7905,-2.7831,-2.8117,-2.8515,-2.897,-2.9426,-3.0117,-3.0925,-3.1132,-3.1394,-3.167,-3.167,-3.1597,-3.1511,-3.1511,-3.1511,-3.1511,-1.4987,-1.4694,-1.4575,-1.5166,-1.558,-1.6443,-1.828,-2.0735,-2.2445,-2.2662,0.0,0.0,-2.6095,-2.5153,0.0,0.0,-2.4469,-2.2744,0.0,0.0,-1.8261,-1.8725,-1.67,0.0,0.0,-1.3935,-1.255,-1.2119,-1.0591,-0.9864,-0.9876,-1.0563,-1.2141,-1.4408,-1.5151,-1.7569,-2.1037,0.0,0.0,-2.2702,-2.2934,-2.3347,-2.402,-2.5964,-2.6826,-2.7097,-2.7858,-2.7909,-2.7655,-2.7756,-2.6877,0.0,-2.6505,0.0,0.0,0.0,0.0,0.0,-2.4205,0.0,0.0,0.0,0.0,0.0,0.0,0.0,0.0,0.0,0.0,0.0,0.0,0.0,0.0,0.0,0.0,0.0,0.0,0.0,0.0,0.0,0.0,0.0,0.0,0.0,0.0,0.0,0.0,0.0,-2.4562,-2.4541,-2.5313,-2.7225,-2.7265,-2.7585,-2.8259,-2.8152,-2.8079,-2.8054,-2.8054,-2.8044,-2.7995,-2.7995,-2.8312,-2.8885,-2.8966,-2.9711,-3.0884,-3.0973,-3.1349,-3.1841,-3.1841,-3.1784,-3.1611,-3.1597,-3.1568,-3.1597,-1.5708,-1.5063,0.0,0.0,0.0,-1.7472,-1.9866,-2.097,-2.1812,-2.2608,0.0,0.0,0.0,0.0,0.0,0.0,0.0,-2.6868,-2.6072,0.0,-2.2164,0.0,0.0,-1.8588,0.0,0.0,-1.4457,-1.2968,-1.2002,-1.1523,-1.1541,-1.2274,-1.3046,-1.3948,-1.6747,-1.904,-2.0885,-2.2086,-2.4068,-2.6353,-2.5322,-2.5997,-2.7553,0.0,-2.7148,-2.7874,-2.867,0.0,0.0,-2.8297,-2.8281,0.0,0.0,0.0,0.0,0.0,0.0,0.0,0.0,0.0,0.0,-2.4831,0.0,0.0,0.0,0.0,-2.3093,0.0,0.0,0.0,0.0,0.0,-2.0381,-1.9276,0.0,0.0,0.0,0.0,0.0,0.0,0.0,0.0,0.0,0.0,0.0,0.0,0.0,0.0,-2.4263,-2.4652,-2.5475,-2.6971,-2.727,-2.7719,-2.8396,-2.8387,-2.8323,-2.8186,-2.8186,-2.8128,-2.7995,-2.7995,-2.7995,-2.808,-2.8733,-2.9401,-3.0084,-3.0721,-3.1389,-3.1996,-3.1996,-3.1996,-3.1968,-3.1841,-3.1799,-3.1813,0.0,0.0,0.0,0.0,0.0,-1.6951,-1.9856,-2.1858,-2.3506,0.0,0.0,0.0,0.0,0.0,-2.935,0.0,0.0,-2.8866,-2.8607,-2.5842,0.0,0.0,0.0,-2.0826,0.0,0.0,-1.6497,-1.5456,-1.3521,-1.2867,-1.3388,-1.3006,-1.3782,-1.5593,0.0,-1.9843,0.0,0.0,0.0,0.0,0.0,-2.7209,-2.887,0.0,0.0,-2.8687,-2.9448,-2.9567,0.0,-2.9905,-2.9228,-2.8298,-2.8789,-2.7909,-2.664,-2.6404,-2.686,0.0,0.0,0.0,-2.7859,-2.6352,0.0,0.0,0.0,0.0,0.0,0.0,0.0,0.0,0.0,0.0,-2.0942,-2.0551,-1.964,0.0,0.0,0.0,0.0,0.0,0.0,0.0,0.0,0.0,0.0,0.0,0.0,0.0,0.0,-2.3685,-2.4513,-2.5902,-2.6719,-2.7442,-2.813,-2.8309,-2.8372,-2.8323,-2.8323,-2.8299,-2.825,-2.825,-2.825,-2.8266,-2.8495,-2.897,-2.9644,-3.0333,-3.0953,-3.1497,-3.1967,-3.2066,-3.1996,-3.194,-3.194,-3.194,-1.7115,0.0,0.0,0.0,0.0,0.0,0.0,0.0,0.0,0.0,-2.7152,0.0,-3.079,0.0,-3.0925,0.0,-3.1497,-3.0358,-2.9479,-2.7749,0.0,-2.7052,-2.4896,0.0,0.0,0.0,-1.9119,-1.8019,-1.5866,-1.4922,0.0,-1.4246,-1.4784,0.0,0.0,0.0,-2.304,0.0,-2.5661,0.0,0.0,-2.9066,0.0,0.0,-2.9859,-2.9484,0.0,-3.0291,-2.9961,-3.1179,-3.0512,-2.9361,-3.0365,-2.9481,-2.8049,-2.7927,-2.8061,-2.8129,-2.7656,-2.8248,0.0,-2.7402,-2.6742,0.0,-2.4188,0.0,0.0,0.0,0.0,0.0,0.0,0.0,-2.1512,-2.1241,-2.0128,-1.8589,0.0,0.0,0.0,0.0,0.0,0.0,0.0,0.0,-1.8525,-2.0289,0.0,0.0,0.0,0.0,-2.4186,-2.558,-2.6683,-2.7583,-2.8246,-2.8689,-2.8818,-2.8668,-2.8668,-2.8549,-2.8411,-2.8411,-2.8411,-2.8411,-2.8411,-2.8781,-2.9433,-3.0125,-3.076,-3.134,-3.1999,-3.2219,-3.215,-3.2094,-3.2094,-3.215,0.0,0.0,0.0,0.0,-1.84,0.0,0.0,0.0,-2.5447,0.0,-2.7864,-2.9484,-3.116,-3.1342,-3.1983,-3.3532,-3.2976,0.0,-2.9131,-2.9679,0.0,0.0,-2.7301,-2.7323,-2.6564,0.0,0.0,0.0,0.0,0.0,0.0,0.0,0.0,0.0,-1.8181,0.0,-2.2833,-2.4944,-2.7394,-2.997,-3.1159,-3.1497,-3.1383,-3.207,0.0,-3.0357,-3.1362,-3.1524,-3.1368,-3.2056,-3.2056,-3.1732,-3.1732,-3.125,-3.0609,-3.0224,-2.9655,-2.9113,-2.9061,-2.9077,-2.8925,-2.8111,0.0,0.0,0.0,0.0,-2.5304,0.0,0.0,0.0,0.0,0.0,0.0,-2.1376,-2.0538,-1.9017,0.0,0.0,0.0,0.0,0.0,0.0,0.0,0.0,-1.7941,-2.0818,-1.9752,0.0,0.0,0.0,0.0,-2.5866,-2.7059,-2.8001,-2.866,-2.9389,-2.954,-2.912,-2.912,-2.8897,-2.8468,-2.8468,-2.8468,-2.842,-2.842,-2.8805,-2.9433,-3.0125,-3.0812,-3.1486,-3.2136,-3.2398,-3.2398,-3.2274,-3.2287,-3.2398,-1.9722,-2.0784,-2.1954,0.0,-2.1754,-2.1897,0.0,0.0,0.0,0.0,-3.1485,-3.3081,-3.4502,-3.4695,-3.4666,-3.4513,-3.4504,0.0,0.0,0.0,0.0,-3.1432,-2.9728,-2.8716,-2.8564,-2.5939,0.0,-2.3084,0.0,0.0,-1.8531,0.0,0.0,0.0,0.0,0.0,-2.2841,-2.5183,-2.7985,-3.0914,-3.1828,-3.2328,0.0,0.0,-3.2445,-3.183,-3.2074,-3.2092,-3.2039,-3.2248,-3.2231,-3.2144,-3.2144,-3.2022,-3.1673,-3.0765,-3.0724,-3.0822,-3.0031,-3.0209,-3.0446,-2.9683,-2.9093,-2.8383,0.0,0.0,0.0,0.0,0.0,0.0,0.0,0.0,0.0,-2.2141,-2.0876,-1.9541,0.0,0.0,0.0,0.0,0.0,0.0,0.0,-1.7101,-1.7845,-1.8606,-1.9321,0.0,0.0,0.0,0.0,-2.4858,-2.6435,-2.7632,-2.8388,-2.8807,-2.9194,-2.9617,-2.9617,-2.9566,-2.9432,-2.9432,-2.925,-2.8904,-2.8904,-2.9114,-2.9433,-3.0125,-3.0812,-3.1486,-3.2136,-3.2398,-3.2398,-3.237,-3.237,-3.2398,-2.1751,0.0,0.0,-2.5616,0.0,0.0,-2.6957,0.0,0.0,-3.1127,-3.2932,0.0,-3.4995,-3.586,-3.6218,-3.5795,-3.59,0.0,0.0,0.0,0.0,-3.3245,-3.18,-3.0852,-3.0526,-2.7855,0.0,-2.4697,0.0,0.0,-1.9156,0.0,0.0,0.0,0.0,-2.0998,0.0,-2.6252,-2.9149,-3.1295,-3.2456,0.0,0.0,-3.3294,-3.3157,-3.2923,-3.2876,-3.2651,-3.2402,-3.2716,-3.2684,-3.2518,-3.2518,-3.2518,-3.2363,-3.1568,-3.1637,-3.1827,-3.1231,-3.1366,-3.1589,-3.1176,-3.0746,-3.0108,-2.8835,-2.8544,-2.8305,0.0,0.0,0.0,0.0,0.0,0.0,-2.2003,-2.0792,0.0,0.0,0.0,0.0,0.0,0.0,0.0,0.0,-1.6644,-1.7456,-1.7783,-1.8577,0.0,0.0,0.0,0.0,-2.4474,-2.6084,-2.7467,-2.8605,-2.9072,-2.958,-3.0118,-3.0118,-2.9989,-2.9793,-2.9793,-2.9677,-2.9416,-2.9416,-2.9655,-3.0124,-3.0777,-3.1318,-3.1773,-3.223,-3.2398,-3.2398,-3.2398,-3.2398,-3.2398,0.0,0.0,0.0,0.0,0.0,0.0,0.0,-3.0155,0.0,-3.2048,0.0,-3.4853,-3.4711,-3.6216,-3.723,-3.7163,0.0,-3.6569,-3.5071,-3.5657,-3.5405,-3.3936,-3.3736,-3.3283,-3.2474,-2.9838,0.0,0.0,0.0,-2.0182,-1.9026,-1.7625,0.0,0.0,0.0,0.0,0.0,-2.7609,-3.0339,0.0,-3.2976,-3.3633,-3.3601,-3.3615,-3.3633,-3.3601,-3.3615,-3.3172,-3.2651,-3.3298,-3.325,-3.289,-3.289,-3.289,-3.2827,-3.2502,-3.2384,-3.2384,-3.2351,-3.2334,-3.2334,-3.2334,-3.2334,-3.1915,-3.0264,-2.9885,-2.9644,-2.8768,-2.7365,-2.6697,0.0,0.0,0.0,0.0,0.0,0.0,0.0,0.0,0.0,0.0,0.0,0.0,0.0,0.0,-1.7027,-1.7479,0.0,0.0,0.0,0.0,0.0,0.0,-2.5845,0.0,-2.8976,0.0,-3.0171,-3.058,-3.058,-3.0372,-2.9968,-2.9968,-2.9946,-2.9881,-2.9881,-3.0265,-3.094,-3.163,-3.212,-3.2443,-3.2542,-3.2602,-3.2602,-3.2602,-3.2574,-3.2492,0.0,0.0,0.0,0.0,0.0,-3.2729,-3.3919,-3.4509,-3.5149,-3.601,-3.7656,0.0,-3.8402,-3.8771,-3.8782,-3.8117,-3.8214,0.0,0.0,0.0,0.0,-3.6936,-3.6074,-3.5229,-3.4425,-3.1779,-2.9167,0.0,-2.4072,-2.124,-1.8287,-1.7994,-1.753,0.0,0.0,0.0,-2.5774,-2.8148,0.0,-3.1506,-3.3106,-3.3739,-3.3684,-3.3739,-3.3726,-3.3684,-3.3753,-3.3597,-3.3397,-3.353,-3.353,-3.3473,-3.3473,-3.3473,-3.3397,-3.3065,-3.2972,-3.2892,-3.2568,-3.2451,-3.2451,-3.2451,-3.2451,-3.238,-3.2049,-3.1978,-3.1926,-3.1753,-3.0486,-2.9323,-2.8999,0.0,0.0,0.0,0.0,0.0,0.0,0.0,0.0,0.0,0.0,0.0,0.0,0.0,-1.7168,0.0,0.0,0.0,0.0,0.0,0.0,0.0,0.0,0.0,0.0,0.0,0.0,-3.1092,-3.1092,-3.1035,-3.0955,-3.0955,-3.074,-3.0393,-3.0393,-3.0533,-3.0865,-3.1607,-3.2628,-3.3682,-3.371,-3.3716,-3.3716,-3.3716,-3.3433,-3.3002,0.0,0.0,0.0,0.0,0.0,0.0,0.0,-3.7462,0.0,-3.7286,-3.8041,-3.8515,-3.8282,-3.9247,-3.9751,-3.9364,-3.9428,-3.9317,-3.8937,-3.8565,-3.8362,-3.8362,-3.746,0.0,-3.5081,-3.2861,-3.0404,-2.7678,-2.431,-2.1524,-1.9337,-1.8489,-1.7884,-1.7646,0.0,-2.3717,0.0,0.0,0.0,-3.2137,-3.333,-3.378,-3.3766,-3.3793,-3.378,-3.3766,-3.3793,-3.3766,-3.3698,-3.3657,-3.3633,-3.3605,-3.3605,-3.3605,-3.3577,-3.3415,-3.3353,-3.3324,-3.3124,-3.3078,-3.3078,-3.3078,-3.3078,-3.3032,-3.2842,-3.2811,-3.2763,-3.2617,-3.1359,-2.9778,-2.8241,-2.6543,0.0,0.0,0.0,0.0,0.0,0.0,0.0,0.0,0.0,0.0,0.0,0.0,0.0,0.0,0.0,0.0,0.0,0.0,0.0,0.0,0.0,0.0,0.0,0.0,0.0,-3.119,-3.119,-3.119,-3.119,-3.119,-3.1092,-3.0858,-3.0858,-3.1354,-3.2216,-3.3057,-3.3792,-3.4382,-3.4111,-3.4011,-3.4011,-3.4011,-3.3843,-3.3537,0.0,-3.2947,0.0,0.0,-3.6184,0.0,0.0,-3.9718,-4.0139,-3.8183,-3.808,-3.8109,-3.7945,-3.9357,-4.0301,-4.0301,-4.0301,-4.0301,-4.0301,-3.9661,-3.9279,-3.9279,-3.8438,-3.7368,-3.605,-3.408,-3.1739,0.0,0.0,0.0,-2.0804,-1.9305,-1.8805,-1.9263,0.0,0.0,0.0,0.0,-3.1237,-3.2674,-3.3476,-3.3807,-3.3807,-3.3807,-3.3807,-3.3807,-3.3807,-3.3807,-3.3775,-3.3739,-3.3684,-3.3629,-3.3629,-3.3629,-3.3629,-3.3629,-3.3629,-3.3629,-3.3629,-3.3629,-3.3629,-3.3629,-3.3629,-3.3573,-3.3306,-3.3247,-3.3133,-3.2773,-3.1401,-2.9597,-2.7388,-2.645,0.0,0.0,0.0,0.0,0.0,0.0,0.0,0.0,0.0,0.0,0.0,0.0,0.0,0.0,0.0,0.0,0.0,0.0,0.0,0.0,0.0,-2.5879,-2.8722,0.0,-2.9738,0.0,-3.119,-3.119,-3.119,-3.119,-3.119,-3.119,-3.119,-3.2036,-3.3465,-3.4369,-3.4825,-3.4927,-3.4504,-3.4333,-3.4333,-3.4333,-3.4284,-3.4111,0.0,0.0,0.0,0.0,0.0,0.0,0.0,-4.1476,-4.1944,-4.0244,-4.0043,-4.0043,-4.0015,-4.0196,-4.0301,-4.0301,-4.0301,-4.0301,-4.0301,-4.0225,-4.0186,-4.0186,-3.9336,-3.8801,-3.8648,-3.6224,-3.3666,0.0,0.0,0.0,0.0,-2.0799,-2.1098,-2.2621,0.0,0.0,0.0,-3.0595,-3.1788,-3.2674,-3.3476,-3.3807,-3.3807,-3.3807,-3.3807,-3.3807,-3.3807,-3.3807,-3.3807,-3.3775,-3.3793,-3.378,-3.378,-3.378,-3.378,-3.378,-3.378,-3.378,-3.378,-3.378,-3.378,-3.378,-3.378,-3.3762,-3.3734,-3.3734,-3.3519,-3.276,-3.1333,-2.9612,-2.7622,-2.8027,-2.7955,0.0,0.0,0.0,0.0,0.0,0.0,0.0,0.0,0.0,0.0,0.0,0.0,0.0,0.0,0.0,0.0,0.0,0.0,-2.3376,0.0,-2.5608,-2.7891,-2.8636,0.0,-3.119,-3.119,-3.119,-3.119,-3.119,-3.119,-3.119,-3.119,-3.2036,-3.3474,-3.4226,-3.493,-3.5515,-3.547,-3.5447,-3.5447,-3.5447,-3.5155,-3.4721,0.0,0.0,0.0,0.0,0.0,0.0,0.0,-4.2641,-4.2928,-4.1934,-4.1342,-4.0845,-4.0339,-4.0301,-4.0301,-4.0301,-4.0301,-4.0301,-4.0301,-4.0301,-4.0301,-4.0301,-3.9957,-3.9546,-3.9011,-3.7483,-3.5399,0.0,0.0,0.0,0.0,-2.4055,-2.4572,0.0,0.0,-2.9798,-3.171,-3.2836,-3.3992,-3.5079,-3.5412,-3.5435,-3.5293,-3.5293,-3.5293,-3.5293,-3.5293,-3.5293,-3.5293,-3.5293,-3.4633,-3.3807,-3.3807,-3.3807,-3.3807,-3.3807,-3.3807,-3.3807,-3.3807,-3.3807,-3.3807,-3.3807,-3.3807,-3.3807,-3.3807,-3.3807,-3.3568,-3.2766,-3.1317,-2.9807,-2.8547,-2.8141,-2.7906,0.0,0.0,0.0,0.0,0.0,0.0,0.0,0.0,0.0,0.0,0.0,0.0,0.0,0.0,-1.4488,-1.701,0.0,0.0,-2.2649,0.0,-2.5558,-2.779,-2.8602,-2.9738,-3.119,-3.119,-3.119,-3.119,-3.119,-3.119,-3.1241,-3.2138,-3.2865,-3.3491,-3.4675,-3.5329,-3.56,-3.56,-3.56,-3.56,-3.56,-3.547,-3.527,-4.1143,0.0,-4.0869,0.0,-4.1532,-4.1284,-4.3243,-4.3864,-4.3864,-4.3252,-4.2622,-4.1934,-4.1122,-4.1027,-4.0941,-4.0692,-4.0654,-4.0559,-4.032,-4.0301,-4.0301,-4.0301,-4.0301,0.0,-3.9412,-3.8534,-3.7038,-3.4883,-3.2454,0.0,0.0,-2.7669,0.0,0.0,-3.1384,-3.2776,-3.4168,-3.4967,-3.5878,-3.6796,-3.6796,-3.6636,-3.6408,-3.6408,-3.637,-3.6303,-3.6303,-3.6303,-3.6303,-3.6303,-3.5514,-3.4486,-3.4229,-3.399,-3.3807,-3.3807,-3.3807,-3.3807,-3.3807,-3.3807,-3.3807,-3.3807,-3.3807,-3.3807,-3.3807,-3.3807,-3.3495,-3.2467,-3.098,-2.9666,-2.9097,-2.8353,-2.7948,-2.8419,0.0,0.0,0.0,0.0,0.0,0.0,0.0,-2.3029,0.0,0.0,0.0,0.0,0.0,-1.5793,-1.7629,0.0,0.0,0.0,0.0,0.0,0.0,-2.8805,-2.9939,-3.119,-3.119,-3.119,-3.119,-3.119,-3.119,-3.1275,-3.2763,-3.3406,-3.3525,-3.4991,-3.56,-3.56,-3.56,-3.56,-3.56,-3.56,-3.56,-3.56,-4.285,-4.3156,-4.3632,-4.5176,-4.5418,-4.5371,-4.529,-4.5288,-4.4972,-4.4102,-4.3987,-4.3663,-4.287,-4.2775,-4.2412,-4.1552,-4.1495,-4.1151,-4.0339,-4.0301,-4.0301,0.0,0.0,-4.0301,-4.0282,-3.9431,-3.8553,-3.7655,0.0,0.0,-3.241,-3.1409,-3.1798,-3.3372,-3.4189,-3.5015,-3.5813,-3.663,-3.6987,-3.6994,-3.6994,-3.688,-3.6694,-3.6694,-3.6527,-3.6303,-3.6303,-3.6303,-3.6303,-3.6303,-3.6285,-3.6119,-3.5261,-3.4435,-3.3807,-3.3807,-3.3807,-3.3807,-3.3807,-3.3807,-3.3807,-3.3807,-3.3807,-3.3807,-3.3807,-3.3807,-3.3348,-3.1745,-3.0136,-2.9005,-2.9005,-2.8987,-2.8631,-2.7496,0.0,0.0,0.0,0.0,0.0,0.0,-2.2381,-2.193,-2.3968,0.0,0.0,0.0,0.0,0.0,0.0,0.0,0.0,-2.3291,-2.4831,0.0,-2.779,-2.9311,-3.0463,-3.119,-3.119,-3.119,-3.119,-3.119,-3.119,-3.1275,-3.2763,-3.3406,-3.3525,-3.4991,-3.56,-3.56,-3.56,-3.56,-3.56,-3.56,-3.56,-3.56,-4.4944,-4.504,-4.5179,-4.5571,-4.5554,-4.5484,-4.5438,-4.5438,-4.5295,-4.4935,-4.4895,-4.4781,-4.4532,-4.3482,-4.2698,0.0,-4.2393,-4.2278,0.0,-4.2011,-4.1743,-4.1132,-4.1113,-4.0864,-4.0301,-4.0034,-3.947,-3.8591,0.0,0.0,0.0,-3.469,-3.5182,-3.6339,-3.6596,-3.7195,-3.8004,-3.8251,-3.8598,-3.8972,-3.8972,-3.8825,-3.8602,-3.8602,-3.8436,-3.8201,-3.8201,-3.8091,-3.7936,-3.7936,-3.7569,-3.707,-3.678,-3.6156,-3.5385,-3.4784,-3.4619,-3.4491,-3.3954,-3.3807,-3.3807,-3.3807,-3.3807,-3.3807,-3.3807,-3.3385,-3.2687,-3.1623,-3.0558,-2.9647,-2.9097,-2.9005,-2.889,-2.8516,-2.8299,0.0,0.0,0.0,0.0,0.0,0.0,-2.346,0.0,-2.2035,0.0,0.0,0.0,0.0,0.0,0.0,0.0,0.0,-2.5157,0.0,-2.779,-2.9328,-3.048,-3.119,-3.119,-3.119,-3.119,-3.119,-3.1461,-3.2005,-3.2983,-3.3694,-3.4235,-3.5194,-3.56,-3.56,-3.56,-3.56,-3.56,-3.56,-3.56,-3.56,-4.5949,-4.5937,-4.5906,-4.5798,-4.5712,-4.5629,-4.5573,-4.5582,-4.5545,-4.5457,-4.5448,-4.5419,-4.538,-4.4441,0.0,-4.3271,-4.3252,-4.3119,-4.2813,-4.2794,-4.2565,-4.2011,-4.1991,-4.1743,-4.1246,0.0,0.0,-3.9947,-3.8642,-3.7899,-3.7738,-3.7395,-3.7756,-3.8686,-3.8686,-3.8973,-3.9489,-3.9489,-3.97,-4.0038,-4.0038,-3.9892,-3.9658,-3.9658,-3.9471,-3.9245,-3.9245,-3.9073,-3.8851,-3.8851,-3.8446,-3.7936,-3.7936,-3.7606,-3.6982,-3.583,-3.5481,-3.5298,-3.4486,-3.4252,-3.4192,-3.388,-3.3807,-3.3807,-3.3807,-3.3183,-3.2454,-3.1953,-3.0962,-3.0063,-2.9537,-2.9207,-2.9005,-2.9005,-2.8319,-2.7512,-2.6722,0.0,0.0,0.0,0.0,0.0,0.0,-2.3709,0.0,0.0,0.0,0.0,0.0,0.0,0.0,-2.4112,-2.6222,0.0,-2.8851,-2.9963,-3.0734,-3.119,-3.119,-3.119,-3.119,-3.119,-3.1616,-3.2344,-3.3085,-3.3829,-3.4556,-3.5295,-3.56,-3.56,-3.56,-3.56,-3.56,-3.56,-3.56,-3.56,-4.6012,-4.6012,0.0,0.0,-4.5919,0.0,-4.5739,-4.5715,-4.5715,-4.5708,-4.5708,-4.564,-4.5531,-4.5513,-4.5122,-4.42,0.0,0.0,0.0,-4.2966,-4.2947,-4.2889,-4.2889,-4.2851,-4.2794,-4.2001,-4.1571,-4.1514,-3.9957,-3.9574,-4.0291,-3.9479,-3.9536,-4.031,-4.031,-4.031,-4.031,-4.031,-4.031,-4.031,-4.0291,-4.0147,-3.9935,-3.9924,-3.9762,-3.9539,-3.9539,-3.9363,-3.9129,-3.9129,-3.895,-3.8719,-3.8719,-3.8719,-3.8395,-3.6835,-3.6376,-3.6193,-3.5334,-3.5059,-3.4821,-3.4082,-3.3844,-3.3807,-3.3807,-3.322,-3.2674,-3.2601,-3.1421,-3.0338,-3.0228,-2.9592,-2.9042,-2.8932,-2.8246,-2.7438,-2.6631,0.0,0.0,0.0,0.0,0.0,0.0,-2.5731,-2.6264,0.0,0.0,0.0,0.0,0.0,-2.4627,-2.6666,-2.7903,-2.921,-3.0629,-3.1071,-3.1269,-3.123,-3.121,-3.119,-3.119,-3.1241,-3.1684,-3.2412,-3.3152,-3.3897,-3.4624,-3.5312,-3.56,-3.56,-3.56,-3.56,-3.56,-3.56,-3.56,-3.56,0.0,0.0,-4.6134,-4.6061,-4.6052,-4.6011,-4.5867,-4.584,-4.5831,-4.5715,-4.5708,-4.5692,-4.566,-4.562,-4.5482,-4.5235,-4.5073,-4.4914,-4.4723,-4.4704,-4.4418,-4.3739,-4.376,-4.3483,-4.2813,-4.2651,-4.2267,-4.1645,-4.1262,-4.0821,-4.0372,-4.0161,-4.018,-4.0372,-4.0372,-4.0372,-4.0372,-4.0372,-4.0372,-4.0372,-4.0317,-4.0262,-4.0215,-4.0215,-4.0027,-3.9796,-3.9796,-3.9616,-3.9414,-3.9414,-3.9259,-3.9073,-3.9073,-3.8935,-3.8578,-3.7526,-3.7217,-3.7052,-3.6211,-3.55,-3.4949,-3.4766,-3.4252,-3.3807,-3.3807,-3.3642,-3.3348,-3.2729,-3.2289,-3.1647,-3.043,-3.0044,-2.9512,-2.8282,-2.742,-2.6594,-2.5797,-2.5521,0.0,0.0,-2.5823,-2.6245,-2.6062,-2.6392,-2.6264,0.0,0.0,0.0,0.0,-2.6926,-2.7749,-2.7967,-2.9145,-3.0205,-3.1123,-3.1794,-3.1932,-3.1564,-3.1329,-3.119,-3.1207,-3.1785,-3.2425,-3.3186,-3.3914,-3.4658,-3.5346,-3.5515,-3.56,-3.56,-3.56,-3.56,-3.56,-3.56,-3.56,-3.56,-4.6199,-4.6199,-4.6192,-4.615,-4.6146,-4.6126,-4.6061,-4.6046,-4.6005,-4.5892,-4.5904,-4.5929,-4.5886,-4.5809,-4.5754,-4.5696,-4.5475,-4.536,-4.536,-4.536,-4.513,-4.4661,-4.4671,-4.4461,-4.4001,-4.3666,-4.308,-4.2237,-4.2237,-4.2007,-4.1547,-4.1547,-4.1547,-4.1547,-4.1547,-4.1547,-4.1547,-4.1547,-4.1547,-4.1547,-4.1501,-4.1492,-4.1453,-4.1073,-4.0845,-4.0663,-4.0272,-3.9969,-3.9736,-3.9736,-3.9543,-3.9338,-3.9338,-3.924,-3.9036,-3.8549,-3.8245,-3.7878,-3.707,-3.6505,-3.5973,-3.5188,-3.4674,-3.4252,-3.388,-3.3807,-3.3678,-3.3238,-3.2858,-3.2216,-3.098,-3.0448,-2.9677,-2.8062,-2.742,-2.6869,-2.6062,-2.5952,0.0,-2.5952,-2.6649,-2.6998,-2.6649,-2.7262,-2.7365,-2.6568,0.0,0.0,-2.7603,-2.8851,-2.9424,-2.9178,-3.0374,-3.1367,-3.2123,-3.2339,-3.2317,-3.2074,-3.1841,-3.1748,-3.1765,-3.2312,-3.2983,-3.371,-3.4253,-3.4928,-3.56,-3.56,-3.56,-3.56,-3.56,-3.56,-3.56,-3.56,-3.56,-3.56,-4.6213,-4.6213,-4.6213,-4.6206,-4.6206,-4.6203,-4.6199,-4.6199,-4.6189,-4.6119,-4.6158,-4.6165,-4.6127,-4.6063,-4.5974,-4.585,-4.56,-4.5473,-4.5455,-4.5455,-4.5446,-4.5428,-4.5438,-4.5428,-4.541,-4.4739,-4.3981,-4.3107,-4.3107,-4.305,-4.2935,-4.2935,-4.2935,-4.2935,-4.2935,-4.2935,-4.2935,-4.2935,-4.2935,-4.2935,-4.2926,-4.2926,-4.2849,-4.215,-4.1872,-4.1777,-4.1039,-4.0634,-4.0424,-4.031,-4.0049,-3.9757,-3.9632,-3.9566,-3.9532,-3.9532,-3.9205,-3.8685,-3.7989,-3.7683,-3.7208,-3.5703,-3.5215,-3.4912,-3.4265,-3.3981,-3.3868,-3.3855,-3.3283,-3.254,-3.1733,-3.0925,-2.9806,-2.8092,-2.7798,-2.7475,-2.6557,0.0,-2.6833,-2.695,-2.7677,-2.7934,-2.7383,-2.8565,-2.909,-2.8393,-2.898,-2.9647,0.0,-3.0503,-3.0552,-3.0478,-3.152,-3.2434,-3.3169,-3.2795,-3.2583,-3.2583,-3.2468,-3.2419,-3.242,-3.2944,-3.3519,-3.4135,-3.4651,-3.5188,-3.5711,-3.5711,-3.565,-3.56,-3.56,-3.56,-3.56,-3.56,-3.56,-3.56,-4.6271,-4.6271,-4.6267,-4.6206,-4.6201,-4.6192,-4.6203,-4.6199,-4.6189,-4.6119,-4.6119,-4.6138,-4.6177,-4.6177,-4.6111,-4.5983,-4.5883,-4.5808,-4.5731,-4.5751,-4.5689,-4.5571,-4.5623,-4.5577,-4.541,-4.5332,-4.4889,-4.4088,-4.4088,-4.3722,-4.3069,-4.3069,-4.3069,-4.3069,-4.3069,-4.3069,-4.3069,-4.3069,-4.3069,-4.306,-4.3015,-4.2979,-4.296,-4.2781,-4.2706,-4.2706,-4.2572,-4.2496,-4.2354,-4.1683,-4.1285,-4.0974,-4.0241,-3.9848,-3.9683,-3.9683,-3.9571,-3.9414,-3.9227,-3.8568,-3.7752,-3.7039,-3.6192,-3.5515,-3.5563,-3.4815,-3.4141,-3.413,-3.3867,-3.3366,-3.2559,-3.1751,-3.0448,-2.8165,-2.7798,-2.7284,-2.5797,0.0,-2.786,-2.8546,-2.9335,-3.0044,-3.0595,-3.0883,-3.0993,-3.0846,-3.0962,-3.1085,-3.1213,-3.1861,-3.2216,-3.2221,-3.2402,-3.2861,-3.3597,-3.3217,-3.3019,-3.3001,-3.265,-3.2484,-3.2537,-3.39,-3.4534,-3.467,-3.6017,-3.6438,-3.6195,-3.6195,-3.5958,-3.56,-3.56,-3.56,-3.56,-3.56,-3.56,-3.56,-4.63,-4.63,-4.6298,-4.6269,-4.6247,-4.6243,-4.625,-4.625,-4.6245,-4.6217,-4.6215,-4.6223,-4.626,-4.624,-4.6233,-4.6173,-4.6138,-4.6102,-4.6064,-4.593,-4.5838,-4.5757,-4.579,-4.5743,-4.5621,-4.5565,-4.5376,-4.4998,-4.4998,-4.4806,-4.4451,-4.4451,-4.4451,-4.4451,-4.4451,-4.4451,-4.4451,-4.4451,-4.4451,-4.4432,-4.4414,-4.4387,-4.4348,-4.3841,-4.3641,-4.3602,-4.316,-4.3007,-4.2949,-4.2584,-4.2378,-4.2115,-4.1244,-4.0874,-4.0691,-4.0214,-3.9808,-3.9529,-3.9507,-3.9164,-3.8627,-3.795,-3.7422,-3.6846,-3.6036,-3.5443,-3.4895,-3.4308,-3.4099,-3.3732,-3.2774,-3.1935,-3.0901,-2.9329,-2.8723,0.0,0.0,-2.8356,-2.9237,-2.9592,-3.0356,-3.0993,-3.136,-3.1397,-3.1397,-3.1397,-3.1397,-3.1586,-3.2027,-3.2399,-3.2803,-3.3238,-3.3256,-3.3408,-3.3753,-3.3569,-3.348,-3.3465,-3.3258,-3.3367,-3.3818,-3.4713,-3.5329,-3.5776,-3.6696,-3.698,-3.6781,-3.6781,-3.6661,-3.646,-3.6378,-3.6228,-3.6028,-3.6002,-3.5822,-3.56,-4.63,-4.63,-4.63,-4.63,-4.63,-4.63,-4.63,-4.63,-4.63,-4.63,-4.63,-4.63,-4.63,-4.63,-4.63,-4.63,-4.63,-4.63,-4.63,-4.6105,-4.5983,-4.594,-4.5915,-4.5881,-4.5815,-4.5704,-4.5654,-4.5654,-4.5612,-4.5594,-4.5594,-4.5594,-4.5594,-4.5594,-4.5594,-4.5594,-4.5594,-4.5594,-4.5594,-4.5594,-4.5594,-4.5594,-4.5537,-4.4855,-4.4605,-4.4509,-4.3893,-4.3682,-4.3643,-4.3451,-4.3338,-4.3158,-4.2313,-4.2029,-4.185,-4.0978,-4.0253,-3.9731,-3.9731,-3.9702,-3.9512,-3.8961,-3.8625,-3.8101,-3.6871,-3.6235,-3.5676,-3.4847,-3.4428,-3.3956,-3.311,-3.2248,-3.1421,-3.0613,0.0,0.0,0.0,-2.9971,-3.0558,-3.0742,-3.1292,-3.1751,-3.1947,-3.1966,-3.1966,-3.1966,-3.1966,-3.2228,-3.2839,-3.2876,-3.3151,-3.377,-3.3807,-3.3807,-3.3807,-3.3807,-3.3807,-3.3807,-3.3753,-3.4147,-3.4952,-3.5411,-3.6033,-3.6794,-3.7291,-3.7433,-3.734,-3.734,-3.7267,-3.7173,-3.7078,-3.6862,-3.658,-3.6412,-3.6135,-3.581,-4.63,-4.63,-4.63,-4.63,-4.63,-4.63,-4.63,-4.63,-4.63,-4.63,-4.63,-4.63,-4.63,-4.63,-4.63,-4.63,-4.63,-4.63,-4.63,-4.6275,-4.6214,-4.6095,-4.5973,-4.5899,-4.5889,-4.5822,-4.5786,-4.5786,-4.5651,-4.5594,-4.5594,-4.5594,-4.5594,-4.5594,-4.5594,-4.5594,-4.5594,-4.5594,-4.5594,-4.5594,-4.5594,-4.5594,-4.5594,-4.5537,-4.5498,-4.5498,-4.5441,-4.5421,-4.5287,-4.447,-4.4201,-4.4066,-4.3258,-4.3,-4.2827,-4.1953,-4.1086,-4.0432,-4.0432,-4.0243,-4.0101,-4.0296,-3.9587,-3.8868,-3.8939,-3.7555,-3.6214,-3.6074,-3.5058,-3.4183,-3.4092,-3.3222,-3.2252,-3.1452,0.0,0.0,-3.0228,-3.0797,-3.1586,-3.2326,-3.2472,-3.2803,-3.355,-3.3623,-3.3623,-3.3623,-3.3623,-3.3642,-3.3715,-3.3715,-3.3733,-3.3807,-3.3807,-3.3807,-3.3807,-3.3807,-3.3807,-3.3807,-3.3775,-3.4215,-3.5027,-3.5856,-3.6585,-3.7296,-3.8065,-3.8167,-3.7773,-3.7773,-3.7542,-3.7209,-3.7173,-3.7171,-3.7114,-3.6721,-3.656,-3.6457,-4.6303,-4.63,-4.63,-4.63,-4.63,-4.63,-4.63,-4.63,-4.63,-4.63,-4.63,-4.63,-4.63,-4.63,-4.63,-4.63,-4.63,-4.63,-4.63,-4.63,-4.6275,-4.6238,-4.6098,-4.6013,-4.6013,-4.5914,-4.5852,-4.5852,-4.5803,-4.5749,-4.5719,-4.5719,-4.5676,-4.5594,-4.5594,-4.5594,-4.5594,-4.5594,-4.5594,-4.5594,-4.5594,-4.5594,-4.5594,-4.5594,-4.5594,-4.5594,-4.5594,-4.5594,-4.5556,-4.5229,-4.5114,-4.496,-4.4105,-4.3835,-4.3682,-4.2854,-4.1992,-4.1311,-4.1311,-4.0816,-4.0316,-4.0402,-4.0119,-3.9702,-3.9243,-3.8578,-3.7834,-3.7138,-3.6207,-3.545,-3.5273,-3.3971,-3.2954,-3.3104,0.0,-3.152,-3.1678,-3.194,-3.2265,-3.2564,-3.3041,-3.3458,-3.377,-3.3807,-3.3807,-3.3807,-3.3807,-3.3807,-3.3807,-3.3807,-3.3807,-3.3807,-3.3807,-3.3807,-3.3807,-3.3807,-3.3807,-3.3807,-3.4307,-3.4986,-3.5844,-3.667,-3.7463,-3.8187,-3.8496,-3.8512,-3.8368,-3.8368,-3.8269,-3.8118,-3.8032,-3.786,-3.7614,-3.7433,-3.719,-3.6921,-4.6279,-4.6288,-4.6284,-4.6274,-4.6288,-4.63,-4.63,-4.63,-4.63,-4.63,-4.63,-4.63,-4.63,-4.63,-4.63,-4.63,-4.63,-4.63,-4.63,-4.63,-4.63,-4.63,-4.6211,-4.615,-4.615,-4.6037,-4.5954,-4.5954,-4.592,-4.5881,-4.5835,-4.5835,-4.5773,-4.566,-4.566,-4.5646,-4.5594,-4.5594,-4.5594,-4.5594,-4.5594,-4.5594,-4.5594,-4.5594,-4.5594,-4.5594,-4.5594,-4.5594,-4.5594,-4.5594,-4.5594,-4.5498,-4.4893,-4.4509,-4.4182,-4.3643,-4.2874,-4.2162,-4.1865,-4.1325,-4.0775,-4.0496,-4.0438,-4.0266,-3.9671,-3.9344,-3.8947,-3.8197,-3.7335,-3.6653,-3.6443,-3.5057,-3.4142,-3.4641,-3.3477,-3.2681,-3.3197,-3.3259,-3.3247,-3.3235,-3.3716,-3.4037,-3.4012,-3.3954,-3.3921,-3.3921,-3.386,-3.3807,-3.3807,-3.3807,-3.3807,-3.3807,-3.3807,-3.3807,-3.3807,-3.3807,-3.3807,-3.3807,-3.4619,-3.5463,-3.6321,-3.7125,-3.7951,-3.8707,-3.8707,-3.8707,-3.8707,-3.8707,-3.8707,-3.8692,-3.8609,-3.838,-3.8133,-3.7947,-3.7721,-3.7433,-4.6191,-4.6242,-4.6272,-4.621,-4.6261,-4.6302,-4.6302,-4.6302,-4.6302,-4.6302,-4.63,-4.63,-4.63,-4.63,-4.63,-4.63,-4.63,-4.63,-4.63,-4.63,-4.63,-4.63,-4.63,-4.63,-4.63,-4.6176,-4.6102,-4.6102,-4.5973,-4.5905,-4.5905,-4.5905,-4.5877,-4.5807,-4.5807,-4.5739,-4.5594,-4.5594,-4.5594,-4.5594,-4.5594,-4.5594,-4.5594,-4.5594,-4.5594,-4.5594,-4.5594,-4.5594,-4.5594,-4.5594,-4.5594,-4.5594,-4.5594,-4.5017,-4.4316,-4.4316,-4.3739,-4.2912,-4.2038,-4.1808,-4.1585,-4.0727,-4.0496,-4.0496,-4.0496,-3.9881,-3.9288,-3.9219,-3.8353,-3.7583,-3.7537,-3.6633,-3.5914,-3.5914,-3.5233,-3.4713,-3.4713,-3.4713,-3.4674,-3.4622,-3.4593,-3.4572,-3.4508,-3.4314,-3.4209,-3.4209,-3.3959,-3.382,-3.382,-3.3788,-3.3788,-3.3788,-3.3807,-3.3807,-3.3807,-3.3807,-3.3807,-3.3825,-3.4619,-3.5463,-3.634,-3.7144,-3.7936,-3.8707,-3.8707,-3.8707,-3.8707,-3.8707,-3.8707,-3.8707,-3.8707,-3.8707,-3.8643,-3.8252,-3.8101,-3.8051,-4.6209,-4.6225,-4.621,-4.6208,-4.6211,-4.6229,-4.623,-4.623,-4.6247,-4.6283,-4.6291,-4.63,-4.63,-4.63,-4.63,-4.63,-4.63,-4.63,-4.63,-4.63,-4.63,-4.63,-4.63,-4.63,-4.63,-4.6269,-4.6243,-4.6243,-4.6206,-4.6138,-4.6045,-4.6045,-4.5978,-4.5869,-4.5869,-4.5816,-4.5734,-4.5734,-4.5692,-4.5594,-4.5594,-4.5594,-4.5594,-4.5594,-4.5594,-4.5594,-4.5594,-4.5594,-4.5594,-4.5594,-4.5594,-4.5594,-4.5594,-4.5421,-4.521,-4.521,-4.4605,-4.3893,-4.3624,-4.2701,-4.1585,-4.0727,-4.0496,-4.0496,-4.0496,-4.0304,-4.0142,-4.0115,-3.9404,-3.8788,-3.878,-3.7891,-3.7147,-3.7091,-3.6776,-3.6287,-3.5631,-3.5545,-3.5327,-3.4749,-3.4674,-3.4663,-3.4643,-3.458,-3.4526,-3.4483,-3.4364,-3.4295,-3.4295,-3.4166,-3.4086,-3.4086,-3.3895,-3.4082,-3.4637,-3.4082,-3.4082,-3.4656,-3.5514,-3.634,-3.718,-3.7973,-3.8469,-3.8707,-3.8707,-3.8707,-3.8707,-3.8707,-3.8707,-3.8707,-3.8707,-3.8707,-3.8692,-3.858,-3.8515,-3.8449,-4.6203,-4.6195,-4.6194,-4.6194,-4.6202,-4.6206,-4.6204,-4.6205,-4.6208,-4.6269,-4.6268,-4.6265,-4.6265,-4.6279,-4.6295,-4.6295,-4.6306,-4.63,-4.63,-4.63,-4.63,-4.63,-4.63,-4.63,-4.63,-4.63,-4.63,-4.63,-4.63,-4.6251,-4.6187,-4.6187,-4.6118,-4.597,-4.597,-4.593,-4.5847,-4.5847,-4.5796,-4.5711,-4.5688,-4.5676,-4.5668,-4.562,-4.5594,-4.5594,-4.5594,-4.5594,-4.5594,-4.5594,-4.5594,-4.5594,-4.5594,-4.5594,-4.5594,-4.5594,-4.5229,-4.4739,-4.4393,-4.3566,-4.2585,-4.1739,-4.1016,-4.0496,-4.0496,-4.0496,-4.0496,-4.0496,-4.0112,-3.9765,-3.9765,-3.8977,-3.8328,-3.8284,-3.7884,-3.7384,-3.6814,-3.6728,-3.6548,-3.6026,-3.5674,-3.5475,-3.5457,-3.5078,-3.4774,-3.4653,-3.4593,-3.4712,-3.4991,-3.4896,-3.4983,-3.5289,-3.5069,-3.5172,-3.5675,-3.5087,-3.5037,-3.5518,-3.6376,-3.7033,-3.7529,-3.8322,-3.8707,-3.8707,-3.8707,-3.8707,-3.8707,-3.8707,-3.8707,-3.8707,-3.8707,-3.8707,-3.8707,-3.8707,-3.8707,-3.8676,-4.6199,-4.6195,-4.6201,-4.6201,-4.6191,-4.6204,-4.6198,-4.6191,-4.6207,-4.6201,-4.6203,-4.6204,-4.6204,-4.625,-4.6288,-4.6288,-4.6297,-4.6305,-4.6302,-4.6302,-4.6303,-4.6303,-4.6303,-4.6303,-4.6303,-4.6302,-4.6302,-4.6302,-4.6303,-4.6306,-4.6294,-4.6294,-4.6223,-4.6116,-4.6116,-4.6037,-4.592,-4.592,-4.5901,-4.588,-4.5828,-4.5815,-4.5801,-4.5676,-4.5629,-4.5629,-4.5612,-4.5603,-4.5603,-4.5603,-4.5603,-4.5622,-4.5622,-4.5594,-4.5594,-4.5594,-4.5594,-4.5441,-4.4624,-4.4355,-4.4124,-4.3393,-4.195,-4.0708,-4.0631,-4.0554,-4.0496,-4.0496,-4.0496,-4.0496,-4.0496,-3.99,-3.9419,-3.9419,-3.8738,-3.82,-3.8123,-3.8123,-3.805,-3.7924,-3.7264,-3.6788,-3.6731,-3.584,-3.5181,-3.5001,-3.4981,-3.5282,-3.5958,-3.5956,-3.6293,-3.7013,-3.6851,-3.6776,-3.6851,-3.6611,-3.6448,-3.6413,-3.7144,-3.7547,-3.7639,-3.8377,-3.8707,-3.8707,-3.8707,-3.8707,-3.8707,-3.8707,-3.8707,-3.8707,-3.8707,-3.8707,-3.8707,-3.8707,-3.8707,-3.8707,-4.6199,-4.6206,-4.6196,-4.6196,-4.62,-4.6203,-4.6192,-4.6197,-4.6193,-4.6197,-4.6195,-4.6204,-4.6204,-4.6206,-4.6227,-4.6227,-4.6269,-4.6305,-4.6291,-4.6295,-4.6299,-4.6299,-4.6299,-4.6299,-4.6299,-4.6294,-4.6291,-4.6291,-4.6296,-4.6299,-4.63,-4.63,-4.6279,-4.6255,-4.6255,-4.6177,-4.6066,-4.6066,-4.599,-4.59,-4.5881,-4.5872,-4.5881,-4.5796,-4.5764,-4.575,-4.5704,-4.5676,-4.5676,-4.5676,-4.5679,-4.5684,-4.5684,-4.564,-4.5594,-4.5594,-4.5594,-4.5556,-4.5364,-4.4816,-4.4259,-4.4085,-4.3278,-4.2354,-4.1681,-4.0989,-4.0496,-4.0496,-4.0496,-4.0496,-4.0496,-4.0362,-4.0246,-4.0246,-4.0073,-3.9746,-3.9111,-3.9015,-3.8757,-3.8058,-3.782,-3.7704,-3.7697,-3.7444,-3.7255,-3.7204,-3.7209,-3.7288,-3.7443,-3.7252,-3.7205,-3.7395,-3.7211,-3.7378,-3.7948,-3.7889,-3.7651,-3.7235,-3.7419,-3.7841,-3.845,-3.8615,-3.8707,-3.8707,-3.8707,-3.8707,-3.8707,-3.8707,-3.8707,-3.8707,-3.8707,-3.8707,-3.8707,-3.8707,-3.8707,-3.8707,-4.6098,-4.6098,-4.6098,-4.6098,-4.6098,-4.6098,-4.6098,-4.6107,-4.6091,-4.6091,-4.6096,-4.6092,-4.6092,-4.6092,-4.613,-4.6144,-4.6173,-4.6201,-4.6208,-4.623,-4.625,-4.625,-4.6286,-4.6301,-4.6301,-4.6301,-4.6301,-4.6297,-4.6301,-4.6302,-4.6305,-4.6305,-4.6305,-4.6307,-4.6307,-4.6262,-4.6207,-4.6207,-4.6154,-4.6084,-4.6014,-4.6001,-4.5971,-4.5881,-4.5861,-4.5831,-4.5807,-4.5757,-4.5747,-4.5712,-4.5692,-4.5695,-4.5695,-4.5679,-4.5654,-4.5654,-4.5654,-4.5654,-4.5654,-4.5307,-4.4961,-4.4961,-4.4347,-4.3495,-4.2624,-4.1758,-4.1123,-4.1123,-4.0785,-4.0496,-4.0496,-4.0496,-4.0496,-4.0496,-4.0496,-4.0342,-3.9938,-3.9881,-3.9708,-3.9238,-3.8854,-3.845,-3.8046,-3.7973,-3.7959,-3.7959,-3.7943,-3.8113,-3.8492,-3.8399,-3.8492,-3.8867,-3.867,-3.8709,-3.9102,-3.8992,-3.8782,-3.8489,-3.8459,-3.8609,-3.8896,-3.8896,-3.8807,-3.8707,-3.8707,-3.8707,-3.8707,-3.8707,-3.8707,-3.8707,-3.8707,-3.8707,-3.8707,-3.8707,-3.8707,-3.8707,-4.6002,-4.6002,-4.6002,-4.6002,-4.6002,-4.6002,-4.6002,-4.6002,-4.6002,-4.6002,-4.6002,-4.6002,-4.6002,-4.5998,-4.6022,-4.6075,-4.6075,-4.6098,-4.6106,-4.6142,-4.6175,-4.6175,-4.6249,-4.6287,-4.6287,-4.6288,-4.6306,-4.6303,-4.6303,-4.6305,-4.6307,-4.6307,-4.6308,-4.6308,-4.6308,-4.6308,-4.6307,-4.6307,-4.6306,-4.6283,-4.6183,-4.6128,-4.6123,-4.6004,-4.5955,-4.5952,-4.5935,-4.5901,-4.5838,-4.5761,-4.5742,-4.5734,-4.5723,-4.5715,-4.5708,-4.5708,-4.5708,-4.5708,-4.5708,-4.5708,-4.5708,-4.5708,-4.5155,-4.4429,-4.3715,-4.2747,-4.2019,-4.2019,-4.1335,-4.0727,-4.0727,-4.0593,-4.0496,-4.0496,-4.0496,-4.0496,-4.0496,-4.0496,-4.0496,-4.0496,-3.9919,-3.9227,-3.8507,-3.843,-3.843,-3.843,-3.843,-3.8723,-3.9396,-3.9415,-3.9725,-4.0394,-4.0195,-4.0091,-4.0101,-3.9861,-3.9754,-3.9742,-3.9679,-3.9483,-3.9178,-3.9165,-3.9017,-3.8765,-3.8765,-3.8735,-3.8707,-3.8707,-3.8707,-3.8707,-3.8707,-3.8707,-3.8707,-3.8707,-3.8707,-3.8707,-4.6002,-4.6002,-4.6002,-4.6002,-4.6002,-4.6002,-4.6002,-4.6002,-4.6002,-4.6002,-4.6002,-4.6002,-4.6002,-4.5993,-4.6008,-4.6018,-4.6006,-4.6041,-4.6108,-4.6105,-4.6102,-4.6102,-4.6173,-4.6213,-4.6213,-4.6268,-4.6308,-4.6306,-4.6308,-4.6308,-4.6308,-4.6308,-4.6308,-4.6308,-4.6308,-4.6308,-4.6308,-4.6308,-4.6308,-4.6308,-4.6288,-4.6268,-4.6267,-4.6186,-4.6152,-4.6145,-4.6096,-4.6064,-4.6045,-4.5982,-4.5927,-4.5866,-4.5805,-4.5758,-4.5708,-4.5708,-4.5708,-4.5708,-4.5708,-4.5708,-4.5708,-4.5708,-4.5603,-4.548,-4.5383,-4.4086,-4.2912,-4.2912,-4.2239,-4.1623,-4.1623,-4.1008,-4.0496,-4.0496,-4.0496,-4.0496,-4.0496,-4.0496,-4.0496,-4.0496,-4.04,-4.0285,-4.0169,-4.0169,-4.0169,-4.0169,-4.0169,-4.02,-4.0315,-4.0315,-4.0365,-4.0481,-4.0457,-4.0425,-4.0422,-4.0396,-4.0342,-4.0289,-4.028,-3.9991,-3.9451,-3.9458,-3.9298,-3.9045,-3.9045,-3.8906,-3.8707,-3.8707,-3.8707,-3.8707,-3.8707,-3.8707,-3.8707,-3.8707,-3.8707,-3.8707,-4.5899,-4.5899,-4.5899,-4.5899,-4.5899,-4.5899,-4.5899,-4.5899,-4.5899,-4.5899,-4.5899,-4.5899,-4.5899,-4.5899,-4.5898,-4.59,-4.5889,-4.59,-4.5938,-4.6003,-4.605,-4.605,-4.6109,-4.6142,-4.6142,-4.6167,-4.6199,-4.6183,-4.6267,-4.6308,-4.6308,-4.6308,-4.6308,-4.6308,-4.6308,-4.6308,-4.6308,-4.6308,-4.6308,-4.6308,-4.6308,-4.6308,-4.6308,-4.6267,-4.6264,-4.6242,-4.6171,-4.6153,-4.6145,-4.6076,-4.6039,-4.6002,-4.5978,-4.5952,-4.5911,-4.588,-4.588,-4.5841,-4.5778,-4.5757,-4.5757,-4.5757,-4.5754,-4.5758,-4.5758,-4.5133,-4.4418,-4.3975,-4.3161,-4.2521,-4.2521,-4.1813,-4.1239,-4.1239,-4.0823,-4.0496,-4.0496,-4.0496,-4.0496,-4.0496,-4.0496,-4.0496,-4.0496,-4.0496,-4.0496,-4.0496,-4.0496,-4.0496,-4.0496,-4.0496,-4.0496,-4.0496,-4.0496,-4.0508,-4.0503,-4.0503,-4.0495,-4.0452,-4.0466,-4.0224,-3.9775,-3.9772,-3.9531,-3.9095,-3.9095,-3.8956,-3.8707,-3.8707,-3.8707,-3.8707,-3.8707,-3.8707,-3.8707,-3.8707,-3.8707,-3.8707]},{"header":{"parameterUnit":"m.s-1","parameterCategory":1,"la1":30.6,"la2":28.766,"lo1":-90.7593,"lo2":-88.6598,"dy":0.0162,"dx":0.0183,"nx":116,"ny":114,"refTime":"2024-07-02T12:00:00:Z","depth":0,"parameterNumber":3,"parameterNumberName":"V-component_of_WINDS"},"data":[0.0,0.0,0.0,0.0,0.0,0.0,0.0,0.0,0.0,0.0,0.0,0.0,0.0,0.0,0.0,0.0,0.0,0.0,0.0,0.0,0.0,0.0,0.0,0.0,0.0,0.0,0.0,0.0,0.0,0.0,0.0,0.0,0.0,0.0,0.0,0.0,0.0,0.0,0.0,0.0,0.0,0.0,0.0,0.0,0.0,0.0,0.0,0.0,0.0,0.0,0.0,0.0,0.0,0.0,0.0,0.0,0.0,0.0,0.0,0.0,0.0,0.0,0.0,0.0,0.0,0.0,0.0,0.0,0.0,0.0,0.0,0.0,0.0,0.0,0.0,0.0,0.0,0.0,0.0,0.0,0.0,0.0,0.0,0.0,0.0,0.0,0.0,0.0,0.0,0.0,0.0,0.0,0.0,0.0,0.0,0.0,0.0,0.0,0.0,0.0,0.0,0.0,0.0,0.0,0.0,0.0,0.0,0.0,0.0,0.0,0.0,0.0,0.0,0.0,0.0,0.0,0.0,0.0,0.0,0.0,0.0,0.0,0.0,0.0,0.0,0.0,0.0,0.0,0.0,0.0,0.0,0.0,0.0,0.0,0.0,0.0,0.0,0.0,0.0,0.0,0.0,0.0,0.0,0.0,0.0,0.0,0.0,0.0,0.0,0.0,0.0,0.0,0.0,0.0,0.0,0.0,0.0,0.0,0.0,0.0,0.0,0.0,0.0,0.0,0.0,0.0,0.0,0.0,0.0,0.0,0.0,0.0,0.0,0.0,0.0,0.0,0.0,0.0,0.0,0.0,0.0,0.0,0.0,0.0,0.0,0.0,0.0,0.0,0.0,0.0,0.0,0.0,0.0,0.0,0.0,0.0,0.0,0.0,0.0,0.0,0.0,0.0,0.0,0.0,0.0,0.0,0.0,0.0,0.0,0.0,0.0,0.0,0.0,0.0,0.0,0.0,0.0,0.0,0.0,0.0,0.0,0.0,0.0,0.0,0.0,0.0,0.0,0.0,0.0,0.0,0.0,0.0,0.0,0.0,0.0,0.0,0.0,0.0,0.0,0.0,0.0,0.0,0.0,0.0,0.0,0.0,0.0,0.0,0.0,0.0,0.0,0.0,0.0,0.0,0.0,0.0,0.0,0.0,0.0,0.0,0.0,0.0,0.0,0.0,0.0,0.0,0.0,0.0,0.0,0.0,0.0,0.0,0.0,0.0,0.0,0.0,0.0,0.0,0.0,0.0,0.0,0.0,0.0,0.0,0.0,0.0,0.0,0.0,0.0,0.0,0.0,0.0,0.0,0.0,0.0,0.0,0.0,0.0,0.0,0.0,0.0,0.0,0.0,0.0,0.0,0.0,0.0,0.0,0.0,0.0,0.0,0.0,0.0,0.0,0.0,0.0,0.0,0.0,0.0,0.0,0.0,0.0,0.0,0.0,0.0,0.0,0.0,0.0,0.0,0.0,0.0,0.0,0.0,0.0,0.0,0.0,0.0,0.0,0.0,0.0,0.0,0.0,0.0,0.0,0.0,0.0,0.0,0.0,0.0,0.0,0.0,0.0,0.0,0.0,0.0,0.0,0.0,0.0,0.0,0.0,0.0,0.0,0.0,0.0,0.0,0.0,0.0,0.0,0.0,0.0,0.0,0.0,0.0,0.0,0.0,0.0,0.0,0.0,0.0,0.0,0.0,0.0,0.0,0.0,0.0,0.0,0.0,0.0,0.0,0.0,0.0,0.0,0.0,0.0,0.0,0.0,0.0,0.0,0.0,0.0,0.0,0.0,0.0,0.0,0.0,0.0,0.0,0.0,0.0,0.0,0.0,0.0,0.0,0.0,0.0,0.0,0.0,0.0,0.0,0.0,0.0,0.0,0.0,0.0,0.0,0.0,0.0,0.0,0.0,0.0,0.0,0.0,0.0,0.0,0.0,0.0,0.0,0.0,0.0,0.0,0.0,0.0,0.0,0.0,0.0,0.0,0.0,0.0,0.0,0.0,0.0,0.0,0.0,0.0,0.0,0.0,0.0,0.0,0.0,0.0,0.0,0.0,0.0,0.0,0.0,0.0,0.0,0.0,0.0,0.0,0.0,0.0,0.0,0.0,0.0,0.0,0.0,0.0,0.0,0.0,0.0,0.0,0.0,0.0,0.0,0.0,0.0,0.0,0.0,0.0,0.0,0.0,0.0,0.0,0.0,0.0,0.0,0.0,0.0,0.0,0.0,0.0,0.0,0.0,0.0,0.0,0.0,0.0,0.0,0.0,0.0,0.0,0.0,0.0,0.0,0.0,0.0,0.0,0.0,0.0,0.0,0.0,0.0,0.0,0.0,0.0,0.0,0.0,0.0,0.0,0.0,0.0,0.0,0.0,0.0,0.0,0.0,0.0,0.0,0.0,0.0,0.0,0.0,0.0,0.0,0.0,0.0,0.0,0.0,0.0,0.0,0.0,0.0,0.0,0.0,0.0,0.0,0.0,0.0,0.0,0.0,0.0,0.0,0.0,0.0,0.0,0.0,0.0,0.0,0.0,0.0,0.0,0.0,0.0,0.0,0.0,0.0,0.0,0.0,0.0,0.0,0.0,0.0,0.0,0.0,0.0,0.0,0.0,0.0,0.0,0.0,0.0,0.0,0.0,0.0,0.0,0.0,0.0,0.0,0.0,0.0,0.0,0.0,0.0,0.0,0.0,0.0,0.0,0.0,0.0,0.0,0.0,0.0,0.0,0.0,0.0,0.0,0.0,0.0,0.0,0.0,0.0,0.0,0.0,0.0,0.0,0.0,0.0,0.0,0.0,0.0,0.0,0.0,0.0,0.0,0.0,0.0,0.0,0.0,0.0,0.0,0.0,0.0,0.0,0.0,0.0,0.0,0.0,0.0,0.0,0.0,0.0,0.0,0.0,0.0,0.0,0.0,0.0,0.0,0.0,0.0,0.0,0.0,0.0,0.0,0.0,0.0,0.0,0.0,0.0,0.0,0.0,0.0,0.0,0.0,0.0,0.0,0.0,0.0,0.0,0.0,0.0,0.0,0.0,0.0,0.0,0.0,0.0,0.0,0.0,0.0,0.0,0.0,0.0,0.0,0.0,0.0,0.0,0.0,0.0,0.0,0.0,0.0,0.0,0.0,0.0,0.0,0.0,0.0,0.0,0.0,0.0,0.0,0.0,0.0,0.0,0.0,0.0,0.0,0.0,0.0,0.0,0.0,0.0,0.0,0.0,0.0,0.0,0.0,0.0,0.0,0.0,0.0,0.0,0.0,0.0,0.0,0.0,0.0,0.0,0.0,0.0,0.0,0.0,0.0,0.0,0.0,0.0,0.0,0.0,0.0,0.0,0.0,0.0,0.0,0.0,0.0,0.0,0.0,0.0,0.0,0.0,0.0,0.0,0.0,0.0,0.0,0.0,0.0,0.0,0.0,0.0,0.0,0.0,0.0,0.0,0.0,0.0,0.0,0.0,0.0,0.0,0.0,0.0,0.0,0.0,0.0,0.0,0.0,0.0,0.0,0.0,0.0,0.0,0.0,0.0,0.0,0.0,0.0,0.0,0.0,0.0,0.0,0.0,0.0,0.0,0.0,0.0,0.0,0.0,0.0,0.0,0.0,0.0,0.0,0.0,0.0,0.0,0.0,0.0,0.0,0.0,0.0,0.0,0.0,0.0,0.0,0.0,0.0,0.0,0.0,0.0,0.0,0.0,0.0,0.0,0.0,0.0,0.0,0.0,0.0,0.0,0.0,0.0,0.0,0.0,0.0,0.0,0.0,0.0,0.0,0.0,0.0,0.0,0.0,0.0,0.0,0.0,0.0,0.0,0.0,0.0,0.0,0.0,0.0,0.0,0.0,0.0,0.0,0.0,0.0,0.0,0.0,0.0,0.0,0.0,0.0,0.0,0.0,0.0,0.0,0.0,0.0,0.0,0.0,0.0,0.0,0.0,0.0,0.0,0.0,0.0,0.0,0.0,0.0,0.0,0.0,0.0,0.0,0.0,0.0,0.0,0.0,0.0,0.0,0.0,0.0,0.0,0.0,0.0,0.0,0.0,0.0,0.0,0.0,0.0,0.0,0.0,0.0,0.0,0.0,0.0,0.0,0.0,0.0,0.0,0.0,0.0,0.0,0.0,0.0,0.0,0.0,0.0,0.0,0.0,0.0,0.0,0.0,0.0,0.0,0.0,0.0,0.0,0.0,0.0,0.0,0.0,0.0,0.0,0.0,0.0,0.0,0.0,0.0,0.0,0.0,0.0,0.0,0.0,0.0,0.0,0.0,0.0,0.0,0.0,0.0,0.0,0.0,0.0,0.0,0.0,0.0,0.0,0.0,0.0,0.0,0.0,0.0,0.0,0.0,0.0,0.0,0.0,0.0,0.0,0.0,0.0,0.0,0.0,0.0,0.0,0.0,0.0,0.0,0.0,0.0,0.0,0.0,0.0,0.0,0.0,0.0,0.0,0.0,0.0,0.0,0.0,0.0,0.0,0.0,0.0,0.0,0.0,0.0,0.0,0.0,0.0,0.0,0.0,0.0,0.0,0.0,0.0,0.0,0.0,0.0,0.0,0.0,0.0,0.0,0.0,0.0,0.0,0.0,0.0,0.0,0.0,0.0,0.0,0.0,0.0,0.0,0.0,0.0,0.0,0.0,0.0,0.0,0.0,0.0,0.0,0.0,0.0,0.0,0.0,0.0,0.0,0.0,0.0,0.0,0.0,0.0,0.0,0.0,0.0,0.0,0.0,0.0,0.0,0.0,0.0,0.0,0.0,0.0,0.0,0.0,0.0,0.0,0.0,0.0,0.0,0.0,0.0,0.0,0.0,0.0,0.0,0.0,0.0,0.0,0.0,0.0,0.0,0.0,0.0,0.0,0.0,0.0,0.0,0.0,0.0,0.0,0.0,0.0,0.0,0.0,0.0,0.0,0.0,0.0,0.0,0.0,0.0,0.0,0.0,0.0,0.0,0.0,0.0,0.0,0.0,0.0,0.0,0.0,0.0,0.0,0.0,0.0,0.0,0.0,0.0,0.0,0.0,0.0,0.0,0.0,0.0,0.0,0.0,0.0,0.0,0.0,0.0,0.0,0.0,0.0,0.0,0.0,0.0,0.0,0.0,0.0,0.0,0.0,0.0,0.0,0.0,0.0,0.0,0.0,0.0,0.0,0.0,0.0,0.0,0.0,0.0,0.0,0.0,0.0,0.0,0.0,0.0,0.0,0.0,0.0,0.0,0.0,0.0,0.0,0.0,0.0,0.0,0.0,0.0,0.0,0.0,0.0,0.0,0.0,0.0,0.0,0.0,0.0,0.0,0.0,0.0,0.0,0.0,0.0,0.0,0.0,0.0,0.0,0.0,0.0,0.0,0.0,0.0,0.0,0.0,0.0,0.0,0.0,0.0,0.0,0.0,0.0,0.0,0.0,0.0,0.0,0.0,0.0,0.0,0.0,0.0,0.0,0.0,0.0,0.0,0.0,0.0,0.0,0.0,0.0,0.0,0.0,0.0,0.0,0.0,0.0,0.0,0.0,0.0,0.0,0.0,0.0,0.0,0.0,0.0,0.0,0.0,0.0,0.0,0.0,0.0,0.0,0.0,0.0,0.0,0.0,0.0,0.0,0.0,0.0,0.0,0.0,0.0,0.0,0.0,0.0,0.0,0.0,0.0,0.0,0.0,0.0,0.0,0.0,0.0,0.0,0.0,0.0,0.0,0.0,0.0,0.0,0.0,0.0,0.0,0.0,0.0,0.0,0.0,0.0,0.0,0.0,0.0,0.0,0.0,0.0,0.0,0.0,0.0,0.0,0.0,0.0,0.0,0.0,0.0,0.0,0.0,0.0,0.0,0.0,0.0,0.0,0.0,0.0,0.0,0.0,0.0,0.0,0.0,0.0,0.0,0.0,0.0,0.0,0.0,0.0,0.0,0.0,0.0,0.0,0.0,0.0,0.0,0.0,0.0,0.0,0.0,0.0,0.0,0.0,0.0,0.0,0.0,0.0,0.0,0.0,0.0,0.0,0.0,0.0,0.0,0.0,0.0,0.0,0.0,0.0,0.0,0.0,0.0,0.0,0.0,0.0,0.0,0.0,0.0,0.0,0.0,0.0,0.0,0.0,0.0,0.0,0.0,-1.584,0.0,0.0,0.0,0.0,0.0,0.0,0.0,0.0,0.0,0.0,0.0,0.0,0.0,0.0,0.0,0.0,0.0,0.0,0.0,0.0,0.0,0.0,0.0,0.0,-0.7469,-0.7635,-0.7841,-0.7885,-0.7899,-0.7899,0.0,0.0,0.0,0.0,0.0,-0.7899,-0.7899,-0.8049,-0.8387,-0.8387,-0.8874,-0.9809,-0.9689,-0.9245,-0.8566,0.0,0.0,0.0,0.0,0.0,0.0,0.0,0.0,0.0,0.0,0.0,0.0,0.0,0.0,0.0,0.0,0.0,0.0,0.0,0.0,0.0,0.0,0.0,0.0,0.0,0.0,0.0,0.0,0.0,0.0,0.0,0.0,0.0,0.0,0.0,0.0,0.0,0.0,0.0,0.0,0.0,0.0,0.0,0.0,0.0,0.0,0.0,0.0,0.0,0.0,0.0,0.0,0.0,0.0,0.0,0.0,0.0,0.0,0.0,0.0,0.0,0.0,0.0,0.0,0.0,0.0,0.0,0.0,0.0,0.0,0.0,-1.7228,0.0,0.0,0.0,0.0,0.0,0.0,0.0,0.0,0.0,0.0,0.0,0.0,0.0,0.0,0.0,0.0,0.0,0.0,0.0,0.0,0.0,-0.7034,-0.7251,-0.7446,-0.7686,-0.796,-0.793,-0.7944,-0.8064,-0.7959,0.0,0.0,0.0,-0.7899,-0.7899,-0.8019,-0.8402,-0.9077,-0.9527,-1.0288,-1.1335,-1.1996,-1.1707,-1.0601,-1.0137,0.0,0.0,0.0,0.0,0.0,0.0,0.0,0.0,0.0,0.0,0.0,0.0,0.0,0.0,0.0,0.0,0.0,0.0,0.0,0.0,0.0,0.0,0.0,0.0,0.0,0.0,0.0,0.0,0.0,0.0,0.0,0.0,0.0,0.0,0.0,0.0,0.0,0.0,0.0,0.0,0.0,0.0,0.0,0.0,0.0,0.0,0.0,0.0,0.0,0.0,0.0,0.0,0.0,0.0,0.0,0.0,0.0,0.0,0.0,0.0,0.0,0.0,0.0,0.0,-2.6196,-2.5888,-2.3494,-2.2847,-2.3495,-2.2167,-2.1195,-2.0482,0.0,0.0,0.0,0.0,0.0,0.0,0.0,0.0,0.0,0.0,0.0,0.0,0.0,0.0,0.0,0.0,0.0,0.0,0.0,0.0,-0.7262,-0.7514,-0.7724,-0.8087,-0.8709,-0.8229,-0.8147,-0.8725,-0.8222,0.0,0.0,-0.7899,-0.7899,-0.7899,-0.8462,-0.9092,-0.9764,-1.2044,-1.3241,-1.3423,-1.4609,-1.5002,-1.4624,-1.229,-1.1492,-1.1777,0.0,0.0,0.0,0.0,0.0,0.0,0.0,0.0,0.0,0.0,0.0,0.0,0.0,0.0,0.0,0.0,0.0,0.0,0.0,0.0,0.0,0.0,0.0,0.0,0.0,0.0,0.0,0.0,0.0,0.0,0.0,0.0,0.0,0.0,0.0,0.0,0.0,0.0,0.0,0.0,0.0,-1.2927,-1.3604,0.0,0.0,0.0,0.0,0.0,0.0,0.0,0.0,0.0,0.0,0.0,0.0,0.0,0.0,-1.6528,-2.2944,-2.7413,-2.9896,-2.9507,-2.8665,-2.7413,-2.7041,-2.6908,-2.7041,-2.683,0.0,-2.2912,-2.1584,0.0,0.0,0.0,0.0,0.0,0.0,0.0,0.0,0.0,0.0,0.0,0.0,0.0,0.0,0.0,0.0,0.0,0.0,0.0,0.0,0.0,-0.8451,-0.9034,-0.9896,-1.0039,-0.9914,-0.9488,-0.918,-0.8686,-0.7929,-0.7899,-0.8079,-0.8447,-0.9113,-1.0333,-1.2089,-1.4322,-1.5427,-1.5442,-1.6338,-1.6707,-1.6567,-1.536,-1.4133,-1.2887,-1.1653,0.0,0.0,0.0,0.0,0.0,0.0,0.0,0.0,0.0,0.0,0.0,0.0,0.0,0.0,0.0,0.0,0.0,0.0,0.0,0.0,0.0,0.0,0.0,0.0,0.0,0.0,0.0,0.0,0.0,0.0,0.0,0.0,0.0,0.0,0.0,0.0,0.0,0.0,0.0,-1.321,-1.4751,-1.5873,-1.6251,-1.5999,0.0,0.0,0.0,0.0,0.0,0.0,0.0,0.0,0.0,-2.2573,-2.2151,-2.2653,-2.4274,-2.6769,-2.9443,-3.2262,-3.1445,-3.0733,-3.0101,-2.9292,-2.894,-2.9038,-3.0603,-3.0603,-2.9146,-2.529,-2.2393,-2.0256,0.0,0.0,0.0,0.0,0.0,-2.0353,0.0,0.0,0.0,0.0,0.0,0.0,0.0,0.0,0.0,0.0,0.0,0.0,-0.8605,-0.9251,-1.0072,-1.122,-1.145,-1.1296,0.0,0.0,-0.927,-0.8454,-0.8244,-0.8387,-0.889,-1.0213,-1.2093,-1.4544,-1.6323,-1.7219,-1.7234,-1.7843,-1.8072,-1.7983,-1.7932,-1.6676,-1.4543,-1.3385,-1.212,0.0,0.0,0.0,0.0,0.0,0.0,0.0,0.0,0.0,0.0,0.0,0.0,0.0,0.0,0.0,0.0,0.0,0.0,0.0,0.0,0.0,0.0,0.0,0.0,0.0,0.0,0.0,0.0,0.0,0.0,0.0,0.0,0.0,0.0,0.0,0.0,0.0,0.0,-1.5122,-1.6873,-1.8166,-1.9148,-1.9106,0.0,0.0,0.0,0.0,0.0,0.0,-2.2831,-2.3531,-2.4733,-2.6636,-2.6701,-2.8077,-3.095,-3.0966,-3.2035,-3.4084,-3.3048,-3.2546,-3.2498,-3.1452,-3.0966,-3.1095,-3.3178,-3.4101,-3.3712,-2.8741,-2.5438,-2.3511,-2.3511,-2.2216,-2.0368,-2.0368,-2.3511,-2.7765,0.0,0.0,0.0,0.0,0.0,0.0,0.0,0.0,0.0,0.0,0.0,-0.8223,-0.9252,-0.9998,-1.1044,-1.2568,-1.1565,-1.1361,0.0,0.0,-0.9212,-0.9779,-0.9197,-0.886,-0.8905,-1.1984,-1.4561,-1.6547,-1.7938,-1.8612,-1.8612,-1.9271,-1.9477,-1.9292,-1.9306,-1.8786,-1.7795,-1.5269,-1.4515,-1.4732,0.0,0.0,0.0,0.0,0.0,0.0,0.0,0.0,0.0,0.0,0.0,0.0,0.0,0.0,0.0,0.0,0.0,0.0,0.0,0.0,0.0,0.0,0.0,0.0,0.0,0.0,0.0,0.0,0.0,0.0,0.0,0.0,0.0,0.0,0.0,0.0,0.0,0.0,0.0,-2.0453,-2.1197,0.0,0.0,0.0,0.0,-2.2199,-2.3803,-2.5534,-2.7288,-2.7653,-2.8392,-2.9643,-2.967,-3.1047,-3.3858,-3.389,-3.3955,-3.4101,-3.4036,-3.3987,-3.3987,-3.3922,-3.389,-3.389,-3.4036,-3.4101,-3.3874,-3.0901,-2.9589,-2.9459,-2.9459,-2.9378,-2.9248,-2.9248,-3.1128,-3.3663,0.0,0.0,0.0,-0.5817,-0.6147,-0.6434,-0.6547,-0.6608,-0.6723,-0.6985,-0.7946,-0.904,0.0,-1.1578,-1.2883,-1.3989,-1.4047,-1.384,-1.3466,0.0,-1.0872,-1.1102,-1.0108,-1.0528,-1.2639,-1.4649,-1.6428,-1.7997,-1.8897,-1.9348,-1.9346,-1.9531,-1.9541,-1.9395,-1.9358,-1.913,-1.8666,-1.6924,-1.5805,-1.508,-1.315,-1.1705,0.0,0.0,0.0,0.0,0.0,0.0,0.0,0.0,0.0,0.0,0.0,0.0,0.0,0.0,0.0,0.0,0.0,0.0,0.0,0.0,0.0,0.0,0.0,0.0,0.0,0.0,0.0,0.0,0.0,0.0,0.0,0.0,0.0,0.0,0.0,0.0,0.0,-2.3338,-2.4329,0.0,0.0,-2.4912,-2.5556,-2.595,-2.6915,-2.8144,-2.9696,-2.9843,-3.053,-3.1922,-3.1517,-3.2174,-3.4084,-3.4101,-3.4101,-3.4101,-3.4101,-3.4101,-3.4101,-3.4101,-3.5104,-3.6869,-3.6869,-3.6351,-3.5445,-3.4424,-3.3453,-3.2595,-3.2595,-3.2595,-3.2595,-3.2595,-3.3226,-3.4101,-0.5098,-0.5443,0.0,-0.5763,-0.6174,-0.6491,-0.6491,-0.6582,-0.6808,-0.7268,-0.8499,-0.9825,-1.1129,-1.278,-1.4164,-1.5067,-1.5335,-1.5185,-1.4526,-1.3014,-1.2239,-1.2463,-1.167,-1.2658,-1.571,-1.6622,-1.7682,-1.9031,-1.9465,-1.9708,-1.9708,-1.9629,-1.9538,-1.9395,-1.9339,-1.9228,-1.9043,-1.8201,-1.7212,-1.6108,-1.4848,-1.3702,-1.2578,0.0,0.0,0.0,0.0,0.0,0.0,0.0,0.0,0.0,0.0,0.0,0.0,0.0,0.0,0.0,0.0,0.0,0.0,0.0,0.0,0.0,0.0,0.0,0.0,0.0,0.0,0.0,0.0,0.0,0.0,0.0,0.0,0.0,0.0,0.0,-2.3553,-2.5259,-2.6714,-2.7331,-2.6803,-2.7935,-2.8764,-2.8904,-2.9497,-3.0393,-3.1568,-3.1843,-3.2546,-3.3785,-3.3404,-3.3728,-3.4829,-3.5315,-3.5558,-3.5558,-3.5558,-3.5558,-3.5558,-3.5558,-3.6594,-3.8391,-3.8391,-3.7695,-3.6529,-3.6529,-3.5743,-3.4438,-3.3776,-3.3755,-3.4101,-3.4101,-3.4101,-3.4101,-0.5117,-0.5492,-0.5746,-0.5549,-0.6061,-0.6449,-0.6322,-0.6526,-0.6919,-0.7528,-0.9018,-1.0585,-1.2046,-1.3544,-1.4801,-1.571,-1.5214,-1.511,-1.5769,-1.394,-1.3133,-1.3797,-1.3887,-1.5112,-1.7684,-1.7728,-1.8371,-1.9708,-1.9708,-1.9708,-1.9708,-1.9629,-1.952,-1.9395,-1.9321,-1.9213,-1.9101,-1.9101,-1.8767,-1.8114,-1.6793,-1.5908,-1.5211,0.0,0.0,0.0,0.0,0.0,0.0,0.0,0.0,0.0,0.0,0.0,0.0,0.0,0.0,0.0,0.0,0.0,0.0,0.0,0.0,0.0,0.0,0.0,0.0,0.0,0.0,0.0,0.0,0.0,0.0,0.0,0.0,0.0,-2.0834,-2.3354,-2.5491,-2.6235,-2.8188,-2.9118,-2.8227,-3.0091,-3.1279,-3.1024,-3.1704,-3.2417,-3.317,-3.3809,-3.4489,-3.5211,-3.5445,-3.5791,-3.6319,-3.7711,-3.8391,-3.8391,-3.8391,-3.8391,-3.8391,-3.8391,-3.8391,-3.8391,-3.8391,-3.7873,-3.7015,-3.7015,-3.6353,-3.5168,-3.3234,-3.3176,-3.414,-3.4149,-3.4133,-3.4133,-0.5359,-0.5605,-0.581,-0.5854,-0.6221,-0.6449,-0.6322,-0.6526,-0.6975,-0.7709,-0.9424,-1.1033,-1.2221,-1.3962,-1.5257,-1.5755,-1.5634,-1.5604,-1.5784,-1.4376,-1.3825,-1.4498,-1.5875,-1.719,-1.8386,-1.8433,-1.8852,-1.9708,-1.9708,-1.9687,-1.9629,-1.952,-1.9413,-1.9321,-1.9195,-1.912,-1.9101,-1.9101,-1.8999,-1.8782,-1.7966,-1.7258,-1.653,0.0,0.0,0.0,0.0,0.0,0.0,0.0,0.0,0.0,0.0,0.0,0.0,0.0,0.0,0.0,0.0,0.0,0.0,0.0,0.0,0.0,0.0,0.0,0.0,0.0,0.0,0.0,0.0,0.0,0.0,0.0,0.0,-2.3884,-2.3884,-2.5955,-2.7942,-2.9165,-3.0307,-3.1097,-3.1389,-3.2268,-3.3016,-3.3484,-3.4014,-3.4635,-3.538,-3.559,-3.5801,-3.5995,-3.6367,-3.6643,-3.6816,-3.7857,-3.8391,-3.8391,-3.8391,-3.8391,-3.8391,-3.8391,-3.8391,-3.8391,-3.8391,-3.7975,-3.7271,-3.7271,-3.7017,-3.6472,-3.5046,-3.4691,-3.4988,-3.5068,-3.5111,-3.5014,-0.534,-0.5559,-0.5717,-0.5745,-0.6126,-0.6354,-0.6198,-0.6483,-0.7044,-0.8021,-0.9495,-1.1019,-1.249,-1.4007,-1.5051,-1.5351,-1.5649,-1.5559,-1.5005,-1.4766,-1.5185,-1.6383,-1.7519,-1.8431,-1.9091,-1.9121,-1.9301,-1.9708,-1.9708,-1.9669,-1.9593,-1.9465,-1.9505,-1.9679,-1.9579,-1.9653,-1.9899,-1.9899,-1.9899,-1.9841,-1.9246,-1.8593,-1.7896,-1.6878,-1.6111,-1.537,-1.4355,-1.4079,-1.4093,-1.3413,0.0,0.0,0.0,0.0,0.0,0.0,0.0,0.0,0.0,0.0,0.0,0.0,0.0,0.0,0.0,0.0,0.0,0.0,0.0,0.0,0.0,0.0,0.0,0.0,-2.5491,-2.7112,-2.7725,-2.8671,-2.9814,-3.1255,-3.2001,-3.2584,-3.2958,-3.3758,-3.4399,-3.4774,-3.5337,-3.5849,-3.6287,-3.6578,-3.6724,-3.6724,-3.7274,-3.761,-3.761,-3.8132,-3.8391,-3.8391,-3.8391,-3.8391,-3.8391,-3.8391,-3.8391,0.0,-3.8391,-3.8193,-3.7815,-3.7506,-3.7163,0.0,0.0,0.0,0.0,0.0,-3.5823,-3.5742,-0.5224,-0.5435,-0.5567,-0.5455,-0.592,-0.6233,-0.6025,-0.6401,-0.7136,-0.8347,-0.9328,-1.0683,-1.2681,-1.3708,-1.4378,-1.4769,-1.5335,-1.5245,-1.4201,-1.532,-1.6817,-1.8627,-1.8777,-1.9091,-1.9693,-1.9708,-1.9708,-1.9708,-1.9708,-1.9669,-1.9593,-1.9538,-1.975,-2.0196,-2.02,-2.0494,-2.1003,-2.1003,-2.1003,-2.0944,-2.0422,-1.9798,-1.9145,-1.8535,-1.794,-1.733,-1.6646,-1.6124,-1.5617,-1.4964,0.0,0.0,0.0,0.0,0.0,0.0,0.0,0.0,0.0,0.0,0.0,0.0,0.0,0.0,0.0,0.0,0.0,0.0,0.0,0.0,0.0,0.0,0.0,0.0,-2.8288,-3.0158,-3.1648,-3.1283,-3.135,-3.2663,-3.3284,-3.3623,-3.3669,-3.4725,-3.5431,-3.5464,-3.6044,-3.6448,-3.6546,0.0,0.0,0.0,0.0,-3.8391,-3.8391,-3.8391,-3.8391,-3.8391,-3.8391,-3.8391,-3.8391,-3.8391,-3.8363,-3.8278,-3.8278,-3.8205,-3.8033,-3.7401,-3.6829,-3.6229,-3.5631,-3.5473,-3.5625,-3.611,-3.6292,0.0,-0.5473,-0.5567,-0.5603,-0.5641,-0.6009,-0.6233,-0.6025,-0.6401,-0.7136,-0.8347,-0.9089,-1.0231,-1.2064,-1.2822,-1.3623,-1.471,-1.4916,-1.5321,0.0,0.0,-1.7728,-1.8672,-1.9211,-1.9573,-1.9708,-1.9708,-1.9708,-1.9708,-1.9708,-1.9669,-1.9608,-2.0015,-2.0196,-2.0211,-2.0637,-2.0886,-2.1003,-2.1003,-2.1003,-2.0988,-2.0872,-2.0465,-1.9827,-1.9174,-1.8854,-1.8651,-1.8042,-1.8056,-1.8274,-1.7647,-1.7011,-1.6461,-1.6393,0.0,0.0,0.0,0.0,0.0,0.0,0.0,0.0,0.0,0.0,0.0,0.0,0.0,0.0,0.0,0.0,0.0,0.0,0.0,0.0,-2.8506,-3.0125,-3.1681,-3.316,-3.3152,-3.3145,-3.3541,-3.3575,-3.4065,-3.5227,-3.5364,-3.5864,-3.6983,-3.7102,-3.7388,-3.797,-3.8116,0.0,-3.8197,-3.8327,-3.8391,-3.8391,-3.8391,-3.8391,-3.8391,0.0,0.0,-3.8391,-3.8391,-3.8091,-3.7594,-3.7594,-3.6966,-3.5961,-3.5834,-3.5706,-3.5563,-3.5443,-3.5431,-3.5532,-3.6097,-3.6308,-3.6301,-0.5406,-0.5454,-0.5473,-0.5539,-0.5881,-0.6117,-0.6007,-0.6401,-0.7021,-0.7926,-0.8396,-0.9258,-1.0878,-1.1438,-1.1966,-1.2651,-1.307,0.0,0.0,-1.701,-1.7803,-1.9136,-1.9528,-1.9708,-1.9708,-1.9708,-1.9708,-1.9708,-2.0034,-2.0124,-2.0008,-2.0617,-2.0969,-2.1108,-2.1372,-2.167,-2.1953,-2.1953,-2.1953,-2.191,-2.1627,-2.1119,-2.048,-1.9841,-1.9391,-1.9058,-1.8767,-1.884,-1.9058,-1.8753,-1.823,-1.7708,-1.7742,-1.639,-1.463,0.0,0.0,0.0,0.0,0.0,0.0,0.0,0.0,0.0,0.0,0.0,0.0,0.0,0.0,-2.4348,0.0,0.0,-2.9367,-3.0808,-3.1984,-3.3094,-3.4187,-3.4242,-3.4171,-3.4242,-3.4405,-3.4792,-3.5512,-3.6069,-3.6653,-3.734,-3.7674,-3.8019,-3.8375,-3.8391,-3.8391,-3.8391,-3.8391,-3.8391,-3.8391,-3.8391,-3.8391,-3.8408,-3.8062,-3.8091,-3.8363,-3.7711,-3.7401,-3.7387,-3.7057,-3.6523,-3.585,-3.5546,-3.5219,-3.4905,-3.4905,-3.5302,-3.5947,-3.6243,-3.636,-3.6402,-0.5253,-0.5291,-0.532,-0.5407,-0.5708,-0.5952,-0.5988,-0.6357,-0.6857,-0.7518,-0.7733,-0.8339,-0.9695,-1.0052,-1.0349,0.0,0.0,0.0,0.0,-1.6816,-1.7711,-1.9597,-1.9672,-1.9672,-1.9636,-1.9636,-1.9636,-1.9636,-2.0322,-2.0574,-2.042,-2.1177,-2.172,-2.2011,-2.212,-2.2432,-2.2888,-2.2888,-2.2888,-2.2859,-2.2359,-2.1699,-2.0944,-2.0465,-1.9783,-1.9101,-1.9101,-1.9029,-1.8941,-1.9058,-1.8695,-1.823,-1.8346,-1.7545,-1.6372,-1.5271,-1.4848,0.0,0.0,0.0,0.0,0.0,0.0,0.0,0.0,0.0,-2.2225,-2.3885,-2.5797,-2.7536,-2.8748,-3.0117,-3.1472,-3.2713,-3.3617,-3.4365,-3.4984,-3.4929,-3.4832,-3.4832,-3.5184,-3.544,-3.5587,-3.6642,-3.7344,-3.7489,-3.8068,-3.8391,-3.8391,-3.8391,-3.8391,-3.8391,-3.8391,-3.8335,-3.8221,-3.8335,-3.8335,-3.8221,-3.7653,-3.7682,-3.8148,-3.6951,-3.6615,-3.6966,-3.6306,-3.6009,-3.5977,-3.5432,-3.4872,-3.4414,-3.4414,-3.5055,-3.604,-3.6166,-3.6197,-3.6291,-0.5195,-0.5263,-0.5339,-0.5464,-0.5622,-0.5797,-0.597,-0.6198,-0.6641,-0.7499,-0.7576,-0.7988,-0.9166,-0.9166,-0.9723,-1.1355,0.0,0.0,-1.6562,-1.7202,-1.8138,-1.9551,-1.9611,-1.9556,-1.9431,-1.9431,-1.9431,-1.9431,-2.0114,-2.0425,-2.0435,-2.1501,-2.2038,-2.2104,-2.2592,-2.283,-2.2888,-2.2888,-2.2888,-2.2888,-2.2815,-2.2084,-2.0988,-2.0915,-2.0146,-1.9101,-1.9101,-1.8753,-1.839,-1.8927,-1.8695,-1.8303,-1.884,-1.8535,-1.7838,-1.7098,0.0,-1.6014,-1.6114,-1.6834,-1.7879,-1.9271,-1.9662,-2.0903,0.0,0.0,-2.6222,-2.8771,-2.9999,-3.0735,-3.1007,-3.218,-3.3221,-3.3617,-3.4642,-3.5481,-3.5663,-3.5463,-3.5312,-3.5312,-3.5368,-3.5636,-3.6244,-3.6891,-3.7582,-3.823,-3.8359,-3.8391,-3.8391,-3.8391,-3.8391,-3.8391,-3.8391,-3.8119,-3.7506,-3.8091,-3.8091,-3.7506,-3.7447,-3.7447,-3.7476,-3.6738,-3.6103,-3.5593,-3.4905,-3.462,-3.4635,-3.4534,-3.4481,-3.4414,-3.4414,-3.4501,-3.4687,-3.5302,-3.5514,-3.561,-0.5243,-0.5311,-0.5388,-0.5483,-0.5603,-0.5769,-0.597,-0.6171,-0.6486,-0.7007,-0.7113,-0.7319,-0.7762,-0.7842,-0.86,-1.0441,-1.1719,-1.3496,-1.6009,-1.7035,-1.8159,-1.9533,-1.9538,-1.9465,-1.9395,-1.9395,-1.9395,-1.9395,-2.046,-2.0956,-2.089,-2.2103,-2.2637,-2.2585,-2.2794,-2.2888,-2.2888,-2.2888,-2.2888,-2.2859,-2.2519,-2.183,-2.0959,-2.0611,-1.9899,-1.9101,-1.9101,-1.8724,0.0,0.0,-1.8695,-1.8317,-1.8912,-1.8695,-1.8143,-1.785,-1.7838,0.0,-1.9046,-1.952,0.0,0.0,-2.2617,-2.3915,-2.6473,-2.7249,-2.796,-2.9781,-3.1114,-3.2085,-3.2475,-3.3374,-3.4234,0.0,-3.5259,-3.5767,-3.6202,-3.578,-3.5417,-3.5417,-3.534,-3.5555,-3.6285,-3.6902,-3.7614,-3.8343,-3.8391,-3.8391,-3.8391,-3.8391,-3.8391,-3.8391,-3.8033,-3.7682,-3.7417,-3.7296,-3.7117,-3.6799,-3.643,-3.643,-3.6768,-3.5706,-3.5088,-3.482,-3.4534,-3.4414,-3.4414,-3.4414,-3.4414,-3.4414,-3.4414,-3.4414,-3.4448,-3.4721,-3.482,-3.4905,-0.5282,-0.5349,-0.5436,-0.5529,-0.5603,-0.5734,-0.5961,-0.6126,-0.6331,-0.6655,-0.6765,-0.6807,-0.6774,-0.705,-0.7915,-0.9616,-1.0684,-1.2461,-1.5307,-1.6557,-1.7806,-1.9176,-1.9325,-1.9358,-1.9321,-1.9321,-1.9321,-1.9321,-2.0485,-2.0982,-2.0916,-2.201,-2.2476,-2.2388,-2.2388,-2.2388,-2.2388,-2.2388,-2.2388,-2.2345,-2.1902,-2.1322,-2.0698,-2.0262,-1.958,-1.8854,-1.8854,-1.8448,0.0,0.0,-1.8013,-1.7722,-1.8158,-1.8129,-1.7998,-1.8361,-1.9014,-1.9846,-2.0866,0.0,0.0,-2.3566,-2.502,-2.6382,-2.744,-2.8344,-2.9329,-3.055,-3.1552,-3.2399,-3.3,-3.3559,0.0,-3.5143,-3.5593,-3.6048,-3.6751,-3.6166,-3.5649,-3.5649,-3.5214,-3.5266,-3.6222,-3.6918,-3.7614,-3.8343,-3.8391,-3.8391,-3.8391,-3.8391,-3.8307,-3.8119,-3.7653,-3.7222,-3.6845,-3.6554,-3.6322,-3.6103,-3.5642,-3.5642,-3.6072,-3.4938,-3.4414,-3.4414,-3.4414,-3.4414,-3.4414,-3.4414,-3.4414,-3.4414,-3.4414,-3.4414,-3.4414,-3.4414,-3.4414,-3.4481,-0.5282,-0.5349,-0.5465,-0.5669,-0.5595,-0.5614,-0.5954,-0.5998,-0.618,-0.6638,-0.6651,-0.6633,-0.6689,-0.7235,-0.8085,-0.9299,-1.0156,-1.1803,-1.4552,-1.5801,-1.6998,-1.8285,-1.8947,-1.9246,-1.9101,-1.9101,-1.9101,-1.9101,-1.9798,-2.0132,-2.0146,-2.077,-2.1061,-2.1061,-2.1061,-2.1061,-2.1061,-2.1061,-2.1061,-2.1061,-2.1032,-2.0669,-2.0132,-2.0117,-1.9319,-1.823,-1.823,0.0,0.0,-1.6503,-1.6285,-1.6255,-1.6285,-1.6721,0.0,-1.8709,-1.9957,0.0,0.0,0.0,-2.4132,-2.5411,-2.6678,-2.8119,-2.9961,-3.0413,-3.0802,-3.2069,-3.1863,-3.1627,-3.2314,-3.2412,-3.2828,-3.4317,-3.5528,-3.6567,-3.7357,-3.6788,-3.627,-3.627,-3.5007,-3.47,0.0,-3.6918,-3.7614,-3.8343,-3.8391,-3.8391,-3.8391,-3.8391,-3.8091,-3.7447,-3.7417,-3.6784,-3.5464,-3.6072,-3.6072,-3.5432,-3.54,-3.54,-3.54,-3.4721,-3.4414,-3.4414,-3.4414,-3.4414,-3.4414,-3.4414,-3.4414,-3.4414,-3.4414,-3.4414,-3.4414,-3.4414,-3.4414,-3.4414,-0.5282,-0.5349,-0.5417,-0.5483,-0.5576,-0.5678,-0.5778,-0.5916,-0.6108,-0.6392,-0.6569,0.0,0.0,0.0,0.0,0.0,-0.9459,-1.0832,-1.2776,-1.4486,-1.6009,-1.7375,-1.8158,-1.8731,-1.9087,-1.9101,-1.9101,-1.9101,-1.9769,-2.0103,-2.0117,-2.0712,-2.1003,-2.1003,-2.1003,-2.1003,-2.1003,-2.1003,-2.0857,-2.0578,-2.0466,-2.0102,-1.9623,-1.9498,-1.8651,-1.749,0.0,0.0,0.0,-1.6139,-1.5921,-1.5747,-1.6605,0.0,0.0,-1.9261,0.0,-2.1365,0.0,0.0,-2.556,-2.73,-2.8347,-2.9232,-3.0324,-3.0587,-3.0689,-3.1076,-3.064,-3.0373,-3.0959,-3.1004,-3.1722,-3.4066,-3.5072,-3.6167,-3.7864,-3.7447,-3.6821,-3.6367,-3.5866,0.0,0.0,0.0,0.0,-3.8311,-3.8391,-3.8391,-3.8391,-3.8391,-3.8091,-3.7417,-3.6966,-3.6306,-3.54,-3.5187,-3.4971,-3.4754,-3.4754,-3.4754,-3.4721,-3.4501,-3.4414,-3.4414,-3.4414,-3.4414,-3.4414,-3.4414,-3.4414,-3.4414,-3.4414,-3.4414,-3.4414,-3.4414,-3.4414,-3.4414,-0.5263,-0.534,-0.5446,-0.5587,-0.5659,0.0,0.0,0.0,0.0,0.0,0.0,0.0,0.0,0.0,0.0,0.0,0.0,-0.984,-1.1498,-1.3063,-1.4625,-1.6186,-1.6838,-1.7461,-1.8056,-1.7853,-1.7969,-1.8419,-1.8854,-1.9304,-1.9754,-2.0132,-2.032,-2.032,-2.0166,-2.0085,-2.0024,-1.9867,-1.9641,-1.9371,-1.9174,-1.8958,-1.8697,-1.85,-1.7635,0.0,0.0,0.0,-1.4674,-1.5081,-1.524,-1.5443,0.0,0.0,0.0,0.0,-2.1017,-2.2483,0.0,-2.5807,-2.6895,-2.8594,-2.9493,-3.0016,-3.019,-3.0234,-3.009,-2.9609,-2.8845,-2.8405,-2.8941,-2.8835,-2.9585,-3.251,-3.3683,-3.4951,-3.7042,-3.6902,-3.6513,-3.6321,-3.6091,0.0,0.0,0.0,0.0,-3.8311,-3.8391,-3.8391,-3.8391,-3.8177,-3.774,-3.7057,-3.6384,-3.5738,-3.5055,-3.4635,-3.4414,-3.4414,-3.4414,-3.4414,-3.4414,-3.4414,-3.4414,-3.4414,-3.4414,-3.4414,-3.4414,-3.4414,-3.4414,-3.4414,-3.4414,-3.4414,-3.4414,-3.4414,-3.4414,-3.4414,-0.5205,-0.5311,-0.5511,0.0,0.0,0.0,0.0,0.0,0.0,0.0,0.0,0.0,0.0,0.0,0.0,0.0,0.0,0.0,-1.0593,-1.1587,0.0,-1.4648,-1.5061,-1.5514,-1.6092,-1.5588,-1.5892,-1.7079,-1.7108,-1.7748,-1.8956,-1.8966,-1.8962,-1.8943,-1.8569,-1.8305,-1.8149,-1.7706,-1.7491,-1.7471,-1.7312,-1.7279,-1.738,-1.7165,0.0,0.0,0.0,0.0,0.0,0.0,0.0,0.0,0.0,0.0,0.0,0.0,0.0,-2.4268,-2.5575,-2.6852,-2.8101,-2.9334,-3.0103,-3.0364,-2.974,-2.9537,-2.9131,-2.7869,-2.6591,-2.5852,0.0,0.0,-2.6667,-2.9802,-3.1524,-3.3187,-3.5121,-3.5369,-3.5609,0.0,0.0,0.0,0.0,0.0,0.0,-3.8286,0.0,-3.8408,-3.8335,-3.7756,-3.7087,-3.6384,-3.5738,-3.5088,-3.4414,-3.4414,-3.4414,-3.4414,-3.4414,-3.4414,-3.4414,-3.4414,-3.4414,-3.4414,-3.4414,-3.4414,-3.4414,-3.4414,-3.4414,-3.4414,-3.4414,-3.4414,-3.4414,-3.4414,-3.4414,-3.4414,0.0,0.0,0.0,0.0,0.0,0.0,0.0,0.0,0.0,0.0,0.0,0.0,0.0,0.0,0.0,0.0,0.0,0.0,-0.826,-0.9909,0.0,0.0,0.0,-1.4478,-1.4929,-1.5173,-1.5367,0.0,0.0,-1.6389,-1.6936,-1.7152,-1.721,-1.716,-1.7002,-1.678,-1.649,-1.6378,-1.612,-1.584,0.0,-1.6143,-1.5923,0.0,0.0,0.0,0.0,0.0,0.0,0.0,0.0,0.0,0.0,0.0,-2.1148,0.0,0.0,-2.5716,-2.7488,-2.8536,-2.9305,-3.0132,-3.0103,-2.9827,-2.9639,-2.887,-2.7811,-2.6547,-2.527,-2.4272,-2.3908,0.0,0.0,-2.8697,-3.1006,0.0,-3.5121,-3.5814,0.0,-3.6287,0.0,-3.6219,-3.6546,-3.7036,0.0,0.0,-3.8119,-3.8177,-3.7682,-3.7506,-3.6875,-3.5706,-3.5482,-3.5088,-3.4414,-3.4414,-3.4414,-3.4414,-3.4414,-3.4414,-3.4414,-3.4414,-3.4414,-3.4414,-3.4414,-3.4414,-3.4414,-3.4414,-3.4414,-3.4414,-3.4414,-3.4414,-3.4414,-3.4414,-3.4414,-3.4414,0.0,0.0,0.0,0.0,0.0,0.0,0.0,0.0,0.0,0.0,0.0,0.0,0.0,0.0,0.0,0.0,0.0,0.0,0.0,0.0,0.0,0.0,0.0,-1.2775,-1.3386,-1.3515,-1.3727,0.0,0.0,0.0,0.0,-1.5604,-1.5658,-1.5694,-1.5356,-1.5081,-1.4831,-1.4636,0.0,0.0,0.0,0.0,0.0,0.0,0.0,0.0,0.0,0.0,0.0,0.0,0.0,-1.8984,-2.0463,-2.1743,-2.302,-2.4723,0.0,-2.7387,-2.8724,-2.9552,-3.0132,-3.051,-3.0103,-2.9378,-2.8565,-2.7592,-2.6271,-2.4123,-2.3107,0.0,-2.1402,0.0,0.0,0.0,0.0,0.0,-3.3863,-3.4928,-3.5634,0.0,-3.5936,0.0,-3.6328,-3.6971,-3.7282,0.0,-3.7594,-3.7815,-3.7417,-3.6845,-3.6181,-3.5432,-3.5121,-3.4787,-3.4414,-3.4414,-3.4414,-3.4414,-3.4414,-3.4414,-3.4414,-3.4414,-3.4414,-3.4414,0.0,-3.4414,-3.4414,-3.4414,-3.4414,-3.4414,-3.4414,-3.4414,-3.4414,-3.4414,-3.4414,-3.4414,0.0,0.0,0.0,0.0,0.0,0.0,0.0,0.0,0.0,0.0,0.0,0.0,0.0,0.0,0.0,0.0,0.0,0.0,0.0,0.0,0.0,0.0,-1.0398,-1.0917,-1.1694,0.0,0.0,0.0,0.0,0.0,0.0,0.0,0.0,0.0,0.0,0.0,0.0,0.0,0.0,0.0,0.0,0.0,0.0,0.0,0.0,0.0,0.0,0.0,0.0,0.0,-1.8961,-1.997,-2.1802,-2.3572,-2.51,-2.5937,-2.7387,-2.884,-2.9552,-3.0161,-3.0583,-3.0496,-2.99,-2.887,-2.707,-2.5963,-2.4442,-2.1481,0.0,-2.0291,-1.9188,-2.0494,-2.2425,-2.4476,0.0,-3.0088,-3.2191,-3.3543,-3.4566,-3.532,-3.5335,-3.5514,-3.6197,-3.6799,-3.6906,-3.6322,-3.6814,-3.7133,-3.7133,-3.6024,-3.5367,-3.527,-3.4687,-3.4414,-3.4414,-3.4414,-3.4414,-3.4414,-3.4414,-3.4414,-3.4414,-3.4414,-3.4414,-3.4414,0.0,0.0,-3.4414,-3.4414,-3.4414,-3.4414,-3.4414,-3.4414,-3.4414,-3.4414,-3.4414,-3.4414,0.0,0.0,0.0,0.0,0.0,0.0,0.0,0.0,0.0,0.0,0.0,0.0,0.0,0.0,0.0,0.0,0.0,0.0,0.0,0.0,0.0,0.0,-0.9336,-0.988,0.0,0.0,0.0,0.0,0.0,0.0,0.0,0.0,0.0,0.0,0.0,0.0,0.0,0.0,0.0,0.0,0.0,0.0,0.0,0.0,0.0,0.0,0.0,0.0,0.0,0.0,-1.9063,-2.1371,-2.3672,-2.495,-2.5952,-2.7706,-2.8447,-2.8956,-3.0118,-3.0525,-3.0481,-2.9914,-2.8884,-2.7666,-2.6286,-2.4239,0.0,0.0,0.0,-1.8622,-1.8404,-1.9493,0.0,-2.4331,0.0,0.0,0.0,0.0,-3.4101,0.0,0.0,0.0,0.0,0.0,0.0,0.0,0.0,0.0,-3.5753,-3.5529,-3.5154,-3.4601,-3.4467,-3.4414,-3.4414,-3.4414,-3.4414,-3.4414,-3.4414,-3.4414,-3.4414,-3.4414,-3.4414,-3.4414,0.0,0.0,-3.4414,-3.4414,-3.4414,-3.4414,-3.4414,-3.4414,-3.4414,-3.4414,-3.4414,-3.4414,0.0,0.0,0.0,0.0,0.0,0.0,0.0,0.0,0.0,0.0,0.0,0.0,0.0,0.0,0.0,0.0,0.0,0.0,0.0,0.0,0.0,0.0,0.0,0.0,0.0,0.0,0.0,0.0,0.0,0.0,0.0,0.0,0.0,0.0,0.0,0.0,0.0,0.0,0.0,0.0,0.0,0.0,0.0,0.0,0.0,0.0,0.0,0.0,0.0,0.0,-1.8177,-2.0221,-2.3065,-2.5056,-2.6573,-2.781,-2.8652,-2.9377,-3.0351,-3.0598,-3.0452,-2.9784,-2.8638,-2.7188,-2.5241,0.0,0.0,0.0,0.0,-1.749,-1.6806,0.0,0.0,0.0,0.0,0.0,0.0,0.0,0.0,0.0,0.0,0.0,0.0,0.0,0.0,0.0,0.0,0.0,-3.54,-3.5055,-3.4721,-3.4414,-3.4414,-3.4414,-3.4414,-3.4414,-3.4414,-3.4414,-3.4414,-3.4414,-3.4414,-3.4414,-3.4414,-3.4414,-3.4414,0.0,-3.4414,-3.4414,-3.4414,-3.4414,-3.4414,-3.4414,-3.4414,-3.4414,-3.4414,-3.4414,0.0,0.0,0.0,0.0,0.0,0.0,0.0,0.0,-0.6514,-0.7235,-0.7882,-0.8013,-0.7317,-0.7064,0.0,0.0,0.0,0.0,0.0,0.0,0.0,0.0,0.0,0.0,0.0,0.0,0.0,0.0,0.0,0.0,0.0,0.0,0.0,0.0,0.0,0.0,0.0,0.0,0.0,0.0,0.0,0.0,0.0,0.0,0.0,0.0,0.0,0.0,0.0,0.0,-1.6877,-1.8251,-2.1209,-2.3921,-2.6197,-2.7031,-2.8188,-2.9363,-3.0161,-3.0496,-3.0423,-2.961,-2.8333,-2.6651,-2.4239,-2.1975,0.0,0.0,-1.698,-1.6532,-1.5646,0.0,0.0,0.0,0.0,0.0,0.0,0.0,0.0,0.0,0.0,0.0,0.0,0.0,0.0,0.0,0.0,0.0,0.0,-3.4687,-3.4414,-3.4414,-3.4414,-3.4414,-3.4414,-3.4414,-3.4414,-3.4414,-3.4414,-3.4414,-3.4414,-3.4414,-3.4414,-3.4414,-3.4414,0.0,0.0,-3.4414,-3.4414,-3.4414,-3.4414,-3.4414,-3.4414,-3.4414,-3.4414,-3.4414,0.0,0.0,0.0,0.0,0.0,0.0,0.0,0.0,-0.7059,-0.7977,-0.796,-0.7887,-0.7987,-0.8093,0.0,0.0,0.0,0.0,0.0,0.0,0.0,0.0,0.0,0.0,0.0,0.0,0.0,0.0,0.0,0.0,0.0,0.0,0.0,0.0,0.0,0.0,0.0,0.0,0.0,0.0,0.0,0.0,0.0,0.0,0.0,0.0,0.0,0.0,0.0,0.0,0.0,-1.6292,-1.8355,-2.1092,-2.3843,-2.5488,0.0,0.0,-2.9349,-3.0132,-3.0307,-2.9101,-2.7387,-2.5444,-2.3461,0.0,0.0,-1.7357,-1.6269,-1.5618,-1.6037,-1.6866,0.0,0.0,0.0,-2.4418,0.0,0.0,0.0,0.0,0.0,0.0,0.0,0.0,0.0,0.0,0.0,0.0,0.0,-3.4448,-3.4414,-3.4414,-3.4414,-3.4414,-3.4414,-3.4414,-3.4414,-3.4414,-3.4414,-3.4414,-3.4414,-3.4414,-3.4414,-3.4414,0.0,0.0,0.0,-3.4414,-3.4414,-3.4414,-3.4414,-3.4414,-3.4414,-3.4414,-3.4414,-3.4414,0.0,0.0,0.0,0.0,0.0,0.0,0.0,0.0,-0.6716,-0.7649,-0.8142,-0.8275,-0.7953,-0.8285,0.0,0.0,0.0,0.0,0.0,0.0,0.0,0.0,0.0,0.0,0.0,0.0,0.0,0.0,0.0,0.0,0.0,0.0,0.0,0.0,0.0,0.0,0.0,0.0,0.0,0.0,0.0,0.0,0.0,0.0,0.0,0.0,0.0,0.0,0.0,0.0,0.0,0.0,-1.5925,-1.8011,0.0,0.0,-2.556,-2.6837,-2.8101,-2.8956,-2.9246,-2.8332,-2.6663,-2.4834,-2.3273,0.0,-1.8013,-1.7345,-1.6198,-1.537,-1.5602,-1.6168,-1.7069,-1.8491,-1.9474,-2.1272,0.0,0.0,0.0,0.0,0.0,0.0,0.0,0.0,0.0,0.0,0.0,0.0,0.0,-3.4414,-3.4414,-3.4414,-3.4414,-3.4414,-3.4414,-3.4414,-3.4414,-3.4414,-3.4414,-3.4414,-3.4414,-3.4414,-3.4414,-3.4414,0.0,0.0,0.0,-3.4414,-3.4414,-3.4414,-3.4414,-3.4414,-3.4414,-3.4414,-3.4414,-3.4414,0.0,0.0,0.0,0.0,0.0,0.0,-0.5969,-0.6074,-0.6425,-0.7343,-0.7885,-0.8071,-0.78,-0.7951,-0.7704,-0.677,0.0,0.0,0.0,0.0,0.0,0.0,0.0,0.0,0.0,0.0,0.0,0.0,0.0,0.0,0.0,0.0,0.0,0.0,0.0,0.0,0.0,0.0,0.0,0.0,0.0,0.0,0.0,0.0,0.0,0.0,0.0,0.0,0.0,0.0,0.0,0.0,0.0,0.0,0.0,0.0,-2.3864,-2.5517,-2.6782,-2.7766,-2.8245,-2.7607,-2.601,-2.421,0.0,0.0,-1.7722,-1.7038,-1.6037,-1.5298,-1.5298,-1.5966,-1.6646,-1.7127,-1.8085,-1.9793,-2.278,0.0,0.0,0.0,0.0,0.0,0.0,0.0,0.0,0.0,0.0,0.0,0.0,-3.4414,-3.4414,-3.4414,-3.4414,-3.4414,-3.4414,-3.4414,-3.4414,-3.4414,-3.4414,-3.4414,-3.4414,-3.4414,-3.4414,0.0,0.0,0.0,0.0,-3.4414,-3.4414,-3.4414,-3.4414,-3.4414,-3.4414,-3.4414,-3.4414,-3.4414,0.0,0.0,0.0,0.0,0.0,0.0,0.0,0.0,-0.6414,-0.7294,-0.7001,-0.6972,-0.7627,-0.7057,-0.6691,-0.6881,0.0,0.0,0.0,0.0,0.0,0.0,0.0,0.0,0.0,0.0,0.0,0.0,0.0,0.0,0.0,0.0,0.0,0.0,0.0,0.0,0.0,0.0,0.0,0.0,0.0,0.0,0.0,0.0,0.0,0.0,0.0,0.0,0.0,0.0,0.0,0.0,0.0,-1.4257,-1.512,0.0,-2.1679,-2.4196,-2.5458,-2.675,-2.7565,-2.6953,-2.5367,-2.3397,0.0,-1.9043,-1.7026,-1.6358,-1.5718,-1.5298,-1.5298,-1.6327,-1.72,-1.72,-1.8825,-2.0973,-2.3528,0.0,0.0,0.0,0.0,0.0,0.0,0.0,0.0,0.0,0.0,0.0,0.0,0.0,-3.4414,-3.4414,-3.4414,-3.4414,-3.4414,-3.4414,-3.4414,-3.4414,-3.4414,-3.4414,-3.4414,-3.4414,0.0,0.0,0.0,0.0,0.0,-3.4414,-3.4414,-3.4414,-3.4414,-3.4414,-3.4414,-3.4414,-3.4414,-3.4414,0.0,0.0,0.0,0.0,0.0,0.0,0.0,0.0,-0.5817,-0.6366,-0.6314,-0.6418,-0.6952,-0.6637,-0.6476,-0.6672,0.0,0.0,0.0,0.0,0.0,0.0,0.0,0.0,0.0,0.0,-0.9596,-1.0291,-1.0291,0.0,0.0,0.0,0.0,0.0,0.0,0.0,0.0,0.0,0.0,0.0,0.0,0.0,0.0,0.0,0.0,0.0,0.0,0.0,0.0,0.0,0.0,0.0,0.0,0.0,0.0,-1.5814,-1.8698,-2.1481,-2.2294,-2.3151,-2.3659,-2.2991,-2.2062,-2.1017,-1.9943,-1.8404,-1.7011,-1.6343,-1.5718,-1.5298,-1.5298,-1.5617,-1.6458,-1.8216,-1.9014,0.0,0.0,0.0,0.0,0.0,0.0,0.0,0.0,0.0,0.0,0.0,0.0,0.0,0.0,0.0,-3.4414,-3.4414,-3.4414,-3.4414,-3.4414,-3.4414,-3.4414,-3.4414,-3.4414,-3.4414,-3.4414,-3.4414,0.0,0.0,0.0,0.0,0.0,-3.4414,-3.4414,-3.4414,-3.4414,-3.4414,-3.4414,-3.4414,-3.4414,-3.4414,0.0,0.0,0.0,0.0,0.0,0.0,0.0,0.0,-0.5441,-0.5673,-0.5693,-0.5874,-0.6349,-0.6158,-0.6147,-0.6528,0.0,0.0,0.0,0.0,0.0,0.0,0.0,0.0,0.0,-0.8754,-0.9668,-1.0606,-1.0606,-1.0978,-1.1692,-1.1147,0.0,0.0,0.0,0.0,0.0,0.0,0.0,0.0,0.0,0.0,-1.051,0.0,0.0,0.0,0.0,0.0,0.0,0.0,0.0,0.0,0.0,0.0,0.0,0.0,-1.5995,-1.8259,-1.9841,-2.077,-2.1177,-2.0756,-2.019,-1.9493,-1.8593,-1.7577,-1.6632,-1.5979,-1.5559,-1.5298,-1.5298,-1.5689,-1.653,-1.8129,-1.8999,0.0,0.0,0.0,0.0,0.0,0.0,0.0,0.0,0.0,0.0,0.0,0.0,0.0,0.0,0.0,-3.4414,-3.4414,-3.4414,-3.4414,-3.4414,-3.4414,-3.4414,-3.4414,-3.4414,-3.4414,-3.4414,0.0,0.0,0.0,0.0,0.0,0.0,-3.4414,-3.4414,-3.4414,-3.4414,-3.4414,-3.4414,-3.4414,-3.4414,-3.4414,0.0,0.0,0.0,0.0,0.0,0.0,0.0,0.0,0.0,0.0,0.0,-0.5353,-0.5799,-0.5623,0.0,0.0,0.0,0.0,0.0,0.0,0.0,0.0,0.0,0.0,0.0,-0.8323,-0.9462,-1.1056,-1.1104,-1.1672,-1.2758,-1.2246,-1.1716,0.0,0.0,0.0,0.0,0.0,0.0,0.0,0.0,-0.951,0.0,0.0,0.0,0.0,0.0,0.0,0.0,0.0,0.0,0.0,0.0,0.0,0.0,0.0,0.0,0.0,0.0,-1.9246,-1.9754,-1.9754,-1.9319,-1.8579,-1.7345,-1.6619,0.0,-1.5414,-1.5298,-1.5327,-1.5414,-1.6356,-1.72,-1.7432,0.0,0.0,0.0,0.0,0.0,0.0,0.0,0.0,0.0,0.0,0.0,0.0,0.0,0.0,0.0,0.0,0.0,-3.4414,-3.4414,-3.4414,-3.4414,-3.4414,-3.4414,-3.4414,-3.4414,-3.4414,-3.4414,0.0,0.0,0.0,0.0,0.0,0.0,-3.4414,-3.4414,-3.4414,-3.4414,-3.4414,-3.4414,-3.4414,-3.4414,-3.4414,0.0,0.0,0.0,0.0,0.0,0.0,0.0,0.0,0.0,0.0,0.0,0.0,0.0,0.0,0.0,0.0,0.0,0.0,0.0,0.0,0.0,0.0,0.0,0.0,0.0,-0.8024,-0.9157,-1.072,-1.1132,-1.2011,-1.3312,-1.318,-1.2607,-1.1692,-1.1147,0.0,0.0,0.0,0.0,0.0,-0.951,-0.951,0.0,0.0,0.0,0.0,-0.9791,-0.9853,0.0,0.0,0.0,0.0,0.0,0.0,0.0,0.0,-1.2731,-1.3224,-1.495,0.0,-1.6429,-1.6429,-1.6663,-1.6692,0.0,-1.5979,-1.6023,-1.5414,-1.5298,-1.5602,-1.6559,-1.659,-1.7243,0.0,0.0,0.0,0.0,0.0,0.0,0.0,0.0,0.0,0.0,0.0,0.0,0.0,0.0,0.0,0.0,0.0,0.0,-3.4414,-3.4414,-3.4414,-3.4414,-3.4414,-3.4414,-3.4414,-3.4414,-3.4414,-3.4414,0.0,0.0,0.0,0.0,0.0,-3.4414,-3.4414,-3.4414,-3.4414,-3.4414,-3.4414,-3.4414,-3.4414,-3.4414,-3.4414,0.0,0.0,0.0,0.0,0.0,0.0,0.0,0.0,0.0,0.0,0.0,0.0,0.0,0.0,0.0,0.0,0.0,0.0,0.0,0.0,0.0,0.0,0.0,0.0,-0.7049,-0.7904,-0.9089,-1.0609,-1.1293,-1.227,-1.3493,-1.3252,-1.268,-1.1861,-1.0822,0.0,0.0,0.0,0.0,0.0,-0.951,0.0,0.0,0.0,0.0,0.0,-0.9617,-0.9631,0.0,-1.0561,-1.0644,-1.0572,0.0,0.0,0.0,0.0,-1.1989,-1.2192,-1.3166,-1.4341,-1.537,-1.5631,-1.595,-1.6111,-1.5792,-1.5747,-1.5689,-1.537,0.0,-1.5921,-1.6619,-1.7171,0.0,0.0,0.0,0.0,0.0,0.0,0.0,0.0,0.0,0.0,0.0,0.0,0.0,0.0,0.0,0.0,0.0,0.0,0.0,0.0,-3.4414,-3.4414,-3.4414,-3.4414,-3.4414,-3.4414,-3.4414,-3.4414,-3.4414,-3.4414,0.0,0.0,0.0,0.0,-3.4414,-3.4414,-3.4414,-3.4414,-3.4414,-3.4414,-3.4414,-3.4414,-3.4414,-3.4414,0.0,0.0,0.0,0.0,0.0,0.0,0.0,0.0,0.0,0.0,0.0,0.0,0.0,0.0,0.0,0.0,0.0,0.0,0.0,0.0,0.0,0.0,0.0,-0.6127,-0.6919,-0.7827,-0.9083,-1.0633,-1.151,-1.2524,-1.3614,-1.3221,-1.2643,-1.1837,-1.0291,-0.9569,0.0,0.0,0.0,0.0,0.0,0.0,0.0,0.0,0.0,0.0,0.0,0.0,0.0,-1.0554,-1.0788,-1.0855,-1.1515,0.0,0.0,0.0,0.0,0.0,-1.247,-1.4036,-1.553,-1.5966,-1.6213,-1.6342,-1.6342,0.0,0.0,0.0,0.0,0.0,-1.6733,-1.8143,0.0,0.0,0.0,0.0,0.0,0.0,0.0,0.0,0.0,0.0,0.0,0.0,0.0,0.0,0.0,0.0,0.0,0.0,0.0,0.0,-3.4414,-3.4414,-3.4414,-3.4414,-3.4414,-3.4414,-3.4414,-3.4414,-3.4414,-3.4414,0.0,0.0,0.0,0.0,-3.4414,-3.4414,-3.4414,-3.4414,-3.4414,-3.4414,-3.4414,-3.4414,-3.4414,-3.4414,0.0,0.0,0.0,0.0,0.0,0.0,0.0,0.0,0.0,0.0,0.0,0.0,0.0,0.0,0.0,0.0,0.0,0.0,0.0,0.0,0.0,0.0,-0.5919,-0.6358,-0.7052,-0.7618,-0.8846,-1.0758,-1.1698,-1.2851,-1.418,-1.4514,-1.3665,-1.1849,-1.069,-0.9918,-0.951,0.0,0.0,0.0,0.0,0.0,0.0,0.0,0.0,0.0,0.0,0.0,0.0,-0.9967,-1.0238,-1.0518,-1.0791,0.0,0.0,0.0,0.0,0.0,-1.3557,-1.5008,-1.595,-1.5544,-1.624,-1.7055,-1.7055,-1.6965,0.0,0.0,0.0,0.0,0.0,0.0,0.0,0.0,0.0,0.0,0.0,0.0,0.0,0.0,0.0,0.0,0.0,0.0,0.0,0.0,0.0,0.0,0.0,0.0,0.0,0.0,0.0,-3.4414,-3.4414,-3.4414,-3.4414,-3.4414,-3.4414,-3.4414,-3.4414,-3.4414,-3.4414,0.0,0.0,-3.4414,-3.4414,-3.4414,-3.4414,-3.4414,-3.4414,-3.4414,-3.4414,-3.4414,-3.4414,-3.4414,0.0,0.0,0.0,0.0,0.0,0.0,0.0,0.0,0.0,0.0,0.0,0.0,0.0,0.0,0.0,0.0,0.0,0.0,0.0,0.0,0.0,-0.6095,-0.6453,-0.6889,-0.7408,-0.8312,-0.9583,-1.1219,-1.2355,-1.3385,-1.4297,-1.3624,-1.2662,-1.1427,-1.0353,-0.9738,-0.951,0.0,0.0,-0.951,0.0,0.0,0.0,0.0,0.0,0.0,0.0,0.0,0.0,0.0,-1.038,-1.0794,-1.0886,0.0,0.0,0.0,0.0,0.0,-1.2516,-1.4182,-1.5733,-1.5775,-1.7299,-1.868,-1.8317,-1.823,-1.823,0.0,0.0,0.0,0.0,0.0,0.0,0.0,0.0,0.0,0.0,0.0,0.0,0.0,0.0,0.0,0.0,0.0,0.0,0.0,0.0,0.0,0.0,0.0,0.0,0.0,0.0,0.0,-3.4414,-3.4414,-3.4414,-3.4414,-3.4414,-3.4414,-3.4414,-3.4414,-3.4414,-3.4414,0.0,-3.4414,-3.4414,-3.4414,-3.4414,-3.4414,-3.4414,-3.4414,-3.4414,-3.4414,-3.4414,-3.4414,0.0,0.0,0.0,0.0,0.0,0.0,0.0,0.0,0.0,0.0,0.0,0.0,0.0,0.0,0.0,0.0,0.0,0.0,0.0,0.0,-0.5487,-0.6355,-0.6855,-0.7379,-0.7993,-0.9226,-1.0504,-1.1763,-1.2923,-1.371,-1.4072,-1.2716,-1.174,-1.1063,-1.0111,-0.9618,-0.951,-0.951,-0.951,-0.951,0.0,0.0,0.0,0.0,0.0,0.0,0.0,0.0,0.0,0.0,0.0,0.0,0.0,0.0,0.0,-1.152,-1.1489,-1.155,-1.1783,-1.3545,-1.5486,-1.6207,-1.8151,-1.9856,-1.9783,-1.9783,-1.9827,0.0,0.0,0.0,0.0,0.0,0.0,0.0,0.0,0.0,0.0,0.0,0.0,0.0,0.0,0.0,0.0,0.0,0.0,0.0,0.0,0.0,0.0,0.0,0.0,0.0,0.0,0.0,-3.4414,-3.4414,-3.4414,-3.4414,-3.4414,-3.4414,-3.4414,-3.4414,-3.4414,-3.4414,-3.4414,-3.4414,-3.4414,-3.4414,-3.4414,-3.4414,-3.4414,-3.4414,-3.4414,-3.4414,-3.4414,-3.4414,0.0,0.0,0.0,0.0,0.0,0.0,0.0,0.0,0.0,0.0,0.0,0.0,0.0,0.0,0.0,0.0,0.0,0.0,0.0,0.0,-0.5487,-0.6355,-0.6855,-0.7676,-0.8887,-1.0086,-1.1212,-1.2252,-1.308,-1.3517,-1.3541,-1.2938,-1.209,-1.1075,-1.051,-0.9966,-0.951,-0.951,-0.951,-0.951,-0.951,0.0,0.0,0.0,0.0,0.0,0.0,0.0,0.0,0.0,0.0,0.0,0.0,0.0,-1.1353,-1.147,-1.1489,-1.1739,-1.2853,-1.4211,-1.5572,-1.6739,-1.8104,-1.9638,-2.138,-2.1786,-2.1946,-2.2519,0.0,0.0,0.0,0.0,0.0,0.0,0.0,0.0,0.0,0.0,0.0,0.0,0.0,0.0,0.0,0.0,0.0,0.0,0.0,0.0,0.0,0.0,0.0,0.0,0.0,0.0,-3.4414,-3.4414,-3.4414,-3.4414,-3.4414,-3.4414,-3.4414,-3.4414,-3.4414,-3.4414,-3.4414,-3.4414,-3.4414,-3.4414,-3.4414,-3.4414,-3.4414,-3.4414,-3.4414,-3.4414,-3.4414,-3.4414,0.0,0.0,0.0,0.0,0.0,0.0,0.0,0.0,0.0,0.0,0.0,0.0,0.0,0.0,0.0,0.0,0.0,0.0,0.0,0.0,-0.5487,-0.6355,-0.6855,-0.7437,-0.8178,-0.9902,-1.1289,-1.2307,-1.2768,-1.318,-1.3469,-1.1933,-1.1171,-1.1063,-1.0183,-0.969,-0.951,-0.951,-0.951,-0.951,-0.951,-0.951,0.0,0.0,0.0,0.0,0.0,0.0,0.0,0.0,-0.9811,-1.0274,-1.0715,-1.105,-1.1319,-1.141,-1.1466,-1.1583,-1.1952,-1.3923,-1.5979,-1.6424,-1.8426,-2.0582,0.0,-2.2599,-2.347,-2.45,-2.5226,0.0,0.0,0.0,0.0,0.0,0.0,0.0,0.0,0.0,0.0,0.0,0.0,0.0,0.0,0.0,0.0,0.0,0.0,0.0,0.0,0.0,0.0,0.0,0.0,0.0,0.0,-3.4414,-3.4414,-3.4414,-3.4414,-3.4414,-3.4414,-3.4414,-3.4414,-3.4414,-3.4414,-3.4414,-3.4414,-3.4414,-3.4414,-3.4414,-3.4414,-3.4414,-3.4414,-3.4414,-3.4414,-3.4414,0.0,0.0,0.0,0.0,0.0,0.0,0.0,0.0,0.0,0.0,0.0,0.0,0.0,0.0,0.0,0.0,0.0,0.0,0.0,-0.5098,-0.5429,-0.6182,-0.6641,-0.7189,-0.7846,-0.951,-1.0867,-1.1892,-1.2423,-1.2704,-1.2721,-1.1247,-1.075,-1.1063,-1.0159,-0.9762,-0.9738,-0.9582,-0.951,-0.951,-0.951,-0.951,0.0,0.0,0.0,0.0,0.0,0.0,0.0,0.0,-0.9551,-1.0032,-1.0738,-1.112,-1.1307,-1.1376,-1.1734,-1.2076,-1.1942,-1.401,-1.6298,-1.67,-1.8759,0.0,-2.2556,-2.3717,-2.4849,-2.6141,-2.6765,-2.7142,0.0,0.0,0.0,0.0,0.0,0.0,0.0,0.0,0.0,0.0,0.0,0.0,0.0,0.0,0.0,0.0,0.0,0.0,0.0,0.0,0.0,0.0,0.0,0.0,0.0,-3.4414,-3.4414,-3.4414,-3.4414,-3.4414,-3.4414,-3.4414,-3.4414,-3.4414,-3.4414,-3.4414,-3.4414,-3.4414,-3.4414,-3.4414,-3.4414,-3.4414,-3.4414,-3.4414,-3.4414,-3.4414,0.0,0.0,0.0,0.0,0.0,0.0,0.0,0.0,0.0,0.0,0.0,0.0,0.0,0.0,0.0,0.0,0.0,0.0,0.0,-0.5098,-0.5312,-0.5774,-0.6193,-0.6958,-0.8145,-0.8973,-0.9923,-1.1,-1.2124,-1.2138,-1.1099,-1.1087,-1.1087,-1.1063,-1.0546,-1.0291,-1.0255,-0.9726,-0.951,-0.951,-0.951,-0.951,-0.945,0.0,0.0,0.0,0.0,0.0,0.0,0.0,-0.9493,-1.0007,-1.068,-1.1073,-1.1322,-1.1376,-1.2357,-1.3382,-1.3249,-1.4674,-1.6516,-1.7786,0.0,0.0,-2.4099,-2.5342,-2.617,-2.7449,-2.7724,-2.7913,-2.8607,0.0,0.0,0.0,0.0,0.0,0.0,0.0,0.0,0.0,0.0,0.0,0.0,0.0,0.0,0.0,0.0,0.0,0.0,0.0,0.0,0.0,0.0,0.0,-3.4414,-3.4414,-3.4414,-3.4414,-3.4414,-3.4414,-3.4414,-3.4414,-3.4414,-3.4414,-3.4414,-3.4414,-3.4414,-3.4414,-3.4414,-3.4414,-3.4414,-3.4414,-3.4414,-3.4414,-3.4414,-3.4414,0.0,0.0,0.0,0.0,0.0,0.0,0.0,0.0,0.0,0.0,0.0,0.0,0.0,0.0,0.0,0.0,0.0,0.0,0.0,-0.5098,-0.5156,-0.5302,-0.623,-0.6769,-0.6787,-0.805,-0.947,-1.1077,-1.1419,-1.1399,-1.1087,-1.0714,-1.0546,-1.0534,-1.0363,-1.0087,-0.9726,-0.957,-0.951,-0.951,-0.951,-0.951,-0.945,0.0,0.0,0.0,0.0,0.0,0.0,0.0,0.0,0.0,-0.9889,-1.1034,-1.1848,-1.139,-1.2511,-1.3797,-1.3324,-1.4976,0.0,-1.8473,0.0,0.0,0.0,-2.601,0.0,0.0,-2.9377,-2.9087,0.0,0.0,0.0,0.0,0.0,0.0,0.0,0.0,0.0,0.0,0.0,0.0,0.0,0.0,0.0,0.0,0.0,0.0,0.0,0.0,0.0,0.0,0.0,0.0,-3.4414,-3.4414,-3.4414,-3.4414,-3.4414,-3.4414,-3.4414,-3.4414,-3.4414,-3.4414,-3.4414,-3.4414,-3.4414,-3.4414,-3.4414,-3.4414,-3.4414,-3.4414,-3.4414,-3.4414,-3.4414,-3.4414,0.0,0.0,0.0,0.0,0.0,0.0,0.0,0.0,0.0,0.0,0.0,-0.5069,0.0,0.0,0.0,0.0,0.0,0.0,0.0,0.0,-0.5098,-0.5098,-0.5878,-0.6446,-0.6749,-0.8119,-0.9274,-1.0151,-1.0365,-1.0365,-1.0149,-1.0473,-1.0618,-1.063,-1.0846,-1.0642,-1.0123,-0.9906,-0.9702,-0.951,-0.951,-0.951,-0.945,0.0,0.0,0.0,0.0,0.0,0.0,0.0,0.0,0.0,-0.9695,-1.0703,-1.1445,-1.1594,-1.3039,-1.4658,-1.5047,-1.668,0.0,-2.0228,-2.1953,-2.3925,-2.6373,0.0,0.0,0.0,0.0,0.0,0.0,0.0,0.0,0.0,0.0,0.0,0.0,0.0,0.0,0.0,0.0,0.0,0.0,0.0,0.0,0.0,0.0,0.0,0.0,0.0,0.0,0.0,0.0,0.0,-3.3659,-3.3659,-3.379,-3.4037,-3.3705,-3.3684,-3.3928,-3.4264,-3.4414,-3.4414,-3.4414,-3.4414,-3.4414,-3.4414,-3.4414,-3.4414,-3.4414,-3.4414,-3.4414,-3.4414,-3.4414,-3.4414,0.0,0.0,-0.4319,-0.4704,0.0,0.0,0.0,0.0,0.0,-0.4843,-0.499,-0.503,0.0,0.0,0.0,-0.5098,0.0,0.0,0.0,0.0,-0.5098,-0.5098,-0.5381,-0.623,-0.7703,-0.8773,-0.9112,-0.8658,-0.9221,-0.9235,-0.873,-1.0356,-1.1075,-1.1051,-1.1596,-1.1512,0.0,-1.0389,-0.9846,-0.9366,-0.9414,-0.9402,-0.9331,-0.8998,0.0,0.0,0.0,0.0,0.0,0.0,0.0,0.0,-0.9834,-1.0253,-1.054,-1.1781,-1.3653,-1.5684,-1.7409,0.0,0.0,-2.2452,-2.3537,0.0,-2.7926,0.0,0.0,0.0,0.0,0.0,0.0,0.0,0.0,0.0,0.0,0.0,0.0,0.0,0.0,0.0,0.0,0.0,0.0,0.0,0.0,0.0,0.0,0.0,0.0,0.0,0.0,0.0,0.0,0.0,-3.2306,-3.2306,-3.2594,0.0,-3.2481,-3.2408,-3.2989,-3.3871,-3.4332,-3.4414,-3.4414,-3.4414,-3.4414,-3.4414,-3.4414,-3.4414,-3.4414,-3.4414,-3.4414,-3.4414,-3.4414,-3.4414,0.0,0.0,-0.4279,-0.4525,0.0,0.0,0.0,0.0,-0.5078,-0.504,-0.5069,-0.5078,-0.504,-0.5069,0.0,-0.5098,-0.5098,0.0,0.0,0.0,-0.5098,-0.5098,-0.6053,-0.727,-0.8738,-0.8223,-0.8085,-0.8388,-0.913,-0.9235,-0.873,-1.0356,-1.0882,-1.0497,-1.1027,-1.0738,-0.981,-0.9271,-0.8742,-0.8285,-0.8706,-0.8622,-0.8273,-0.8621,-0.8126,0.0,0.0,0.0,0.0,0.0,0.0,0.0,-0.9409,-1.0352,-1.1129,-1.1049,-1.315,-1.556,-1.6084,-1.8045,0.0,0.0,-2.4575,-2.6489,0.0,0.0,0.0,0.0,0.0,0.0,0.0,0.0,0.0,0.0,0.0,0.0,0.0,0.0,0.0,0.0,0.0,0.0,0.0,0.0,0.0,0.0,0.0,0.0,0.0,0.0,0.0,0.0,0.0,-3.0867,-3.0867,-3.0867,-3.0922,0.0,-3.0877,-3.0877,-3.1062,-3.2723,-3.3811,-3.4414,-3.4414,-3.4414,-3.4414,-3.4414,-3.4414,-3.4414,-3.4414,-3.4414,-3.4414,-3.4414,-3.4414,-3.4414,0.0,0.0,0.0,0.0,0.0,0.0,0.0,0.0,-0.503,-0.4844,-0.4981,-0.503,-0.4834,-0.4991,0.0,0.0,-0.5098,-0.5098,0.0,0.0,0.0,-0.5243,-0.6096,-0.6964,-0.7835,-0.7406,-0.7427,-0.7969,-0.8355,-0.8725,-0.9115,-1.0726,-1.1475,-1.1463,-1.174,-1.1267,-1.0207,-0.9427,-0.8622,-0.7923,-0.82,-0.8152,-0.7911,-0.7969,-0.7621,-0.707,-0.684,0.0,0.0,0.0,0.0,0.0,0.0,0.0,-1.0158,-1.0826,-1.2469,-1.4399,-1.5913,0.0,0.0,-2.3084,0.0,0.0,0.0,0.0,0.0,0.0,0.0,0.0,0.0,0.0,0.0,0.0,0.0,0.0,0.0,0.0,0.0,0.0,0.0,0.0,0.0,0.0,0.0,0.0,0.0,0.0,0.0,0.0,0.0,0.0,-2.9345,-2.9475,-2.9475,-2.9475,-2.9658,-2.9957,-2.9571,-2.956,-2.9937,-3.1562,-3.2723,-3.3464,-3.3716,-3.4045,-3.4414,-3.4414,-3.4414,-3.4414,-3.4414,-3.4414,-3.4414,-3.4414,-3.4414,-3.4414,0.0,0.0,0.0,0.0,0.0,0.0,0.0,0.0,0.0,-0.4605,-0.4873,-0.4961,-0.4595,-0.4883,-0.5098,0.0,0.0,0.0,-0.5098,0.0,0.0,0.0,-0.592,-0.6287,-0.6617,-0.6665,-0.6997,-0.7634,-0.7554,-0.8307,-0.9859,-1.1188,-1.2075,-1.2559,-1.2559,-1.1909,-1.075,-0.9678,-0.8598,-0.7636,-0.772,-0.7708,-0.7588,-0.7293,-0.709,-0.6914,-0.652,-0.6732,-0.7317,-0.8072,0.0,0.0,0.0,0.0,-0.8875,-1.0518,-1.1602,-1.2832,-1.544,0.0,-2.0152,-2.3669,-2.4972,0.0,0.0,0.0,0.0,0.0,0.0,0.0,0.0,0.0,0.0,0.0,0.0,0.0,0.0,0.0,0.0,0.0,0.0,0.0,0.0,0.0,0.0,0.0,0.0,0.0,0.0,0.0,0.0,-2.8149,-2.8149,-2.8149,-2.8149,-2.8149,-2.8437,-2.8966,-2.8292,-2.8278,-2.8842,-3.0064,-3.1211,-3.2226,-3.2799,-3.349,-3.4196,-3.4332,-3.4414,-3.4414,-3.4414,-3.4414,-3.4414,-3.4414,-3.4298,-3.4182,0.0,0.0,0.0,0.0,0.0,0.0,0.0,0.0,0.0,0.0,-0.4961,-0.501,-0.4783,-0.4971,-0.5098,-0.5098,-0.5098,-0.5098,0.0,0.0,0.0,0.0,-0.5947,-0.6238,-0.7089,-0.6511,-0.6713,-0.7778,-0.7644,-0.8816,-1.1153,-1.1367,-1.1659,-1.2005,-1.2005,-1.1147,-0.9642,-0.8574,-0.7503,-0.6547,-0.7013,-0.6929,-0.6556,-0.6962,-0.682,-0.6391,-0.634,-0.6692,-0.7287,-0.7784,-0.8338,0.0,0.0,0.0,0.0,0.0,-1.0302,-1.1504,0.0,0.0,-1.9819,0.0,0.0,0.0,0.0,0.0,0.0,0.0,0.0,0.0,0.0,0.0,0.0,0.0,0.0,0.0,0.0,0.0,0.0,0.0,0.0,0.0,0.0,0.0,0.0,0.0,0.0,0.0,0.0,0.0,-2.6782,-2.6782,-2.6782,-2.6782,-2.6782,-2.6782,-2.682,-2.6896,-2.6793,-2.681,-2.6898,-2.7548,-2.9153,-3.1472,-3.2213,-3.2839,-3.3402,-3.4113,-3.4414,-3.4414,-3.4414,-3.4414,-3.4414,-3.4414,-3.3962,-3.3367,0.0,0.0,0.0,0.0,0.0,0.0,0.0,0.0,0.0,0.0,0.0,-0.4853,-0.4655,-0.4912,-0.5098,-0.5098,-0.5098,0.0,0.0,0.0,0.0,0.0,0.0,-0.5602,-0.6013,-0.5807,-0.6097,-0.6906,-0.6914,0.0,0.0,-1.1282,-1.2195,-1.3605,-1.3053,-1.2065,-1.0738,-0.9067,-0.772,-0.6748,-0.6676,-0.7049,-0.7576,-0.6904,-0.7061,-0.7527,-0.6628,-0.649,-0.6865,-0.7687,-0.8158,-0.8509,-0.9096,0.0,0.0,0.0,0.0,0.0,-1.275,-1.5428,-1.8267,0.0,0.0,0.0,0.0,0.0,0.0,0.0,0.0,0.0,0.0,0.0,0.0,0.0,0.0,0.0,0.0,0.0,0.0,0.0,0.0,0.0,0.0,0.0,0.0,0.0,0.0,0.0,0.0,-2.6658,-2.6499,-2.6499,-2.6499,0.0,-2.6499,-2.6499,-2.6499,-2.6499,-2.6499,-2.6499,-2.6499,-2.6751,-2.7884,-2.972,-3.0381,-3.1013,-3.1668,-3.2374,-3.2652,-3.2694,-3.2996,-3.3101,-3.3171,-3.3569,-3.352,-3.3262,0.0,0.0,0.0,0.0,0.0,0.0,0.0,0.0,0.0,0.0,0.0,-0.4744,-0.4595,0.0,0.0,0.0,-0.5108,0.0,0.0,0.0,0.0,0.0,0.0,-0.5127,-0.5175,-0.5281,-0.5631,-0.6255,0.0,0.0,-1.0785,-1.1211,-1.265,0.0,-1.403,-1.2908,-1.1459,-0.9797,-0.8562,-0.7673,-0.7267,-0.7829,-0.8802,-0.7865,-0.8261,-0.9115,-0.7637,-0.7153,0.0,0.0,0.0,0.0,0.0,0.0,0.0,0.0,0.0,0.0,0.0,0.0,-1.6032,0.0,0.0,0.0,0.0,0.0,0.0,0.0,0.0,0.0,0.0,0.0,0.0,0.0,0.0,0.0,0.0,0.0,0.0,0.0,0.0,0.0,0.0,0.0,0.0,0.0,0.0,0.0,-2.6273,-2.6411,-2.6499,-2.6499,-2.6499,-2.6499,-2.6499,-2.6499,-2.6499,-2.6499,-2.6499,-2.6499,-2.6499,-2.6499,-2.7011,-2.7958,-2.8752,-2.9464,-3.0179,-3.0819,-3.1161,-3.1338,-3.1752,-3.1988,-3.2182,-3.2932,-3.2967,-3.2755,0.0,0.0,0.0,0.0,0.0,0.0,0.0,0.0,0.0,0.0,0.0,-0.4802,-0.4793,-0.4981,-0.5127,-0.5185,-0.5137,0.0,0.0,0.0,0.0,0.0,0.0,0.0,0.0,-0.5214,-0.5532,-0.6392,0.0,0.0,-1.0719,-1.1253,-1.2502,-1.4333,-1.4266,-1.2919,-1.0657,0.0,-0.9882,-0.9365,-0.9354,-0.939,-0.9558,-1.0497,-1.0894,-1.0834,-0.9726,0.0,0.0,0.0,0.0,0.0,0.0,0.0,0.0,0.0,0.0,0.0,0.0,-1.1492,0.0,0.0,0.0,0.0,0.0,0.0,0.0,0.0,0.0,0.0,0.0,0.0,0.0,0.0,0.0,0.0,0.0,0.0,0.0,0.0,0.0,0.0,0.0,0.0,0.0,0.0,0.0,0.0,-2.5636,-2.6197,-2.6499,-2.6499,-2.6499,-2.6499,-2.6499,-2.6499,-2.6499,-2.6499,-2.6499,-2.6499,-2.6499,-2.6499,-2.6546,-2.6665,-2.7898,-2.8804,-2.9399,-3.0144,-3.0794,-3.1297,-3.1338,-3.1656,-3.2182,-3.2932,-3.2263,-3.1217,0.0,0.0,0.0,0.0,0.0,0.0,0.0,0.0,0.0,0.0,0.0,0.0,0.0,-0.4704,-0.4912,-0.4941,-0.5039,0.0,0.0,0.0,0.0,0.0,0.0,0.0,0.0,-0.5137,-0.5254,0.0,0.0,-0.709,-0.9297,-0.9884,-1.0889,-1.2224,-1.3305,-1.3286,-1.2387,-1.1283,-1.0702,-1.0468,-0.9831,-1.0152,-1.1013,-1.0709,-1.1237,-1.1978,0.0,0.0,0.0,0.0,0.0,0.0,-0.8814,-0.8333,-0.772,-0.6844,-0.7073,0.0,0.0,0.0,0.0,0.0,0.0,0.0,0.0,0.0,0.0,0.0,0.0,0.0,0.0,0.0,0.0,0.0,0.0,0.0,0.0,0.0,0.0,0.0,0.0,0.0,0.0,0.0,0.0,0.0,0.0,0.0,-2.5096,-2.5297,-2.541,-2.541,-2.5737,-2.6122,-2.6499,-2.6499,-2.6499,-2.6499,-2.6499,-2.6499,-2.6499,-2.6499,-2.6499,-2.6546,-2.6985,-2.7292,-2.7557,-2.8169,-2.8546,-2.8805,-2.9494,-2.9872,-3.019,-3.1306,-3.1365,-3.1044,0.0,0.0,0.0,-0.39,0.0,-0.39,-0.39,-0.39,-0.3921,-0.3994,0.0,0.0,0.0,0.0,-0.4832,-0.4892,-0.5039,-0.5127,-0.5098,0.0,0.0,0.0,0.0,0.0,0.0,-0.5098,-0.5137,-0.5204,-0.5432,-0.6425,0.0,-0.8605,-0.9499,-1.0738,-1.1608,-1.2393,0.0,0.0,0.0,-1.1819,-1.1013,-1.1482,-1.2661,-1.2313,-1.2827,0.0,0.0,0.0,0.0,0.0,0.0,0.0,0.0,-0.8358,-0.7455,-0.6568,-0.6929,-0.785,-0.8827,0.0,0.0,0.0,0.0,0.0,0.0,0.0,0.0,0.0,0.0,0.0,0.0,0.0,0.0,0.0,0.0,0.0,0.0,0.0,0.0,0.0,0.0,0.0,0.0,0.0,0.0,0.0,0.0,0.0,-2.4544,-2.4687,-2.4788,-2.4788,-2.5159,-2.5598,-2.6197,-2.6197,-2.6298,-2.6499,-2.6499,-2.6499,-2.6499,-2.6499,-2.6499,-2.6499,-2.6499,-2.6499,-2.6524,-2.6889,-2.7153,-2.7356,-2.8084,-2.8562,-2.9038,-3.0193,-3.0602,-3.0696,-0.356,-0.3758,-0.39,-0.39,-0.3908,-0.3908,-0.39,-0.3908,-0.3978,-0.4182,0.0,0.0,0.0,0.0,0.0,-0.5098,-0.5186,-0.5176,-0.5098,-0.5098,0.0,0.0,0.0,0.0,0.0,-0.5098,-0.5195,-0.5385,-0.5651,-0.6318,-0.7352,-0.7561,-0.8507,-1.0003,-0.9307,-1.0163,-1.218,0.0,-1.3423,-1.344,0.0,-1.3365,-1.4385,0.0,0.0,0.0,-1.5142,-1.4324,0.0,0.0,0.0,0.0,0.0,-0.8438,-0.7037,-0.6523,-0.6748,-0.7287,0.0,0.0,0.0,0.0,0.0,0.0,0.0,0.0,0.0,0.0,0.0,0.0,0.0,0.0,0.0,0.0,0.0,0.0,0.0,0.0,0.0,0.0,0.0,0.0,0.0,0.0,0.0,0.0,0.0,-2.3966,-2.3966,-2.4481,-2.475,-2.4763,-2.4763,-2.5046,-2.5573,-2.5573,-2.5862,-2.6461,-2.6461,-2.6474,-2.6499,-2.6499,-2.6499,-2.6499,-2.6499,-2.6499,-2.6499,-2.6499,-2.6813,-2.7291,-2.7268,-2.7946,-2.895,-2.9779,-2.9943,-2.9985,-0.356,-0.3758,-0.39,-0.39,-0.4061,-0.4123,-0.3937,-0.4061,-0.4215,0.0,0.0,0.0,-0.4724,-0.5077,-0.5382,-0.5585,-0.5627,-0.5479,-0.5117,-0.5098,-0.5098,-0.5098,-0.5098,-0.5098,-0.5098,-0.5098,-0.5127,-0.5185,-0.5254,-0.5617,-0.6245,-0.6597,-0.734,-0.8385,-0.8854,-0.951,-1.0262,-1.0496,0.0,0.0,-1.2178,-1.2616,0.0,0.0,0.0,0.0,0.0,-1.4985,-1.4392,0.0,-1.3368,-1.2373,0.0,0.0,-0.8224,-0.808,-0.8417,-0.879,-0.8549,0.0,0.0,0.0,0.0,0.0,0.0,0.0,0.0,0.0,0.0,0.0,0.0,0.0,0.0,0.0,0.0,0.0,0.0,0.0,0.0,0.0,0.0,0.0,0.0,0.0,0.0,0.0,0.0,-2.3346,-2.3346,-2.3484,-2.376,-2.4217,-2.423,-2.4494,-2.5034,-2.5034,-2.531,-2.5837,-2.5837,-2.6084,-2.6499,-2.6499,-2.6499,-2.6499,-2.6499,-2.6499,-2.6499,-2.6499,-2.6587,-2.6763,-2.7165,-2.7469,-2.7869,-2.8847,-2.9214,-2.9252,-0.3842,-0.41,-0.4266,-0.4266,-0.4514,-0.4617,-0.4318,-0.4534,-0.4663,0.0,0.0,0.0,-0.4853,-0.5591,-0.6014,-0.5855,-0.5822,-0.5685,-0.541,-0.5215,-0.5098,-0.5098,-0.5098,-0.5098,-0.5098,-0.5098,-0.5098,-0.5098,-0.5098,-0.5244,-0.5518,-0.5751,-0.6287,-0.7079,-0.7327,-0.7995,-0.8923,-0.8428,0.0,0.0,-1.217,0.0,0.0,-1.4582,-1.4972,0.0,0.0,0.0,-1.4847,-1.4806,-1.4177,0.0,0.0,-1.0634,-0.991,-0.9223,-0.9572,-1.0101,-0.979,-1.0317,0.0,0.0,0.0,0.0,0.0,0.0,0.0,0.0,0.0,0.0,0.0,0.0,0.0,0.0,0.0,0.0,0.0,0.0,0.0,0.0,0.0,0.0,0.0,0.0,0.0,0.0,-2.2939,-2.2969,-2.3017,-2.3078,-2.3258,-2.3597,-2.364,-2.3904,-2.4469,-2.4481,-2.4745,-2.5272,-2.5272,-2.5561,-2.6135,-2.6135,-2.6273,-2.6499,-2.6499,-2.6499,-2.6499,-2.6499,-2.6499,-2.6524,-2.6851,-2.7115,-2.7392,-2.8009,-2.8386,-2.8662,0.0,-0.4597,-0.4809,-0.4858,-0.5129,-0.5246,-0.4961,-0.5195,-0.5297,0.0,-0.5024,-0.5184,-0.5547,-0.6397,-0.6713,-0.6224,-0.6005,-0.5863,-0.5804,-0.5409,-0.5146,-0.5098,-0.5098,-0.5098,-0.5098,-0.5098,-0.5098,-0.5098,-0.5098,-0.5098,-0.5098,-0.5098,-0.5442,-0.6055,-0.5393,-0.6181,-0.7934,-0.7011,0.0,-1.1451,-1.232,-1.3311,0.0,0.0,-1.5572,0.0,-1.6039,-1.5656,-1.4934,-1.4917,-1.4287,0.0,0.0,-1.1747,-1.1695,-1.0261,-1.0529,-1.1276,-1.1291,-1.1668,-1.227,0.0,0.0,0.0,0.0,-1.3023,0.0,0.0,0.0,0.0,0.0,0.0,0.0,0.0,0.0,0.0,0.0,0.0,0.0,0.0,0.0,0.0,0.0,0.0,0.0,-2.2592,-2.2684,-2.2739,-2.2878,-2.2987,-2.3078,-2.3078,-2.3078,-2.3358,-2.3891,-2.3904,-2.418,-2.47,-2.47,-2.5008,-2.5511,-2.5573,-2.5875,-2.6399,-2.6461,-2.6499,-2.6499,-2.6499,-2.6499,-2.6499,-2.6499,-2.6788,-2.7241,-2.7291,-2.7595,-2.8097,-0.4674,-0.475,-0.4887,-0.5151,-0.548,-0.5678,-0.562,-0.5884,-0.6091,-0.6025,-0.6381,-0.7162,-0.8492,-0.7697,-0.7285,-0.7861,-0.7005,-0.6263,-0.5832,-0.5719,-0.5498,-0.5117,-0.5098,-0.5098,-0.5098,-0.5098,-0.5098,-0.5098,-0.5098,-0.5098,-0.5098,-0.5098,-0.5176,-0.5303,-0.5166,-0.5714,-0.6807,-0.766,0.0,-1.0075,-1.094,0.0,-1.4198,-1.477,-1.5157,-1.5462,-1.5544,-1.5476,-1.5317,0.0,-1.495,-1.4336,0.0,0.0,0.0,-1.2154,0.0,-1.2376,-1.2382,-1.2782,-1.3035,-1.2384,0.0,0.0,0.0,-1.2788,0.0,0.0,0.0,0.0,0.0,0.0,0.0,0.0,0.0,0.0,0.0,0.0,0.0,0.0,0.0,0.0,0.0,0.0,-2.1559,-2.2031,-2.2474,-2.2708,-2.2739,-2.2878,-2.2939,-2.2939,-2.3047,-2.3158,-2.3271,-2.3283,-2.3559,-2.4167,-2.4167,-2.4443,-2.4983,-2.541,-2.5649,-2.5787,-2.6298,-2.6499,-2.6499,-2.6499,-2.6499,-2.6499,-2.6499,-2.6562,-2.6713,-2.7153,-2.7392,-2.7519,-0.4623,-0.4892,-0.521,-0.5544,-0.5955,-0.6246,-0.6246,-0.6534,-0.6746,-0.6746,-0.7427,-0.8077,-0.8553,-0.8177,-0.8037,-0.8368,-0.744,-0.6831,-0.6752,-0.6153,-0.5651,-0.5313,-0.5074,-0.4985,-0.5044,-0.4984,-0.5035,-0.5199,-0.5135,-0.5098,-0.5098,-0.5098,-0.5458,-0.6082,-0.5644,-0.6289,-0.7715,0.0,-0.8889,-1.0361,-1.1658,0.0,-1.389,-1.4775,-1.5225,-1.541,-1.541,-1.541,-1.5371,-1.5221,-1.4989,0.0,0.0,-1.3986,-1.3703,0.0,-1.3242,-1.3394,-1.3211,-1.3348,-1.3535,-1.3501,0.0,0.0,0.0,0.0,0.0,0.0,0.0,0.0,0.0,0.0,0.0,0.0,0.0,0.0,0.0,0.0,0.0,0.0,0.0,0.0,0.0,0.0,-2.0978,-2.1233,-2.156,-2.1871,-2.214,-2.2302,-2.2515,-2.2787,-2.2939,-2.2987,-2.2987,-2.3078,-2.3246,-2.3534,-2.3534,-2.3866,-2.4418,-2.4682,-2.5031,-2.5457,-2.5879,-2.6167,-2.6374,-2.6465,-2.6499,-2.6499,-2.6499,-2.6499,-2.6524,-2.6801,-2.6901,-2.6989,-0.4636,-0.5073,-0.5518,-0.5905,-0.6378,-0.6724,-0.6789,-0.7073,-0.7348,-0.7472,-0.8253,-0.8651,-0.8268,-0.8503,-0.8716,-0.8773,-0.7886,-0.7432,-0.7734,0.0,-0.5943,-0.5691,-0.5198,-0.4982,-0.5093,-0.4964,-0.4998,-0.5198,-0.5132,-0.5098,-0.5098,-0.5195,-0.5858,-0.6943,-0.6396,-0.7217,0.0,0.0,0.0,-1.1277,0.0,-1.3506,-1.3643,-1.4834,-1.5293,-1.5303,-1.5381,-1.5469,-1.5459,-1.4961,0.0,-1.4883,-1.4195,-1.437,0.0,0.0,0.0,0.0,0.0,0.0,0.0,0.0,0.0,-1.4049,0.0,0.0,0.0,-1.437,0.0,0.0,0.0,0.0,0.0,0.0,0.0,0.0,0.0,0.0,0.0,0.0,0.0,0.0,0.0,0.0,-2.0117,-2.0422,-2.0447,-2.0734,-2.1377,-2.1687,-2.2046,-2.2475,-2.2738,-2.2848,-2.2848,-2.2969,-2.3047,-2.3047,-2.3047,-2.3315,-2.3841,-2.3954,-2.4386,-2.5058,-2.5444,-2.5761,-2.6121,-2.638,-2.6499,-2.6499,-2.6499,-2.6499,-2.6499,-2.6499,-2.6499,-2.6562,-0.5195,-0.5347,-0.5582,-0.6154,-0.6491,-0.6804,-0.7107,-0.7428,-0.7844,-0.8443,-0.8892,-0.9395,-1.0017,0.0,0.0,-1.008,0.0,0.0,-0.7972,0.0,-0.6755,-0.6324,-0.5729,-0.5436,-0.544,-0.5322,-0.5121,-0.4856,-0.5019,-0.5098,-0.5108,-0.5527,-0.5998,-0.6501,-0.7184,0.0,0.0,0.0,-1.0801,0.0,-1.31,-1.3506,0.0,-1.4512,-1.4882,-1.4902,-1.5283,-1.5664,-1.5899,0.0,-1.5057,-1.5144,0.0,-1.3864,0.0,0.0,0.0,0.0,0.0,0.0,0.0,0.0,-1.4919,0.0,0.0,0.0,-1.3916,-1.3192,0.0,0.0,0.0,0.0,0.0,0.0,0.0,0.0,0.0,0.0,0.0,0.0,0.0,0.0,0.0,0.0,0.0,-1.9784,-1.9459,-1.9652,-2.0646,-2.1287,-2.1654,-2.1715,-2.2371,-2.2708,-2.2708,-2.2739,-2.28,-2.2909,-2.2909,-2.3024,-2.3221,-2.3766,-2.4067,-2.4199,-2.5184,-2.5636,-2.5703,-2.6285,-2.6499,-2.6499,-2.6499,-2.6499,-2.6499,-2.6499,-2.6499,-2.6499,-0.4899,-0.5178,-0.5543,-0.5996,-0.6287,-0.6636,-0.7129,-0.799,-0.8663,-0.8958,-0.9427,-0.9913,0.0,0.0,0.0,0.0,0.0,-0.8843,0.0,0.0,-0.7327,-0.7164,-0.6323,-0.5891,-0.5967,-0.5447,-0.5114,-0.4977,-0.4825,-0.4745,-0.4764,-0.5353,-0.6236,-0.7353,-0.787,0.0,-1.0849,0.0,0.0,0.0,0.0,0.0,0.0,-1.4639,-1.5146,-1.5205,-1.5664,-1.5772,-1.5664,0.0,-1.5146,0.0,0.0,0.0,0.0,0.0,0.0,0.0,0.0,0.0,0.0,0.0,0.0,0.0,0.0,0.0,-1.3836,0.0,0.0,0.0,0.0,0.0,0.0,0.0,0.0,0.0,0.0,0.0,0.0,0.0,0.0,0.0,0.0,0.0,0.0,0.0,0.0,-1.7847,-1.9175,-1.9793,-2.0515,-2.1457,-2.1849,-2.2207,-2.2512,-2.2647,-2.2739,-2.2769,-2.2769,-2.28,-2.2891,-2.3127,-2.335,-2.3564,-2.4149,-2.4661,-2.5154,-2.5549,-2.5937,-2.6339,-2.6339,-2.6396,-2.6499,-2.6499,-2.6499,-2.6499,-0.4689,-0.5078,-0.5467,-0.5727,-0.6118,-0.6643,-0.7362,-0.8377,-0.9097,-0.9185,0.0,0.0,-1.0543,-1.0163,0.0,0.0,-1.0386,-0.9801,0.0,0.0,-0.8011,-0.7972,-0.7046,0.0,0.0,-0.5861,-0.5424,-0.5238,-0.4924,-0.4771,-0.479,-0.5382,-0.6371,-0.7681,-0.8441,-0.9839,-1.1601,0.0,0.0,-1.2423,-1.2811,-1.331,-1.3903,-1.499,-1.5488,-1.5644,-1.6084,-1.6113,-1.5967,-1.6065,-1.5518,0.0,-1.5264,0.0,0.0,0.0,0.0,0.0,-1.3975,0.0,0.0,0.0,0.0,0.0,0.0,0.0,0.0,0.0,0.0,0.0,0.0,0.0,0.0,0.0,0.0,0.0,0.0,0.0,0.0,0.0,0.0,0.0,0.0,0.0,0.0,0.0,0.0,0.0,-1.7764,-1.8451,-1.9468,-2.089,-2.1349,-2.1795,-2.2328,-2.2494,-2.2586,-2.2616,-2.2616,-2.2659,-2.272,-2.272,-2.2825,-2.3079,-2.3352,-2.3953,-2.4676,-2.497,-2.5499,-2.6131,-2.6131,-2.6201,-2.6349,-2.6396,-2.643,-2.6396,-0.4934,-0.5205,0.0,0.0,0.0,-0.7015,-0.8026,-0.8473,-0.884,-0.9163,0.0,0.0,0.0,0.0,0.0,0.0,0.0,-1.0924,-1.06,0.0,-0.9011,0.0,0.0,-0.7486,0.0,0.0,-0.623,-0.5588,-0.5501,-0.5466,-0.5474,-0.5887,-0.631,-0.6822,-0.8858,-0.9911,-1.0243,-1.1375,-1.2263,-1.2889,-1.3112,-1.4336,-1.5948,0.0,-1.5674,-1.6134,-1.6553,0.0,0.0,-1.6378,-1.6328,0.0,0.0,0.0,0.0,0.0,0.0,0.0,0.0,0.0,0.0,-1.4336,0.0,0.0,0.0,0.0,-1.34,0.0,0.0,0.0,0.0,0.0,-1.2828,-1.288,0.0,0.0,0.0,0.0,0.0,0.0,0.0,0.0,0.0,0.0,0.0,0.0,0.0,0.0,-1.6559,-1.7706,-1.8765,-1.9731,-2.0831,-2.1656,-2.2185,-2.2228,-2.2278,-2.242,-2.242,-2.2525,-2.272,-2.272,-2.272,-2.2739,-2.3268,-2.3808,-2.4362,-2.4878,-2.5419,-2.591,-2.591,-2.591,-2.5945,-2.6131,-2.6213,-2.6166,0.0,0.0,0.0,0.0,0.0,-0.6634,-0.7997,-0.8831,-0.9497,0.0,0.0,0.0,0.0,0.0,-1.1821,0.0,0.0,-1.1663,-1.1522,-1.0441,0.0,0.0,0.0,-0.8361,0.0,0.0,-0.677,-0.6323,-0.5687,-0.5478,-0.57,-0.5842,-0.6353,-0.723,0.0,-0.9839,0.0,0.0,0.0,0.0,0.0,-1.4013,-1.5798,0.0,0.0,-1.6562,-1.7002,-1.707,0.0,-1.7266,-1.6875,-1.6338,-1.6621,-1.6113,-1.5381,-1.5244,-1.5508,0.0,0.0,0.0,-1.6044,-1.5176,0.0,0.0,0.0,0.0,0.0,0.0,0.0,0.0,0.0,0.0,-1.2397,-1.244,-1.1947,0.0,0.0,0.0,0.0,0.0,0.0,0.0,0.0,0.0,0.0,0.0,0.0,0.0,0.0,-1.6089,-1.7125,-1.8137,-1.9546,-2.0539,-2.1054,-2.182,-2.2216,-2.2278,-2.2278,-2.2309,-2.2371,-2.2371,-2.2371,-2.2383,-2.2565,-2.2941,-2.3474,-2.402,-2.4621,-2.5223,-2.5542,-2.5793,-2.591,-2.598,-2.598,-2.598,-0.4646,0.0,0.0,0.0,0.0,0.0,0.0,0.0,0.0,0.0,-1.1004,0.0,-1.2323,0.0,-1.2299,0.0,-1.2447,-1.2035,-1.1761,-1.1036,0.0,-1.0622,-0.9807,0.0,0.0,0.0,-0.7579,-0.7121,-0.635,-0.6029,0.0,-0.6029,-0.6409,0.0,0.0,0.0,-1.053,0.0,-1.1796,0.0,0.0,-1.4098,0.0,0.0,-1.6594,-1.698,0.0,-1.7181,-1.7168,-1.7194,-1.6826,-1.6485,-1.7049,-1.651,-1.5749,-1.6043,-1.6201,-1.624,-1.5927,-1.6268,0.0,-1.582,-1.5439,0.0,-1.3965,0.0,0.0,0.0,0.0,0.0,0.0,0.0,-1.2389,-1.2233,-1.1621,-1.0732,0.0,0.0,0.0,0.0,0.0,0.0,0.0,0.0,-1.1186,-1.1773,0.0,0.0,0.0,0.0,-1.6008,-1.7052,-1.8554,-1.9584,-2.0101,-2.0988,-2.1569,-2.18,-2.18,-2.1956,-2.2197,-2.2197,-2.2197,-2.2197,-2.2197,-2.2486,-2.3047,-2.3589,-2.414,-2.4762,-2.5282,-2.5571,-2.5688,-2.5758,-2.5758,-2.5688,0.0,0.0,0.0,0.0,-0.6948,0.0,0.0,0.0,-1.0217,0.0,-1.1222,-1.18,-1.2235,-1.2307,-1.2438,-1.2872,-1.2576,0.0,-1.1365,-1.1356,0.0,0.0,-1.0412,-1.0352,-1.0097,0.0,0.0,0.0,0.0,0.0,0.0,0.0,0.0,0.0,-0.7952,0.0,-0.9283,-1.0717,-1.1593,-1.2109,-1.3468,-1.4437,-1.5095,-1.5469,0.0,-1.7263,-1.694,-1.7295,-1.7657,-1.6202,-1.6202,-1.6828,-1.6828,-1.6528,-1.6318,-1.71,-1.7035,-1.6724,-1.6736,-1.6746,-1.6658,-1.6271,0.0,0.0,0.0,0.0,-1.4609,0.0,0.0,0.0,0.0,0.0,0.0,-1.2311,-1.1888,-1.1007,0.0,0.0,0.0,0.0,0.0,0.0,0.0,0.0,-1.0332,-1.1989,-1.1375,0.0,0.0,0.0,0.0,-1.636,-1.7825,-1.8842,-1.9331,-1.9823,-2.0398,-2.106,-2.106,-2.1431,-2.2092,-2.2092,-2.2092,-2.2154,-2.2154,-2.2455,-2.3047,-2.3589,-2.4073,-2.4544,-2.5107,-2.5312,-2.5312,-2.55,-2.5453,-2.5312,-0.5101,-0.5886,-0.6686,0.0,-0.7491,-0.8078,0.0,0.0,0.0,0.0,-1.1772,-1.241,-1.3504,-1.3492,-1.3351,-1.3205,-1.2559,0.0,0.0,0.0,0.0,-0.9948,-0.9947,-0.9888,-0.9731,-0.9537,0.0,-0.8861,0.0,0.0,-0.7206,0.0,0.0,0.0,0.0,0.0,-0.9055,-1.0142,-1.113,-1.2061,-1.2618,-1.3515,0.0,0.0,-1.5086,-1.6,-1.5992,-1.6132,-1.6237,-1.5816,-1.5851,-1.6026,-1.6026,-1.5922,-1.5921,-1.6358,-1.6682,-1.691,-1.7164,-1.7441,-1.7578,-1.7181,-1.6797,-1.6387,0.0,0.0,0.0,0.0,0.0,0.0,0.0,0.0,0.0,-1.2783,-1.2083,-1.131,0.0,0.0,0.0,0.0,0.0,0.0,0.0,-0.9873,-1.0303,-1.0742,-1.1183,0.0,0.0,0.0,0.0,-1.4715,-1.6519,-1.7731,-1.8216,-1.9112,-1.9831,-2.0355,-2.0355,-2.0463,-2.0656,-2.0656,-2.0912,-2.1388,-2.1388,-2.1989,-2.3047,-2.3589,-2.4073,-2.4544,-2.5107,-2.5312,-2.5312,-2.5347,-2.5347,-2.5312,-0.5197,0.0,0.0,-0.7527,0.0,0.0,-0.9118,0.0,0.0,-1.1214,-1.1501,0.0,-1.2867,-1.2655,-1.2338,-1.2064,-1.1621,0.0,0.0,0.0,0.0,-0.969,-0.9684,-0.958,-0.9442,-0.9388,0.0,-0.8837,0.0,0.0,-0.7377,0.0,0.0,0.0,0.0,-0.8351,0.0,-1.0308,-1.1372,-1.2052,-1.2459,0.0,0.0,-1.3579,-1.3861,-1.4358,-1.4466,-1.4966,-1.5498,-1.4824,-1.4895,-1.5207,-1.5207,-1.5207,-1.5307,-1.5825,-1.6164,-1.6436,-1.6606,-1.6809,-1.6929,-1.6708,-1.6477,-1.622,-1.5943,-1.5863,-1.5811,0.0,0.0,0.0,0.0,0.0,0.0,-1.2671,-1.2034,0.0,0.0,0.0,0.0,0.0,0.0,0.0,0.0,-0.9609,-1.0078,-1.0293,-1.0753,0.0,0.0,0.0,0.0,-1.4094,-1.5557,-1.6668,-1.7315,-1.8122,-1.889,-1.9606,-1.9606,-1.9802,-2.0096,-2.0096,-2.0302,-2.0645,-2.0645,-2.1153,-2.2037,-2.2567,-2.328,-2.4106,-2.4955,-2.5312,-2.5312,-2.5312,-2.5312,-2.5312,0.0,0.0,0.0,0.0,0.0,0.0,0.0,-0.9255,0.0,-1.0645,0.0,-1.1115,-1.1488,-1.1072,-1.0676,-1.0481,0.0,-1.0141,-0.9767,-0.9847,-0.9735,-0.9332,-0.9395,-0.9347,-0.912,-0.9087,0.0,0.0,0.0,-0.7646,-0.728,-0.6788,0.0,0.0,0.0,0.0,0.0,-1.0806,-1.176,0.0,-1.2576,-1.2826,-1.2856,-1.282,-1.2826,-1.2856,-1.282,-1.3825,-1.4966,-1.3622,-1.3688,-1.4386,-1.4386,-1.4386,-1.453,-1.5242,-1.549,-1.549,-1.5604,-1.564,-1.564,-1.564,-1.564,-1.5609,-1.5545,-1.5557,-1.5596,-1.5701,-1.5091,-1.4684,0.0,0.0,0.0,0.0,0.0,0.0,0.0,0.0,0.0,0.0,0.0,0.0,0.0,0.0,-0.9806,-1.0117,0.0,0.0,0.0,0.0,0.0,0.0,-1.4884,0.0,-1.6687,0.0,-1.7817,-1.8877,-1.8877,-1.921,-1.9835,-1.9835,-1.9868,-1.9966,-1.9966,-2.027,-2.0771,-2.1285,-2.223,-2.3464,-2.4578,-2.5016,-2.5016,-2.5016,-2.5052,-2.5158,0.0,0.0,0.0,0.0,0.0,-0.7744,-0.8143,-0.8925,-0.9706,-1.0326,-1.0532,0.0,-1.1603,-1.1393,-1.1075,-1.084,-1.0195,0.0,0.0,0.0,0.0,-0.8273,-0.8786,-0.8947,-0.8623,-0.8776,-0.8744,0.0,-0.7763,-0.7184,-0.6747,-0.675,-0.6598,0.0,0.0,0.0,-0.9701,-1.0489,0.0,-1.1545,-1.2173,-1.2489,-1.2636,-1.2489,-1.2526,-1.2636,-1.2452,-1.2813,-1.3324,-1.3039,-1.3039,-1.3185,-1.3185,-1.3185,-1.3324,-1.4078,-1.4294,-1.443,-1.51,-1.5305,-1.5305,-1.5305,-1.5305,-1.5271,-1.5286,-1.5253,-1.5271,-1.5316,-1.4705,-1.4104,-1.3832,0.0,0.0,0.0,0.0,0.0,0.0,0.0,0.0,0.0,0.0,0.0,0.0,0.0,-0.9912,0.0,0.0,0.0,0.0,0.0,0.0,0.0,0.0,0.0,0.0,0.0,0.0,-1.8178,-1.8178,-1.8236,-1.8371,-1.8371,-1.8654,-1.9177,-1.9177,-1.9828,-2.0917,-2.1319,-2.2111,-2.3095,-2.3331,-2.339,-2.339,-2.339,-2.3793,-2.442,0.0,0.0,0.0,0.0,0.0,0.0,0.0,-0.8606,0.0,-0.973,-0.9617,-0.9737,-1.0392,-1.0104,-0.9865,-0.9723,-0.9375,-0.9077,-0.89,-0.8417,-0.8154,-0.8154,-0.8348,0.0,-0.7978,-0.8193,-0.8253,-0.8199,-0.7461,-0.7072,-0.7062,-0.6821,-0.6598,-0.651,0.0,-0.8956,0.0,0.0,0.0,-1.1697,-1.2131,-1.2378,-1.2415,-1.2342,-1.2378,-1.2415,-1.2342,-1.2415,-1.2599,-1.2709,-1.2826,-1.29,-1.29,-1.29,-1.2973,-1.3331,-1.3433,-1.3506,-1.389,-1.3998,-1.3998,-1.3998,-1.3998,-1.4106,-1.4494,-1.4565,-1.4673,-1.4994,-1.4457,-1.3688,-1.287,-1.2448,0.0,0.0,0.0,0.0,0.0,0.0,0.0,0.0,0.0,0.0,0.0,0.0,0.0,0.0,0.0,0.0,0.0,0.0,0.0,0.0,0.0,0.0,0.0,0.0,0.0,-1.8008,-1.8008,-1.8008,-1.8008,-1.8008,-1.8178,-1.8496,-1.8496,-1.9073,-2.0131,-2.1212,-2.1945,-2.2435,-2.2846,-2.2995,-2.2995,-2.2995,-2.3206,-2.3647,0.0,-0.7041,0.0,0.0,-0.7691,0.0,0.0,-0.8442,-0.8807,-0.9123,-0.8792,-0.8667,-0.911,-0.8815,-0.8612,-0.8612,-0.8612,-0.8612,-0.8612,-0.843,-0.8349,-0.8349,-0.817,-0.7943,-0.7663,-0.7711,-0.7767,0.0,0.0,0.0,-0.7367,-0.6979,-0.6868,-0.7035,0.0,0.0,0.0,0.0,-1.1485,-1.1933,-1.2184,-1.2305,-1.2305,-1.2305,-1.2305,-1.2305,-1.2305,-1.2305,-1.2335,-1.2489,-1.2636,-1.2783,-1.2783,-1.2783,-1.2783,-1.2783,-1.2783,-1.2783,-1.2783,-1.2783,-1.2783,-1.2783,-1.2783,-1.2929,-1.3499,-1.3644,-1.3766,-1.4165,-1.3695,-1.2946,-1.2051,-1.2089,0.0,0.0,0.0,0.0,0.0,0.0,0.0,0.0,0.0,0.0,0.0,0.0,0.0,0.0,0.0,0.0,0.0,0.0,0.0,0.0,0.0,-1.4903,-1.6541,0.0,-1.7126,0.0,-1.8008,-1.8008,-1.8008,-1.8008,-1.8008,-1.8008,-1.8008,-1.8496,-1.9419,-2.0805,-2.1445,-2.1614,-2.2247,-2.251,-2.251,-2.251,-2.2585,-2.2846,0.0,0.0,0.0,0.0,0.0,0.0,0.0,-0.8816,-0.8963,-0.8692,-0.8603,-0.8603,-0.8642,-0.8636,-0.8612,-0.8612,-0.8612,-0.8612,-0.8612,-0.8596,-0.8588,-0.8588,-0.8361,-0.8247,-0.8215,-0.7782,-0.7502,0.0,0.0,0.0,0.0,-0.7263,-0.7705,-0.8261,0.0,0.0,0.0,-1.1136,-1.157,-1.1933,-1.2184,-1.2305,-1.2305,-1.2305,-1.2305,-1.2305,-1.2305,-1.2305,-1.2305,-1.2335,-1.2342,-1.2378,-1.2378,-1.2378,-1.2378,-1.2378,-1.2378,-1.2378,-1.2378,-1.2378,-1.2378,-1.2378,-1.2378,-1.2372,-1.2445,-1.2445,-1.2408,-1.2208,-1.1676,-1.1256,-1.1195,-1.097,-1.1047,0.0,0.0,0.0,0.0,0.0,0.0,0.0,0.0,0.0,0.0,0.0,0.0,0.0,0.0,0.0,0.0,0.0,0.0,-1.3496,0.0,-1.4747,-1.6144,-1.6533,0.0,-1.8008,-1.8008,-1.8008,-1.8008,-1.8008,-1.8008,-1.8008,-1.8008,-1.8496,-1.9326,-1.986,-2.0319,-2.0712,-2.0789,-2.0828,-2.0828,-2.0828,-2.128,-2.1907,0.0,0.0,0.0,0.0,0.0,0.0,0.0,-0.9064,-0.9125,-0.8913,-0.8787,-0.8682,-0.862,-0.8612,-0.8612,-0.8612,-0.8612,-0.8612,-0.8612,-0.8612,-0.8612,-0.8612,-0.8539,-0.8406,-0.8292,-0.7967,-0.7807,0.0,0.0,0.0,0.0,-0.7816,-0.7866,0.0,0.0,-0.9217,-0.9846,-1.0235,-1.0922,-1.1865,-1.1978,-1.2331,-1.2846,-1.2846,-1.2846,-1.2846,-1.2846,-1.2846,-1.2846,-1.2846,-1.2605,-1.2305,-1.2305,-1.2305,-1.2305,-1.2305,-1.2305,-1.2305,-1.2305,-1.2305,-1.2305,-1.2305,-1.2305,-1.2305,-1.2305,-1.2305,-1.2218,-1.1966,-1.1437,-1.0959,-1.0816,-1.0838,-1.0957,0.0,0.0,0.0,0.0,0.0,0.0,0.0,0.0,0.0,0.0,0.0,0.0,0.0,0.0,-0.8344,-0.9796,0.0,0.0,-1.3076,0.0,-1.4756,-1.6085,-1.6514,-1.7126,-1.8008,-1.8008,-1.8008,-1.8008,-1.8008,-1.8008,-1.8037,-1.8555,-1.8975,-1.9336,-2.0019,-2.0449,-2.0605,-2.0605,-2.0605,-2.0605,-2.0605,-2.0789,-2.1088,-0.7023,0.0,-0.7344,0.0,-0.845,-0.8493,-0.9142,-0.9324,-0.9324,-0.9194,-0.906,-0.8913,-0.8788,-0.8767,-0.8702,-0.8649,-0.8641,-0.8621,-0.8616,-0.8612,-0.8612,-0.8612,-0.8612,0.0,-0.8377,-0.8191,-0.8084,-0.8053,-0.8129,0.0,0.0,-0.8163,0.0,0.0,-0.8667,-0.9128,-0.9516,-0.9779,-1.05,-1.1381,-1.1381,-1.1948,-1.2803,-1.2803,-1.2969,-1.3213,-1.3213,-1.3213,-1.3213,-1.3213,-1.2926,-1.2552,-1.2458,-1.2371,-1.2305,-1.2305,-1.2305,-1.2305,-1.2305,-1.2305,-1.2305,-1.2305,-1.2305,-1.2305,-1.2305,-1.2305,-1.2191,-1.1817,-1.1276,-1.0834,-1.0626,-1.0777,-1.0904,-1.0767,0.0,0.0,0.0,0.0,0.0,0.0,0.0,-0.884,0.0,0.0,0.0,0.0,0.0,-0.853,-1.005,0.0,0.0,0.0,0.0,0.0,0.0,-1.6631,-1.7285,-1.8008,-1.8008,-1.8008,-1.8008,-1.8008,-1.8008,-1.8057,-1.8916,-1.9287,-1.9355,-2.0253,-2.0605,-2.0605,-2.0605,-2.0605,-2.0605,-2.0605,-2.0605,-2.0605,-0.65,-0.6691,-0.7057,-0.822,-0.8418,-0.8665,-0.9472,-0.9575,-0.9559,-0.9424,-0.94,-0.9331,-0.9112,-0.9092,-0.9015,-0.8832,-0.882,-0.8747,-0.862,-0.8612,-0.8612,0.0,0.0,-0.8612,-0.8608,-0.8381,-0.8195,-0.8004,0.0,0.0,-0.7818,-0.8196,-0.8632,-0.9098,-0.9441,-0.9752,-1.0016,-1.0287,-1.0388,-1.0433,-1.0433,-1.0968,-1.1834,-1.1834,-1.2399,-1.3213,-1.3213,-1.3213,-1.3213,-1.3213,-1.3206,-1.3146,-1.2878,-1.2576,-1.2305,-1.2305,-1.2305,-1.2305,-1.2305,-1.2305,-1.2305,-1.2305,-1.2305,-1.2305,-1.2305,-1.2305,-1.2138,-1.1515,-1.0969,-1.0593,-1.0593,-1.0586,-1.0705,-1.1039,0.0,0.0,0.0,0.0,0.0,0.0,-0.9099,-0.9168,-0.8842,0.0,0.0,0.0,0.0,0.0,0.0,0.0,0.0,-1.3447,-1.4336,0.0,-1.6085,-1.6966,-1.7588,-1.8008,-1.8008,-1.8008,-1.8008,-1.8008,-1.8008,-1.8057,-1.8916,-1.9287,-1.9355,-2.0253,-2.0605,-2.0605,-2.0605,-2.0605,-2.0605,-2.0605,-2.0605,-2.0605,-0.6067,-0.623,-0.65,-0.7422,-0.7879,-0.8276,-0.873,-0.8627,-0.8753,-0.9449,-0.9543,-0.9518,-0.9466,-0.9242,-0.9076,0.0,-0.9011,-0.8986,0.0,-0.893,-0.8873,-0.8743,-0.8739,-0.8686,-0.8612,-0.8555,-0.839,-0.8203,0.0,0.0,0.0,-0.8609,-0.8568,-0.8348,-0.8449,-0.863,-0.8861,-0.8919,-0.94,-1.0079,-1.0079,-1.063,-1.148,-1.148,-1.2027,-1.2875,-1.2875,-1.3256,-1.3808,-1.3808,-1.3674,-1.3447,-1.3387,-1.316,-1.2879,-1.2703,-1.2643,-1.2596,-1.2358,-1.2305,-1.2305,-1.2305,-1.2305,-1.2305,-1.2305,-1.2151,-1.1897,-1.151,-1.1122,-1.0827,-1.0626,-1.0593,-1.0622,-1.0733,-1.0475,0.0,0.0,0.0,0.0,0.0,0.0,-0.8917,0.0,-0.8541,0.0,0.0,0.0,0.0,0.0,0.0,0.0,0.0,-1.4197,0.0,-1.6085,-1.6975,-1.7598,-1.8008,-1.8008,-1.8008,-1.8008,-1.8008,-1.8164,-1.8432,-1.9043,-1.9453,-1.9766,-2.037,-2.0605,-2.0605,-2.0605,-2.0605,-2.0605,-2.0605,-2.0605,-2.0605,-0.5438,-0.5539,-0.5789,-0.6589,-0.7036,-0.7431,-0.7882,-0.7832,-0.7928,-0.863,-0.868,-0.8829,-0.913,-0.8941,0.0,-0.9198,-0.9194,-0.9165,-0.91,-0.9096,-0.9047,-0.893,-0.8926,-0.8873,-0.8767,0.0,0.0,-0.8491,-0.87,-0.8793,-0.8712,-0.8633,-0.8457,-0.8223,-0.8223,-0.8284,-0.8394,-0.8394,-0.8801,-0.9428,-0.9428,-0.9946,-1.0766,-1.0766,-1.1365,-1.2186,-1.2186,-1.279,-1.3568,-1.3568,-1.3661,-1.3808,-1.3808,-1.3687,-1.346,-1.3085,-1.2958,-1.2891,-1.2552,-1.2509,-1.2445,-1.2331,-1.2305,-1.2305,-1.2305,-1.2078,-1.1852,-1.163,-1.1269,-1.0942,-1.0787,-1.0667,-1.0593,-1.0593,-1.0307,-1.0013,-0.9726,0.0,0.0,0.0,0.0,0.0,0.0,-0.8865,0.0,0.0,0.0,0.0,0.0,0.0,0.0,-1.2088,-1.4126,0.0,-1.6116,-1.7125,-1.7744,-1.8008,-1.8008,-1.8008,-1.8008,-1.8008,-1.8208,-1.8627,-1.9102,-1.9531,-1.9951,-2.0429,-2.0605,-2.0605,-2.0605,-2.0605,-2.0605,-2.0605,-2.0605,-2.0605,-0.4684,-0.4684,0.0,0.0,-0.5842,0.0,-0.6989,-0.7138,-0.7138,-0.7188,-0.7188,-0.7484,-0.8233,-0.8333,-0.8618,-0.9244,0.0,0.0,0.0,-0.9133,-0.9129,-0.9116,-0.9116,-0.9108,-0.9096,-0.888,-0.8741,-0.8729,-0.8447,-0.8367,-0.8564,-0.8346,-0.8359,-0.8568,-0.8568,-0.8568,-0.8568,-0.8568,-0.8568,-0.8568,-0.8564,-0.9038,-0.9772,-0.9816,-1.0376,-1.1198,-1.1198,-1.18,-1.2619,-1.2619,-1.3222,-1.3997,-1.3997,-1.3997,-1.3975,-1.3407,-1.324,-1.3173,-1.2904,-1.2804,-1.2717,-1.2405,-1.2318,-1.2305,-1.2305,-1.2091,-1.1933,-1.1906,-1.1436,-1.1042,-1.1002,-1.0807,-1.0606,-1.0566,-1.0281,-0.9987,-0.9693,0.0,0.0,0.0,0.0,0.0,0.0,-0.9365,-0.9559,0.0,0.0,0.0,0.0,0.0,-1.1191,-1.2506,-1.4026,-1.5246,-1.6072,-1.7267,-1.7872,-1.794,-1.7974,-1.8008,-1.8008,-1.8037,-1.8247,-1.8666,-1.9141,-1.957,-1.999,-2.0439,-2.0605,-2.0605,-2.0605,-2.0605,-2.0605,-2.0605,-2.0605,-2.0605,0.0,0.0,-0.3783,-0.4384,-0.4485,-0.4887,-0.6089,-0.6289,-0.6492,-0.7138,-0.7188,-0.7288,-0.7487,-0.7839,-0.8173,-0.8333,-0.9068,-0.9547,-0.9506,-0.9502,-0.9441,-0.9347,-0.9152,-0.9045,-0.91,-0.8629,-0.836,-0.8284,-0.8207,-0.812,-0.8076,-0.8034,-0.8038,-0.8076,-0.8076,-0.8076,-0.8076,-0.8076,-0.8076,-0.8076,-0.8248,-0.842,-0.864,-0.8823,-0.9471,-1.0246,-1.0246,-1.0847,-1.1628,-1.1628,-1.2143,-1.279,-1.279,-1.3264,-1.3756,-1.3566,-1.35,-1.344,-1.318,-1.2965,-1.2764,-1.2697,-1.2509,-1.2305,-1.2305,-1.2245,-1.2138,-1.1953,-1.1792,-1.1558,-1.1076,-1.0935,-1.0742,-1.0294,-0.998,-0.9679,-0.9357,-0.9257,0.0,0.0,-0.9399,-0.9552,-0.9486,-0.9606,-0.9559,0.0,0.0,0.0,0.0,-1.0134,-1.1036,-1.1943,-1.3475,-1.4569,-1.5138,-1.5765,-1.6446,-1.7182,-1.7725,-1.8008,-1.8018,-1.8305,-1.8721,-1.916,-1.958,-2.001,-2.0458,-2.0556,-2.0605,-2.0605,-2.0605,-2.0605,-2.0605,-2.0605,-2.0605,-2.0605,-0.318,-0.318,-0.3281,-0.3581,-0.3632,-0.3883,-0.4587,-0.4738,-0.4937,-0.5584,-0.5484,-0.5436,-0.5634,-0.6082,-0.6481,-0.688,-0.8326,-0.9229,-0.9229,-0.9229,-0.9182,-0.9137,-0.8987,-0.8945,-0.8952,-0.8636,-0.8374,-0.821,-0.821,-0.8165,-0.8076,-0.8076,-0.8076,-0.8076,-0.8076,-0.8076,-0.8076,-0.8076,-0.8076,-0.8076,-0.8208,-0.8253,-0.8246,-0.8356,-0.8682,-0.9061,-0.902,-0.955,-1.0323,-1.0323,-1.0966,-1.1746,-1.1746,-1.2137,-1.2589,-1.2572,-1.3169,-1.374,-1.3447,-1.3287,-1.3093,-1.2851,-1.2663,-1.2509,-1.2331,-1.2305,-1.2258,-1.2098,-1.2,-1.1765,-1.1276,-1.1082,-1.0802,-1.0214,-0.998,-0.978,-0.9486,-0.9446,0.0,-0.9446,-0.9699,-0.9826,-0.9699,-0.9956,-0.996,-0.9637,0.0,0.0,-1.0047,-1.0501,-1.1038,-1.1567,-1.2971,-1.3966,-1.4428,-1.5037,-1.5631,-1.6123,-1.662,-1.6881,-1.689,-1.7727,-1.833,-1.883,-1.9577,-2.0166,-2.0605,-2.0605,-2.0605,-2.0605,-2.0605,-2.0605,-2.0605,-2.0605,-2.0605,-2.0605,-0.2978,-0.2978,-0.2978,-0.3079,-0.3079,-0.313,-0.318,-0.318,-0.3331,-0.3731,-0.3481,-0.338,-0.363,-0.3929,-0.4477,-0.5275,-0.712,-0.8223,-0.8322,-0.8322,-0.8372,-0.8574,-0.8524,-0.8574,-0.8775,-0.8646,-0.8449,-0.8233,-0.8233,-0.8222,-0.82,-0.82,-0.82,-0.82,-0.82,-0.82,-0.82,-0.82,-0.82,-0.82,-0.8247,-0.8247,-0.8232,-0.8145,-0.8139,-0.8121,-0.8024,-0.8452,-0.9054,-0.9029,-0.98,-1.0699,-1.0712,-1.088,-1.1149,-1.1149,-1.2314,-1.351,-1.3313,-1.3298,-1.3176,-1.2512,-1.2427,-1.2406,-1.2008,-1.1992,-1.2077,-1.2114,-1.2032,-1.1844,-1.155,-1.1256,-1.0848,-1.019,-1.0083,-1.0,-0.9666,0.0,-0.9766,-0.9842,-1.0074,-1.0167,-0.9967,-1.0432,-1.0588,-1.0334,-1.0548,-1.0827,0.0,-1.1102,-1.1196,-1.1395,-1.2495,-1.331,-1.3781,-1.4601,-1.5021,-1.5021,-1.5313,-1.5463,-1.5507,-1.674,-1.7542,-1.8007,-1.9108,-1.9908,-2.0411,-2.0411,-2.0479,-2.0605,-2.0605,-2.0605,-2.0605,-2.0605,-2.0605,-2.0605,-0.1869,-0.1869,-0.1969,-0.2422,-0.2522,-0.2674,-0.313,-0.318,-0.3331,-0.3731,-0.3731,-0.3479,-0.2925,-0.2925,-0.3325,-0.4175,-0.4974,-0.5625,-0.6071,-0.6074,-0.6523,-0.7422,-0.7226,-0.7627,-0.8775,-0.8555,-0.8269,-0.7873,-0.7873,-0.7808,-0.7691,-0.7691,-0.7691,-0.7691,-0.7691,-0.7691,-0.7691,-0.7691,-0.7691,-0.7738,-0.7875,-0.7966,-0.7962,-0.8171,-0.8253,-0.8253,-0.8227,-0.8309,-0.8425,-0.8291,-0.8775,-0.9366,-0.9244,-0.9797,-1.0448,-1.0448,-1.0788,-1.1209,-1.1573,-1.193,-1.1858,-1.049,-1.0678,-1.1028,-1.0324,-1.0644,-1.1093,-1.1254,-1.1786,-1.2144,-1.185,-1.1557,-1.1082,-1.0217,-1.0083,-0.9897,-0.9357,0.0,-1.014,-1.0425,-1.0713,-1.0935,-1.1136,-1.1202,-1.1242,-1.1189,-1.1269,-1.1275,-1.1322,-1.1597,-1.1765,-1.1807,-1.1994,-1.2327,-1.2813,-1.3716,-1.4186,-1.4178,-1.4922,-1.5234,-1.5259,-1.6033,-1.6564,-1.691,-1.7713,-1.8616,-1.9499,-1.9499,-1.9932,-2.0605,-2.0605,-2.0605,-2.0605,-2.0605,-2.0605,-2.0605,-0.1617,-0.1617,-0.1667,-0.1919,-0.1969,-0.207,-0.2323,-0.2323,-0.2424,-0.2574,-0.2624,-0.2473,-0.2121,-0.212,-0.2271,-0.2672,-0.2923,-0.3173,-0.3423,-0.4524,-0.5375,-0.5872,-0.5774,-0.6276,-0.7481,-0.7932,-0.8103,-0.7884,-0.7884,-0.785,-0.7838,-0.7838,-0.7838,-0.7838,-0.7838,-0.7838,-0.7838,-0.7838,-0.7838,-0.7834,-0.7931,-0.7976,-0.7969,-0.8027,-0.8039,-0.8032,-0.7951,-0.7922,-0.7912,-0.7844,-0.8094,-0.8425,-0.8297,-0.8641,-0.9114,-0.9007,-0.9879,-1.0869,-1.1095,-1.1369,-1.1396,-1.0569,-1.0642,-1.074,-1.0163,-1.0247,-1.0585,-1.1023,-1.1409,-1.1697,-1.1888,-1.1623,-1.1209,-1.0675,-1.0454,0.0,0.0,-1.0321,-1.0641,-1.0807,-1.1049,-1.1242,-1.1375,-1.1389,-1.1389,-1.1389,-1.1389,-1.1496,-1.1657,-1.1832,-1.198,-1.2098,-1.2104,-1.2201,-1.2452,-1.2886,-1.3062,-1.3098,-1.3564,-1.3864,-1.4051,-1.5139,-1.5776,-1.6116,-1.7063,-1.7787,-1.8238,-1.8238,-1.8479,-1.8829,-1.8988,-1.9313,-1.9766,-1.9854,-2.0216,-2.0605,-0.1617,-0.1617,-0.1617,-0.1617,-0.1617,-0.1617,-0.1617,-0.1617,-0.1617,-0.1617,-0.1617,-0.1617,-0.1617,-0.1617,-0.1617,-0.1617,-0.1617,-0.1617,-0.1617,-0.3123,-0.4175,-0.4423,-0.4674,-0.5177,-0.6032,-0.7086,-0.764,-0.764,-0.7889,-0.7988,-0.7988,-0.7988,-0.7988,-0.7988,-0.7988,-0.7988,-0.7988,-0.7988,-0.7988,-0.7988,-0.7988,-0.7988,-0.7978,-0.7909,-0.7865,-0.7848,-0.774,-0.7702,-0.7695,-0.7662,-0.7739,-0.7853,-0.7699,-0.7837,-0.7945,-0.7826,-0.8924,-1.0183,-1.0183,-1.0453,-1.0633,-1.0121,-1.0169,-1.0165,-0.9621,-0.9582,-0.9852,-1.0405,-1.0773,-1.1156,-1.1644,-1.1618,-1.1436,-1.1142,0.0,0.0,0.0,-1.0909,-1.1122,-1.1189,-1.139,-1.1557,-1.1588,-1.1595,-1.1595,-1.1595,-1.1595,-1.173,-1.1993,-1.2007,-1.2107,-1.2291,-1.2305,-1.2305,-1.2305,-1.2305,-1.2305,-1.2305,-1.2452,-1.2682,-1.2981,-1.4127,-1.4879,-1.5288,-1.6215,-1.6764,-1.7017,-1.7017,-1.7131,-1.7334,-1.7536,-1.8029,-1.8638,-1.9006,-1.9569,-2.0157,-0.1617,-0.1617,-0.1617,-0.1617,-0.1617,-0.1617,-0.1617,-0.1617,-0.1617,-0.1617,-0.1617,-0.1617,-0.1617,-0.1617,-0.1617,-0.1617,-0.1617,-0.1617,-0.1617,-0.1768,-0.227,-0.3274,-0.4275,-0.4824,-0.4924,-0.5982,-0.6537,-0.6537,-0.7537,-0.7988,-0.7988,-0.7988,-0.7988,-0.7988,-0.7988,-0.7988,-0.7988,-0.7988,-0.7988,-0.7988,-0.7988,-0.7988,-0.7988,-0.7978,-0.7971,-0.7971,-0.7961,-0.7958,-0.7934,-0.7841,-0.7794,-0.777,-0.7628,-0.763,-0.76,-0.7492,-0.7568,-0.7768,-0.7768,-0.8416,-0.8798,-0.765,-0.7919,-0.8306,-0.7569,-0.7812,-0.8278,-0.8702,-0.9887,-1.0901,-1.1118,-1.1561,-1.1779,-1.1409,0.0,0.0,-1.1002,-1.1209,-1.1496,-1.1806,-1.1859,-1.198,-1.2211,-1.2238,-1.2238,-1.2238,-1.2238,-1.2245,-1.2271,-1.2271,-1.2278,-1.2305,-1.2305,-1.2305,-1.2305,-1.2305,-1.2305,-1.2305,-1.2335,-1.2496,-1.2835,-1.3184,-1.3633,-1.413,-1.4469,-1.5179,-1.6083,-1.6083,-1.6568,-1.7302,-1.7334,-1.7383,-1.7504,-1.8359,-1.8678,-1.8877,-0.1516,-0.1617,-0.1617,-0.1617,-0.1617,-0.1617,-0.1617,-0.1617,-0.1617,-0.1617,-0.1617,-0.1617,-0.1617,-0.1617,-0.1617,-0.1617,-0.1617,-0.1617,-0.1617,-0.1617,-0.1768,-0.217,-0.3224,-0.3823,-0.3823,-0.4876,-0.5427,-0.5427,-0.5827,-0.6379,-0.6986,-0.6986,-0.7388,-0.7988,-0.7988,-0.7988,-0.7988,-0.7988,-0.7988,-0.7988,-0.7988,-0.7988,-0.7988,-0.7988,-0.7988,-0.7988,-0.7988,-0.7988,-0.7982,-0.7924,-0.7904,-0.7877,-0.7777,-0.7729,-0.7702,-0.7556,-0.7499,-0.7424,-0.7424,-0.7841,-0.8157,-0.7716,-0.7844,-0.7942,-0.7539,-0.7586,-0.7912,-0.8446,-0.8902,-0.9416,-0.999,-1.0467,-1.0827,-1.0996,0.0,-1.1278,-1.153,-1.1665,-1.1744,-1.1893,-1.2067,-1.2178,-1.2291,-1.2305,-1.2305,-1.2305,-1.2305,-1.2305,-1.2305,-1.2305,-1.2305,-1.2305,-1.2305,-1.2305,-1.2305,-1.2305,-1.2305,-1.2305,-1.2529,-1.2777,-1.3046,-1.3347,-1.3682,-1.4088,-1.4154,-1.4447,-1.4824,-1.4824,-1.5026,-1.5352,-1.5462,-1.5827,-1.6355,-1.6813,-1.7342,-1.7908,-0.0959,-0.1364,-0.1515,-0.1161,-0.1364,-0.1617,-0.1617,-0.1617,-0.1617,-0.1617,-0.1617,-0.1617,-0.1617,-0.1617,-0.1617,-0.1617,-0.1617,-0.1617,-0.1617,-0.1617,-0.1617,-0.1617,-0.2321,-0.2722,-0.2722,-0.3775,-0.4273,-0.4273,-0.4624,-0.5177,-0.5882,-0.5882,-0.6484,-0.7487,-0.7487,-0.769,-0.7988,-0.7988,-0.7988,-0.7988,-0.7988,-0.7988,-0.7988,-0.7988,-0.7988,-0.7988,-0.7988,-0.7988,-0.7988,-0.7988,-0.7988,-0.7971,-0.7916,-0.7848,-0.779,-0.7695,-0.756,-0.7434,-0.7429,-0.7566,-0.7741,-0.7643,-0.7632,-0.7599,-0.7487,-0.7425,-0.7527,-0.7988,-0.8191,-0.8462,-0.9086,-0.9599,-1.0032,-1.0343,-1.0475,-1.0658,-1.1027,-1.1088,-1.1124,-1.116,-1.1322,-1.1471,-1.1545,-1.1774,-1.1929,-1.1929,-1.2157,-1.2305,-1.2305,-1.2305,-1.2305,-1.2305,-1.2305,-1.2305,-1.2305,-1.2305,-1.2305,-1.2305,-1.2643,-1.2951,-1.322,-1.3467,-1.3766,-1.4088,-1.4088,-1.4088,-1.4088,-1.4088,-1.4088,-1.413,-1.4243,-1.4685,-1.5262,-1.567,-1.6206,-1.6813,0.0101,-0.0858,-0.1262,-0.0202,-0.0858,-0.1566,-0.1566,-0.1566,-0.1566,-0.1566,-0.1617,-0.1617,-0.1617,-0.1617,-0.1617,-0.1617,-0.1617,-0.1617,-0.1617,-0.1617,-0.1617,-0.1617,-0.1617,-0.1617,-0.1617,-0.2622,-0.3173,-0.3173,-0.4275,-0.4774,-0.4774,-0.4774,-0.5379,-0.6387,-0.6387,-0.6989,-0.7988,-0.7988,-0.7988,-0.7988,-0.7988,-0.7988,-0.7988,-0.7988,-0.7988,-0.7988,-0.7988,-0.7988,-0.7988,-0.7988,-0.7988,-0.7988,-0.7988,-0.7887,-0.7814,-0.7814,-0.7712,-0.7567,-0.746,-0.7419,-0.7333,-0.7136,-0.7095,-0.7095,-0.7095,-0.6987,-0.6972,-0.7136,-0.7716,-0.8246,-0.8451,-0.9049,-0.9497,-0.9497,-0.9399,-0.9301,-0.9301,-0.9301,-0.9372,-0.9561,-0.9593,-0.9669,-0.9895,-1.0614,-1.1074,-1.1074,-1.1818,-1.2268,-1.2268,-1.2298,-1.2298,-1.2298,-1.2305,-1.2305,-1.2305,-1.2305,-1.2305,-1.2311,-1.2643,-1.2951,-1.3227,-1.3473,-1.3808,-1.4088,-1.4088,-1.4088,-1.4088,-1.4088,-1.4088,-1.4088,-1.4088,-1.4088,-1.4208,-1.5068,-1.5394,-1.5519,0.1412,0.0706,0.0202,0.0504,0.0,-0.0353,0.005,-0.0252,-0.0555,-0.0757,-0.1263,-0.1617,-0.1617,-0.1617,-0.1617,-0.1617,-0.1617,-0.1617,-0.1617,-0.1617,-0.1617,-0.1617,-0.1617,-0.1617,-0.1617,-0.1919,-0.207,-0.207,-0.2422,-0.2923,-0.3674,-0.3674,-0.4225,-0.5277,-0.5277,-0.5879,-0.6886,-0.6886,-0.7288,-0.7988,-0.7988,-0.7988,-0.7988,-0.7988,-0.7988,-0.7988,-0.7988,-0.7988,-0.7988,-0.7988,-0.7988,-0.7988,-0.7988,-0.7958,-0.7921,-0.7921,-0.7865,-0.774,-0.7692,-0.7529,-0.7333,-0.7136,-0.7095,-0.7095,-0.7095,-0.7061,-0.7078,-0.7119,-0.7214,-0.732,-0.7363,-0.7924,-0.8405,-0.8563,-0.9042,-0.9384,-0.9422,-0.9441,-0.9425,-0.9392,-0.9372,-0.941,-0.9485,-0.9712,-0.99,-1.0051,-1.0383,-1.0608,-1.0608,-1.1143,-1.1446,-1.1446,-1.2003,-1.2405,-1.265,-1.2405,-1.2405,-1.2656,-1.2926,-1.3227,-1.3487,-1.3821,-1.4001,-1.4088,-1.4088,-1.4088,-1.4088,-1.4088,-1.4088,-1.4088,-1.4088,-1.4088,-1.413,-1.4377,-1.4496,-1.4615,0.2472,0.1815,0.126,0.126,0.0907,0.0655,0.0806,0.0706,0.0504,0.0101,-0.0353,-0.0656,-0.0656,-0.0959,-0.1111,-0.1111,-0.1415,-0.1617,-0.1617,-0.1617,-0.1617,-0.1617,-0.1617,-0.1617,-0.1617,-0.1617,-0.1617,-0.1617,-0.1617,-0.1868,-0.2421,-0.2421,-0.2922,-0.387,-0.387,-0.4524,-0.5629,-0.5629,-0.6029,-0.6781,-0.7185,-0.7388,-0.7437,-0.7839,-0.7988,-0.7988,-0.7988,-0.7988,-0.7988,-0.7988,-0.7988,-0.7988,-0.7988,-0.7988,-0.7988,-0.7988,-0.7924,-0.7889,-0.7828,-0.7682,-0.7509,-0.736,-0.7186,-0.7095,-0.7095,-0.7095,-0.7095,-0.7095,-0.7028,-0.6967,-0.6967,-0.7268,-0.7537,-0.7659,-0.8052,-0.8331,-0.8372,-0.8395,-0.8396,-0.84,-0.8359,-0.8353,-0.8431,-0.8665,-0.8993,-0.9448,-0.9593,-0.9749,-0.991,-1.0378,-1.0696,-1.0831,-1.1649,-1.2197,-1.2415,-1.2554,-1.2752,-1.2971,-1.324,-1.3433,-1.3613,-1.3948,-1.4088,-1.4088,-1.4088,-1.4088,-1.4088,-1.4088,-1.4088,-1.4088,-1.4088,-1.4088,-1.4088,-1.4088,-1.4088,-1.4173,0.318,0.2623,0.2118,0.2118,0.1916,0.1563,0.1109,0.1361,0.1462,0.0958,0.0857,0.0806,0.0806,0.0151,-0.0303,-0.0303,-0.101,-0.1465,-0.1566,-0.1566,-0.1516,-0.1516,-0.1516,-0.1516,-0.1516,-0.1566,-0.1566,-0.1566,-0.1516,-0.1415,-0.1162,-0.1162,-0.1564,-0.2266,-0.2266,-0.2967,-0.4219,-0.4219,-0.442,-0.4822,-0.5779,-0.6184,-0.6284,-0.7388,-0.7789,-0.7789,-0.7889,-0.7939,-0.7939,-0.7939,-0.7939,-0.7942,-0.7942,-0.7988,-0.7988,-0.7988,-0.7988,-0.7961,-0.7868,-0.7821,-0.778,-0.7651,-0.7397,-0.7132,-0.7119,-0.7105,-0.7095,-0.7095,-0.7095,-0.7095,-0.7095,-0.6991,-0.6906,-0.6906,-0.6831,-0.6736,-0.6722,-0.6722,-0.6795,-0.6943,-0.6864,-0.686,-0.7057,-0.7618,-0.8324,-0.9052,-0.9128,-0.9289,-0.9635,-0.9718,-0.9894,-1.0221,-1.1135,-1.164,-1.1663,-1.2517,-1.3041,-1.3253,-1.3473,-1.362,-1.3653,-1.3968,-1.4088,-1.4088,-1.4088,-1.4088,-1.4088,-1.4088,-1.4088,-1.4088,-1.4088,-1.4088,-1.4088,-1.4088,-1.4088,-1.4088,0.318,0.3079,0.2927,0.2927,0.2876,0.2826,0.2674,0.2219,0.1865,0.1765,0.121,0.0806,0.0806,0.0655,0.0555,0.0555,0.0,-0.0606,-0.1263,-0.1111,-0.096,-0.096,-0.096,-0.096,-0.096,-0.1162,-0.1263,-0.1263,-0.1061,-0.096,-0.0909,-0.0909,-0.0959,-0.1161,-0.1161,-0.1764,-0.2818,-0.2818,-0.3367,-0.4218,-0.4418,-0.4518,-0.462,-0.5724,-0.6126,-0.6226,-0.7086,-0.7388,-0.7388,-0.7388,-0.749,-0.7696,-0.7696,-0.7842,-0.7988,-0.7988,-0.7988,-0.7982,-0.7948,-0.7902,-0.7804,-0.7773,-0.7631,-0.7468,-0.735,-0.7227,-0.7095,-0.7095,-0.7095,-0.7095,-0.7095,-0.7071,-0.7051,-0.7051,-0.7021,-0.6964,-0.6852,-0.6836,-0.6834,-0.6753,-0.6754,-0.6733,-0.6774,-0.7067,-0.7326,-0.7485,-0.7655,-0.7756,-0.7873,-0.8472,-0.8846,-0.8891,-0.971,-1.0366,-1.0792,-1.0999,-1.1917,-1.3507,-1.3573,-1.3726,-1.3995,-1.4055,-1.4088,-1.4088,-1.4088,-1.4088,-1.4088,-1.4088,-1.4088,-1.4088,-1.4088,-1.4088,-1.4088,-1.4088,-1.4088,-1.4088,0.3982,0.3982,0.3982,0.3982,0.3982,0.3982,0.3982,0.3629,0.3324,0.3324,0.2971,0.2718,0.2718,0.2365,0.1964,0.1611,0.131,0.0958,0.0554,0.0151,-0.005,-0.005,-0.0505,-0.0808,-0.0808,-0.0808,-0.0859,-0.101,-0.0859,-0.0758,-0.0606,-0.0606,-0.0556,-0.0404,-0.0404,-0.0808,-0.1462,-0.1462,-0.1864,-0.2516,-0.3016,-0.3217,-0.3366,-0.4418,-0.482,-0.4918,-0.5472,-0.6024,-0.6531,-0.7036,-0.7288,-0.7391,-0.7391,-0.749,-0.764,-0.764,-0.764,-0.764,-0.764,-0.7582,-0.7524,-0.7524,-0.7521,-0.7523,-0.7516,-0.7363,-0.7251,-0.7251,-0.7146,-0.7095,-0.7095,-0.7095,-0.7095,-0.7095,-0.7095,-0.7068,-0.6997,-0.6987,-0.6957,-0.6919,-0.6851,-0.678,-0.6709,-0.6781,-0.6864,-0.6864,-0.6947,-0.7107,-0.7308,-0.7682,-0.8006,-0.8217,-0.9017,-0.9606,-0.9885,-1.0311,-1.1075,-1.2182,-1.2404,-1.2825,-1.344,-1.344,-1.3695,-1.4088,-1.4088,-1.4088,-1.4088,-1.4088,-1.4088,-1.4088,-1.4088,-1.4088,-1.4088,-1.4088,-1.4088,-1.4088,0.4784,0.4784,0.4784,0.4784,0.4784,0.4784,0.4784,0.4784,0.4784,0.4784,0.4784,0.4784,0.4784,0.4227,0.347,0.2667,0.2667,0.2618,0.2467,0.1662,0.1209,0.1209,0.0202,-0.0404,-0.0404,-0.0353,-0.0455,-0.0707,-0.0707,-0.0556,-0.0354,-0.0354,-0.0202,0.0,0.0,-0.0101,-0.0354,-0.0354,-0.0455,-0.0757,-0.1613,-0.2014,-0.2115,-0.3167,-0.3566,-0.3616,-0.3817,-0.442,-0.5375,-0.6431,-0.6836,-0.6886,-0.7089,-0.7138,-0.7188,-0.7188,-0.7188,-0.7188,-0.7188,-0.7188,-0.7188,-0.7188,-0.7303,-0.7385,-0.7512,-0.7489,-0.7456,-0.7456,-0.7288,-0.7136,-0.7136,-0.7112,-0.7095,-0.7095,-0.7095,-0.7095,-0.7095,-0.7095,-0.7095,-0.7095,-0.6994,-0.6873,-0.679,-0.6776,-0.6776,-0.6776,-0.6776,-0.6915,-0.7257,-0.7261,-0.7407,-0.776,-0.8452,-0.8842,-0.889,-0.9662,-1.0096,-1.0139,-1.0539,-1.1322,-1.24,-1.2443,-1.296,-1.387,-1.387,-1.3955,-1.4088,-1.4088,-1.4088,-1.4088,-1.4088,-1.4088,-1.4088,-1.4088,-1.4088,-1.4088,0.4784,0.4784,0.4784,0.4784,0.4784,0.4784,0.4784,0.4784,0.4784,0.4784,0.4784,0.4784,0.4784,0.4682,0.4329,0.3521,0.3671,0.3472,0.277,0.282,0.287,0.287,0.1865,0.1261,0.1261,0.0404,-0.0202,-0.0455,-0.0202,-0.0101,-0.0051,-0.0051,-0.0051,0.0,0.0,0.0,-0.0051,-0.0051,-0.0051,-0.0101,-0.0252,-0.0303,-0.0454,-0.1512,-0.1914,-0.2065,-0.2971,-0.3423,-0.3674,-0.4782,-0.5284,-0.5632,-0.6539,-0.6992,-0.7188,-0.7188,-0.7188,-0.7188,-0.7188,-0.7188,-0.7188,-0.7188,-0.7223,-0.7254,-0.7239,-0.7427,-0.7567,-0.7567,-0.7448,-0.7339,-0.7339,-0.7231,-0.7095,-0.7095,-0.7095,-0.7095,-0.7095,-0.7095,-0.7095,-0.7095,-0.7078,-0.7058,-0.7038,-0.7038,-0.7038,-0.7038,-0.7038,-0.7088,-0.7109,-0.7109,-0.7163,-0.7183,-0.7316,-0.7492,-0.772,-0.7852,-0.8025,-0.8288,-0.8332,-0.9371,-1.1219,-1.1408,-1.2015,-1.2875,-1.2875,-1.3349,-1.4088,-1.4088,-1.4088,-1.4088,-1.4088,-1.4088,-1.4088,-1.4088,-1.4088,-1.4088,0.5687,0.5687,0.5687,0.5687,0.5687,0.5687,0.5687,0.5687,0.5687,0.5687,0.5687,0.5687,0.5687,0.5687,0.5534,0.5179,0.5279,0.5179,0.4828,0.4379,0.4079,0.4079,0.3073,0.2519,0.2519,0.2016,0.1714,0.1613,0.0505,0.0,0.0,0.0,0.0,0.0,0.0,0.0,0.0,0.0,0.0,0.0,0.0,0.0,-0.0051,-0.0505,-0.0707,-0.0858,-0.1915,-0.2318,-0.2469,-0.3525,-0.3977,-0.4176,-0.463,-0.488,-0.5079,-0.5684,-0.5837,-0.5984,-0.6587,-0.6736,-0.6736,-0.6736,-0.6889,-0.6992,-0.6992,-0.7199,-0.7333,-0.726,-0.7271,-0.7306,-0.7306,-0.7279,-0.7272,-0.7272,-0.7152,-0.7095,-0.7095,-0.7095,-0.7095,-0.7095,-0.7095,-0.7095,-0.7095,-0.7095,-0.7095,-0.7095,-0.7095,-0.7095,-0.7095,-0.7095,-0.7095,-0.7095,-0.7095,-0.7143,-0.7279,-0.7279,-0.7323,-0.7452,-0.7591,-0.8504,-1.0009,-1.0101,-1.1009,-1.2467,-1.2467,-1.3082,-1.4088,-1.4088,-1.4088,-1.4088,-1.4088,-1.4088,-1.4088,-1.4088,-1.4088,-1.4088]}]]